GFSMW_850_dewp_000.txt.gz
Dewpoint
-2 -3 -4 -3 -3 -3 -2 0 2 4 6 7 7 7 6 6 6 6 6 8 9 10 10 10 10 10 11 10 10 10 10 10 10 10 10 9 9 9 9 8 8 8 7
-2 -3 -3 -3 -3 -3 -2 -2 -2 0 1 4 7 7 7 7 7 8 9 10 9 10 10 10 10 10 10 10 11 11 11 11 11 11 10 9 9 9 9 8 6 3 4
0 -1 -2 -3 -3 -4 -3 -3 -2 -1 1 3 5 7 8 8 8 10 10 9 10 10 10 11 11 10 10 10 10 10 11 11 10 10 10 10 9 9 9 9 8 8 7
1 0 -1 -2 -2 -1 -2 -2 -1 0 2 3 4 6 8 8 8 7 7 7 8 8 8 9 9 9 9 10 10 10 10 10 10 10 10 10 10 10 9 9 9 9 9
1 0 0 -0 -1 -1 -1 -1 -1 -1 -1 -1 1 2 2 1 1 1 2 4 6 8 8 8 9 9 9 9 10 10 11 11 10 10 11 11 11 11 10 10 9 8 9
0 0 1 0 -0 0 -0 -1 -1 -1 -1 -1 -0 -0 0 0 0 0 1 1 0 -0 -1 0 3 4 5 5 7 8 9 9 10 11 11 11 11 11 10 10 10 10 8
-1 -1 -0 0 0 0 -0 0 1 1 1 1 0 1 0 1 1 2 2 2 2 2 1 1 0 -0 0 0 1 2 3 5 6 8 9 10 11 11 11 10 10 10 10
-1 -1 -0 1 1 1 1 1 1 1 1 0 -0 -1 -1 -1 1 1 2 2 1 -0 -2 -3 -4 -5 -6 -6 -4 -1 0 1 2 2 2 3 4 7 9 10 10 10 10
0 0 0 1 2 2 2 2 1 1 1 -2 -5 -4 -3 -3 -3 -2 -1 -1 -1 -2 -2 -4 -5 -6 -7 -8 -8 -8 -8 -5 -2 0 1 2 3 4 4 4 7 8 9
1 1 1 2 2 2 2 2 1 1 -1 -6 -6 -4 -4 -4 -4 -3 -3 -3 -2 -3 -3 -4 -6 -6 -6 -6 -6 -6 -6 -5 -5 -0 3 3 4 5 5 6 6 7 9
1 1 2 2 2 2 2 2 2 0 -3 -8 -6 -5 -4 -3 -2 -2 -2 -2 -2 -3 -5 -6 -6 -5 -5 -4 -3 -2 -2 -1 1 3 2 2 2 3 4 4 5 5 6
1 2 2 2 2 2 2 1 -0 -2 -6 -5 -4 -5 -6 -6 -4 -3 -3 -3 -5 -7 -8 -9 -8 -7 -6 -4 -2 -2 0 1 -1 -1 -0 2 3 3 3 3 3 4 5
2 2 2 1 1 0 -0 -1 -1 -4 -5 -4 -5 -5 -4 -4 -4 -6 -8 -10 -13 -16 -17 -15 -13 -11 -7 -5 -4 0 0 -3 -2 -1 1 1 1 1 -1 0 2 3 3
2 1 0 0 0 -0 -1 -2 -5 -4 -4 -4 -5 -5 -7 -9 -11 -16 -25 -33 -36 -36 -35 -32 -28 -18 -9 -9 -6 -6 -6 -3 -2 -3 -3 -4 -6 -9 -8 0 1 2 4
1 -0 -0 0 -0 -1 -2 -5 -3 -3 -4 -5 -7 -11 -15 -24 -36 -36 -35 -35 -35 -35 -33 -32 -29 -22 -17 -16 -10 -11 -9 -6 -4 -7 -9 -11 -14 -14 -2 -9 -9 -3 2
-0 -1 -0 -1 -2 -4 -3 -1 -2 -3 -5 -9 -15 -28 -39 -35 -33 -34 -35 -34 -33 -32 -31 -31 -29 -29 -26 -19 -19 -16 -8 -5 -9 -10 -13 -15 -19 -12 -15 -24 -15 -9 0
-1 -1 -1 -2 -4 -2 -1 -2 -3 -5 -11 -21 -37 -35 -32 -33 -33 -31 -29 -28 -27 -26 -25 -25 -25 -25 -25 -21 -14 -8 -6 -10 -11 -11 -13 -20 -16 -3 -10 -20 -18 -14 -4
-0 -0 -1 -3 -1 -0 -1 -3 -6 -13 -28 -36 -32 -31 -31 -30 -28 -27 -26 -25 -24 -24 -23 -23 -23 -22 -22 -19 -11 -8 -11 -15 -18 -13 -20 -21 -4 -5 -10 -11 -9 -9 -2
0 -1 -1 -1 0 -1 -2 -6 -14 -29 -34 -31 -31 -30 -28 -26 -25 -25 -25 -24 -23 -22 -21 -20 -20 -20 -16 -13 -13 -15 -19 -18 -12 -10 -12 -6 -4 -4 -4 -4 -5 -3 -2
0 -0 -1 0 -0 -2 -6 -14 -28 -29 -29 -30 -29 -27 -25 -24 -24 -23 -23 -22 -22 -21 -20 -20 -19 -18 -15 -14 -13 -10 -9 -8 -7 -7 -6 -5 -5 -4 -5 -4 -3 -2 -2
1 -0 0 1 1 -3 -13 -27 -28 -29 -29 -27 -26 -24 -23 -22 -22 -22 -22 -22 -21 -20 -19 -18 -18 -14 -12 -11 -9 -8 -7 -7 -6 -6 -6 -7 -7 -6 -5 -4 -3 -3 -3
-0 0 1 1 0 -12 -25 -27 -29 -27 -25 -25 -24 -24 -23 -22 -22 -21 -21 -21 -20 -18 -16 -13 -11 -10 -9 -9 -8 -7 -7 -6 -7 -6 -7 -7 -7 -6 -4 -4 -4 -4 -4
0 1 1 -0 -4 -22 -25 -27 -26 -25 -24 -24 -24 -23 -23 -22 -22 -20 -20 -19 -18 -15 -13 -10 -9 -8 -9 -10 -8 -8 -7 -7 -7 -7 -6 -7 -6 -6 -5 -5 -5 -5 -4
0 -1 -1 -8 -25 -24 -26 -26 -25 -24 -24 -24 -24 -23 -22 -20 -19 -19 -19 -17 -15 -12 -10 -8 -8 -8 -8 -8 -8 -7 -7 -8 -7 -7 -8 -8 -7 -7 -7 -7 -6 -6 -5
-1 -4 -12 -26 -24 -25 -26 -25 -24 -23 -23 -23 -23 -22 -20 -19 -18 -19 -18 -15 -13 -9 -8 -9 -8 -8 -8 -9 -7 -8 -8 -7 -8 -9 -9 -10 -10 -10 -9 -8 -7 -6 -6
-6 -12 -25 -22 -24 -25 -25 -24 -23 -22 -22 -23 -22 -20 -18 -17 -17 -17 -17 -17 -13 -9 -9 -9 -9 -9 -9 -8 -9 -9 -8 -8 -10 -10 -10 -10 -10 -9 -9 -8 -7 -7 -7

GFSMW_850_dewp_003.txt.gz
Dewpoint
-1 -1 -1 -2 -2 -3 -2 -1 -0 0 2 3 6 6 7 7 7 7 8 9 9 10 11 11 11 11 11 11 11 11 11 11 11 11 10 9 9 9 9 8 8 8 8
-1 -2 -1 -2 -3 -2 -1 -1 -1 0 2 3 5 7 7 8 8 9 10 10 11 11 10 10 10 10 10 10 10 10 11 11 10 10 10 10 9 8 8 8 8 8 9
-1 -1 -2 -2 -2 -2 -2 -1 -0 1 2 4 6 8 8 9 9 9 7 7 7 8 8 8 8 9 9 9 9 10 11 10 10 10 11 10 9 9 8 7 8 8 8
0 -0 -1 -1 -1 -1 -1 -1 -1 -1 -0 1 3 4 5 4 3 2 2 3 4 5 5 5 5 6 7 7 8 9 9 10 10 10 10 11 11 10 10 10 9 8 9
-0 -0 -0 -0 -0 -0 -1 -1 -1 -1 -1 -1 -1 -0 -0 1 1 1 1 1 1 1 0 0 0 0 0 1 3 4 5 7 9 10 10 10 10 10 10 9 9 9 10
-0 -0 0 0 0 0 -0 -0 -1 -1 -0 -0 -0 -0 -0 0 -0 -0 -1 -1 -1 -1 -1 -2 -2 -2 -3 -4 -4 -3 -1 1 2 3 5 6 7 8 9 10 10 10 10
-1 -0 1 0 0 0 0 0 1 1 1 0 -0 -1 -1 -2 -2 -3 -4 -5 -5 -5 -4 -3 -3 -3 -4 -5 -7 -7 -8 -8 -6 -4 -1 1 2 3 3 5 7 8 7
-1 -0 0 1 1 1 1 1 1 1 1 -2 -4 -4 -4 -4 -4 -4 -5 -4 -4 -4 -3 -3 -3 -4 -5 -6 -6 -6 -6 -7 -7 -6 -6 -3 1 3 4 5 7 7 7
0 0 1 1 1 1 1 1 1 1 0 -3 -6 -5 -5 -6 -5 -5 -4 -4 -4 -4 -4 -4 -5 -6 -7 -7 -7 -6 -6 -5 -3 -2 -1 2 2 2 1 2 4 6 7
1 1 1 1 1 2 2 2 2 1 -2 -7 -6 -5 -5 -5 -6 -6 -6 -6 -6 -7 -8 -9 -10 -11 -11 -10 -8 -7 -6 -4 -0 0 -1 -2 -2 -1 0 2 2 3 4
1 1 1 1 2 2 2 2 1 -2 -5 -6 -5 -5 -5 -5 -6 -7 -8 -10 -12 -15 -19 -24 -27 -28 -25 -19 -12 -8 -5 1 0 -4 -3 -3 -0 0 -1 -1 -0 -1 0
1 1 2 2 2 2 2 0 -1 -3 -6 -4 -4 -4 -5 -6 -8 -12 -17 -25 -34 -35 -35 -35 -35 -33 -30 -25 -18 -14 -5 -4 -9 -8 -6 -3 -5 -9 -10 -10 -8 -7 -2
1 2 2 2 2 1 -0 -1 -3 -6 -4 -3 -3 -4 -7 -11 -19 -32 -42 -38 -35 -35 -35 -35 -33 -32 -30 -28 -26 -20 -13 -12 -14 -10 -4 -3 -9 -11 -12 -15 -2 -1 -14
1 2 2 2 1 0 -1 -3 -5 -2 -2 -2 -3 -7 -14 -29 -43 -37 -34 -35 -34 -33 -32 -32 -31 -30 -30 -29 -26 -25 -17 -16 -12 -7 -4 -8 -9 -12 -16 -8 -0 -4 -14
2 1 1 1 0 -1 -4 -4 -2 -2 -2 -4 -9 -18 -38 -41 -34 -33 -33 -33 -31 -31 -30 -30 -31 -31 -30 -29 -27 -23 -15 -6 -6 -8 -10 -13 -13 -13 -11 -4 -6 -5 -6
1 0 0 1 -1 -5 -3 -1 -1 -2 -4 -10 -20 -38 -37 -33 -32 -32 -31 -31 -30 -29 -29 -29 -29 -29 -27 -26 -24 -17 -9 -6 -10 -13 -14 -15 -17 -18 -9 -11 -11 -4 -3
1 -0 1 -0 -4 -2 -0 -0 -1 -3 -9 -24 -36 -33 -31 -32 -31 -29 -29 -28 -27 -27 -28 -27 -26 -26 -25 -23 -20 -13 -9 -11 -13 -13 -12 -15 -13 -11 -7 -7 -5 -4 -4
-0 0 0 -3 -2 0 0 -1 -2 -9 -24 -31 -30 -30 -30 -29 -28 -27 -27 -26 -26 -26 -26 -26 -25 -24 -23 -21 -17 -12 -10 -9 -9 -9 -9 -8 -7 -7 -6 -6 -6 -5 -7
-0 0 -2 -2 -1 1 1 -1 -8 -24 -27 -29 -30 -30 -28 -28 -27 -26 -25 -25 -25 -25 -25 -24 -23 -23 -22 -19 -15 -9 -8 -8 -8 -9 -7 -6 -7 -7 -7 -7 -6 -7 -6
-0 -1 -1 -1 0 -0 -2 -9 -19 -24 -30 -31 -29 -27 -26 -25 -25 -25 -24 -24 -24 -24 -24 -23 -22 -21 -18 -16 -9 -8 -8 -8 -7 -6 -7 -8 -7 -7 -7 -7 -6 -4 -4
0 -0 -1 -0 -0 -1 -5 -15 -16 -30 -30 -28 -27 -26 -25 -24 -25 -24 -23 -23 -24 -23 -22 -21 -21 -19 -14 -10 -9 -8 -8 -7 -6 -7 -8 -8 -8 -6 -8 -7 -6 -6 -5
0 -1 -1 -0 -1 -2 -8 -17 -29 -29 -27 -26 -26 -25 -25 -24 -23 -23 -23 -23 -23 -22 -21 -19 -17 -14 -10 -9 -9 -8 -8 -7 -7 -8 -8 -8 -7 -8 -8 -8 -8 -7 -6
-0 -0 -0 -1 -3 -9 -20 -28 -28 -26 -25 -25 -25 -25 -24 -24 -23 -22 -22 -22 -21 -18 -16 -12 -10 -9 -10 -11 -10 -9 -7 -8 -8 -9 -7 -8 -9 -9 -10 -9 -8 -7 -8
-0 -0 -1 -3 -10 -24 -27 -26 -25 -25 -25 -24 -24 -24 -23 -23 -22 -21 -21 -19 -18 -15 -12 -9 -9 -9 -10 -10 -11 -8 -8 -9 -9 -7 -9 -11 -11 -10 -10 -10 -9 -9 -8
0 -2 -6 -14 -25 -24 -25 -25 -25 -24 -24 -23 -23 -22 -22 -22 -21 -22 -21 -19 -17 -11 -10 -9 -9 -9 -9 -10 -9 -8 -9 -9 -7 -8 -11 -14 -11 -11 -11 -11 -10 -10 -9
-2 -6 -13 -25 -22 -24 -25 -24 -23 -23 -23 -22 -22 -22 -21 -20 -20 -21 -21 -19 -13 -10 -10 -10 -10 -10 -10 -10 -9 -9 -9 -8 -9 -10 -12 -12 -10 -11 -11 -11 -11 -10 -9

GFSMW_850_dewp_006.txt.gz
Dewpoint
0 0 -1 -1 -2 -2 -2 -3 -3 -3 -1 1 3 6 7 8 9 9 9 10 10 10 11 11 10 9 9 9 9 9 10 10 10 11 9 9 8 8 8 7 7 7 7
-1 -1 -1 -2 -3 -3 -3 -4 -3 -2 -1 2 5 6 8 8 9 9 9 8 7 7 7 7 7 7 8 8 8 9 10 10 10 10 10 10 10 9 9 9 9 8 8
-1 -0 -1 -1 -1 -2 -2 -2 -2 -3 -2 -0 3 6 8 8 6 4 2 3 4 4 4 3 3 2 2 2 4 4 4 8 9 10 9 10 10 10 9 9 8 8 9
1 0 -0 -1 -1 -1 -1 -2 -2 -2 -1 -1 -1 -0 0 0 1 1 1 1 1 1 1 1 0 -0 -1 -2 -3 -3 -3 -1 0 3 6 8 8 9 9 9 9 9 9
1 1 0 -0 -0 -0 -1 -1 -1 -1 -0 -1 -0 -0 0 1 1 0 -1 -2 -3 -4 -4 -4 -4 -3 -3 -3 -4 -5 -6 -7 -7 -6 -4 -2 -0 3 7 7 7 6 6
1 1 1 1 0 0 0 0 -0 -0 0 -0 -0 -1 -2 -3 -4 -5 -5 -6 -6 -6 -6 -5 -5 -4 -4 -4 -5 -6 -6 -6 -6 -6 -5 -3 0 1 3 5 6 6 6
1 1 1 1 1 1 1 1 1 1 -0 -3 -4 -4 -4 -5 -5 -5 -5 -5 -5 -5 -5 -6 -6 -6 -7 -8 -9 -9 -9 -8 -7 -5 -4 -2 -0 1 1 1 3 4 4
1 1 1 1 1 1 1 1 1 0 -0 -2 -6 -6 -5 -5 -5 -5 -5 -5 -6 -6 -8 -9 -12 -14 -17 -19 -20 -19 -15 -11 -8 -4 -1 0 -1 -2 -2 1 3 4 4
1 1 1 1 1 1 1 1 1 1 -1 -5 -7 -6 -5 -5 -4 -4 -4 -6 -9 -13 -18 -27 -34 -35 -35 -34 -34 -31 -26 -16 -7 -0 0 -4 -5 -4 0 1 -0 -1 2
1 1 1 1 1 1 2 2 1 -0 -3 -6 -5 -4 -3 -3 -3 -5 -8 -13 -23 -35 -37 -36 -35 -34 -34 -33 -33 -32 -30 -21 -6 -7 -11 -14 -11 -4 -2 -9 -9 -11 -2
1 1 1 1 1 2 2 2 0 -2 -5 -5 -3 -2 -2 -4 -7 -12 -21 -35 -38 -35 -34 -34 -33 -32 -31 -31 -31 -31 -29 -25 -20 -18 -16 -11 -3 -1 -5 -9 -8 -14 -8
1 1 1 1 2 2 2 0 -1 -4 -5 -2 -1 -2 -4 -7 -15 -27 -38 -37 -34 -34 -33 -32 -31 -30 -30 -30 -30 -29 -27 -24 -21 -16 -9 -6 -7 -9 -9 -10 -11 -11 -1
1 2 2 2 2 2 1 -1 -3 -5 -2 -1 -1 -3 -7 -16 -30 -35 -35 -33 -33 -32 -32 -31 -30 -29 -29 -30 -30 -29 -27 -21 -16 -7 -7 -9 -11 -12 -12 -13 -12 -5 -2
1 1 2 2 2 1 0 -2 -4 -1 -0 -0 -3 -9 -17 -27 -32 -33 -33 -32 -31 -31 -30 -30 -29 -29 -29 -29 -29 -29 -26 -20 -13 -7 -10 -12 -13 -12 -10 -9 -7 -4 -4
1 2 2 2 2 1 -2 -4 -1 1 1 -3 -9 -17 -22 -31 -32 -32 -31 -31 -30 -30 -29 -28 -27 -28 -28 -29 -27 -25 -21 -16 -12 -11 -14 -14 -14 -10 -8 -6 -6 -6 -5
1 1 2 2 1 -1 -4 -0 1 -0 -2 -6 -11 -20 -27 -30 -31 -30 -30 -30 -29 -28 -27 -26 -27 -27 -28 -29 -26 -15 -10 -11 -10 -10 -10 -11 -10 -8 -7 -7 -7 -6 -6
1 1 1 1 -0 -3 -1 0 0 -2 -4 -5 -13 -24 -31 -31 -30 -29 -29 -28 -27 -26 -25 -26 -27 -28 -27 -25 -22 -12 -9 -9 -9 -9 -10 -10 -8 -6 -7 -7 -7 -7 -6
1 1 1 1 -3 -1 0 0 -2 -3 -5 -12 -20 -30 -30 -29 -28 -28 -27 -26 -25 -25 -25 -26 -26 -25 -25 -22 -16 -9 -8 -8 -9 -10 -9 -7 -7 -9 -7 -7 -6 -7 -10
1 0 1 -1 -2 -0 -1 -1 -2 -7 -14 -22 -29 -30 -28 -27 -27 -27 -25 -24 -24 -24 -25 -25 -25 -24 -24 -19 -11 -8 -9 -9 -9 -10 -8 -6 -8 -8 -7 -7 -7 -8 -8
0 0 -1 -2 -1 -1 0 -2 -5 -9 -22 -29 -29 -28 -27 -27 -26 -24 -23 -23 -23 -23 -24 -25 -24 -23 -19 -16 -9 -9 -9 -8 -9 -8 -7 -9 -8 -8 -7 -8 -8 -8 -10
0 -0 -1 -1 -1 -0 -2 -3 -12 -23 -25 -28 -27 -27 -26 -25 -24 -23 -22 -22 -22 -23 -24 -24 -24 -19 -13 -10 -9 -9 -9 -8 -8 -7 -9 -11 -8 -7 -9 -9 -9 -9 -9
0 -0 -1 -1 -0 -1 -4 -16 -24 -26 -27 -27 -26 -25 -24 -22 -22 -21 -21 -22 -22 -22 -23 -22 -17 -12 -10 -10 -10 -9 -9 -8 -8 -9 -11 -9 -8 -9 -10 -10 -10 -9 -9
1 -0 -1 -0 -2 -6 -14 -24 -25 -26 -26 -26 -25 -23 -21 -20 -20 -21 -21 -21 -22 -21 -19 -13 -10 -9 -10 -11 -11 -9 -8 -8 -9 -10 -8 -9 -10 -11 -13 -11 -10 -10 -11
0 -1 -1 -2 -7 -14 -23 -24 -25 -26 -25 -24 -22 -21 -19 -19 -20 -20 -21 -21 -19 -15 -12 -10 -9 -10 -10 -10 -11 -9 -9 -10 -9 -9 -8 -10 -13 -15 -11 -12 -13 -13 -11
-0 -0 -2 -5 -11 -21 -23 -24 -24 -24 -23 -22 -21 -19 -19 -19 -20 -20 -20 -18 -15 -11 -10 -10 -10 -10 -10 -10 -9 -9 -9 -9 -9 -9 -10 -12 -13 -11 -11 -12 -12 -13 -12
-2 -2 -4 -5 -20 -22 -23 -23 -22 -22 -21 -21 -19 -19 -19 -19 -20 -20 -20 -16 -13 -11 -11 -10 -10 -10 -10 -10 -10 -10 -10 -9 -12 -13 -12 -11 -11 -11 -12 -12 -12 -13 -11

GFSMW_850_dewp_009.txt.gz
Dewpoint
1 1 -0 -1 -1 -2 -2 -2 -3 -1 1 2 4 6 7 8 8 9 9 9 8 8 7 7 6 6 6 6 5 5 5 5 5 8 8 9 8 8 8 8 9 8 7
0 -0 -1 -2 -2 -2 -3 -4 -4 -3 -2 -0 4 7 8 8 8 7 6 4 3 3 3 2 1 0 -0 -1 -1 -2 -3 -3 -3 6 5 8 7 7 8 8 6 7 8
0 0 -1 -1 -1 -2 -3 -3 -4 -3 -3 -2 1 5 5 3 1 0 0 1 1 1 1 -0 -1 -3 -3 -4 -4 -4 -4 -5 -5 -6 1 5 5 5 3 5 6 7 8
1 0 -1 -1 -1 -1 -2 -2 -2 -2 -2 -1 -1 -1 -0 0 1 1 1 -1 -4 -5 -5 -5 -5 -5 -5 -5 -5 -5 -5 -6 -6 -6 -4 -5 -1 3 2 0 2 2 5
1 0 -0 -0 -0 -0 -1 -1 -1 -1 -0 -0 -0 -0 -1 -1 -3 -4 -5 -5 -5 -4 -4 -4 -5 -6 -8 -10 -11 -12 -12 -12 -9 -7 -5 -4 -1 1 3 3 2 2 2
1 1 1 1 0 0 0 0 -0 -0 -1 -2 -3 -4 -5 -5 -5 -5 -4 -3 -3 -3 -4 -5 -8 -13 -19 -26 -31 -33 -33 -31 -24 -14 -7 1 2 2 2 1 1 1 1
1 1 1 1 1 1 1 1 0 -0 -1 -3 -5 -6 -6 -5 -4 -3 -3 -2 -2 -3 -6 -12 -19 -30 -35 -34 -33 -33 -32 -32 -30 -22 -9 -1 -0 -1 -1 -1 0 2 2
2 1 1 1 1 1 1 1 1 -0 -2 -4 -6 -5 -4 -3 -2 -2 -2 -4 -7 -12 -21 -30 -35 -34 -32 -31 -30 -29 -30 -30 -30 -24 -17 -15 -18 -14 -5 -2 -0 1 -1
2 1 1 1 1 1 1 1 1 -1 -3 -5 -5 -4 -2 -1 -1 -3 -5 -8 -15 -23 -33 -34 -33 -32 -30 -29 -28 -28 -28 -29 -29 -30 -26 -25 -22 -10 -3 -1 -0 -3 -0
2 2 1 1 1 1 1 1 0 -1 -3 -5 -3 -1 -1 -2 -3 -5 -9 -15 -27 -33 -33 -32 -31 -30 -29 -28 -27 -27 -27 -28 -28 -24 -24 -18 -10 -7 -4 -5 -4 -3 -4
2 2 1 2 1 1 1 1 -1 -3 -5 -3 -1 -1 -1 -3 -6 -11 -17 -27 -33 -32 -31 -31 -30 -29 -28 -27 -26 -26 -27 -27 -24 -22 -14 -7 -6 -10 -13 -9 -9 -9 -10
1 2 1 2 2 2 1 0 -2 -4 -3 -1 -0 -1 -3 -5 -10 -18 -27 -31 -32 -31 -30 -30 -29 -28 -26 -25 -26 -26 -27 -25 -21 -12 -7 -7 -11 -12 -11 -11 -8 -8 -7
1 2 2 2 2 2 1 -0 -3 -3 -1 1 -1 -3 -5 -9 -16 -23 -29 -31 -31 -30 -30 -28 -27 -25 -23 -24 -25 -27 -27 -24 -18 -13 -9 -10 -10 -10 -9 -8 -7 -6 -7
1 2 2 2 2 1 1 -2 -3 -0 1 -0 -1 -3 -6 -13 -21 -29 -31 -30 -29 -29 -28 -25 -23 -22 -23 -24 -26 -27 -23 -16 -14 -11 -10 -10 -9 -9 -8 -7 -6 -7 -6
1 2 2 2 2 1 -0 -3 -1 1 0 -0 -3 -6 -12 -21 -30 -30 -29 -29 -29 -27 -24 -22 -21 -22 -23 -26 -26 -20 -17 -14 -13 -10 -10 -9 -9 -8 -7 -7 -7 -7 -7
1 1 2 2 2 1 -2 -1 0 1 0 -3 -7 -12 -20 -29 -30 -29 -29 -28 -25 -22 -20 -20 -21 -22 -24 -25 -25 -19 -11 -9 -8 -9 -10 -9 -9 -8 -7 -7 -7 -7 -7
1 1 2 2 2 -0 -2 -0 0 0 -3 -7 -11 -17 -27 -29 -28 -28 -27 -24 -20 -19 -20 -21 -22 -23 -24 -24 -22 -9 -8 -8 -9 -9 -9 -9 -8 -7 -8 -8 -8 -7 -7
1 1 2 2 1 -2 -1 -0 -0 -1 -5 -9 -16 -27 -28 -28 -28 -27 -23 -19 -19 -19 -20 -21 -22 -23 -23 -22 -15 -9 -9 -9 -9 -9 -9 -8 -8 -8 -8 -7 -6 -9 -13
0 1 1 1 -1 -2 -1 -0 -1 -4 -7 -16 -24 -28 -28 -27 -26 -21 -19 -18 -19 -19 -20 -21 -22 -23 -22 -19 -11 -9 -9 -10 -9 -9 -8 -7 -9 -9 -8 -7 -9 -10 -10
0 1 1 -0 -2 -1 -1 -1 -3 -6 -14 -23 -27 -27 -26 -25 -21 -19 -18 -19 -19 -20 -21 -22 -22 -20 -18 -16 -9 -9 -10 -9 -9 -8 -8 -9 -10 -9 -8 -8 -9 -10 -11
0 0 -0 -2 -1 -1 -1 -3 -7 -13 -22 -26 -27 -25 -24 -21 -19 -18 -18 -19 -19 -20 -21 -22 -20 -17 -14 -11 -10 -9 -9 -9 -8 -9 -9 -10 -9 -8 -8 -10 -11 -10 -10
0 -0 -1 -1 -1 -1 -3 -8 -15 -20 -25 -26 -25 -23 -21 -19 -18 -18 -18 -19 -20 -21 -21 -20 -17 -14 -10 -10 -10 -9 -9 -9 -9 -9 -10 -9 -8 -9 -10 -11 -11 -10 -10
0 -0 -1 -1 -1 -2 -8 -15 -18 -24 -25 -24 -23 -22 -20 -17 -17 -18 -19 -20 -21 -20 -20 -15 -11 -10 -11 -11 -10 -9 -9 -9 -10 -10 -9 -10 -12 -11 -11 -11 -11 -11 -11
0 -0 -1 -1 -2 -7 -9 -18 -23 -24 -23 -22 -22 -21 -17 -16 -18 -19 -20 -21 -21 -18 -13 -10 -10 -11 -11 -11 -11 -9 -10 -10 -9 -9 -11 -13 -12 -11 -11 -12 -12 -12 -12
-0 -1 -1 -2 -6 -6 -19 -22 -23 -22 -22 -22 -20 -16 -16 -17 -19 -20 -20 -20 -18 -13 -10 -10 -10 -10 -10 -11 -10 -10 -10 -9 -10 -12 -13 -13 -11 -12 -13 -13 -12 -12 -12
-0 -1 -3 -4 -6 -19 -21 -22 -22 -22 -22 -19 -15 -16 -18 -19 -20 -21 -22 -20 -16 -11 -11 -10 -10 -11 -10 -10 -10 -11 -10 -10 -12 -12 -13 -13 -12 -12 -12 -12 -12 -12 -12

GFSMW_850_dewp_012.txt.gz
Dewpoint
1 1 1 1 1 -0 -0 1 2 2 4 6 7 8 8 9 9 8 7 6 5 3 2 0 -0 -1 -1 -2 -3 -4 -3 -0 1 1 1 2 4 5 4 7 8 5 6
2 1 0 -1 -1 -2 -3 -3 -2 -1 2 5 7 7 7 7 6 3 1 0 0 -0 -1 -3 -5 -5 -5 -5 -5 -5 -5 -0 -0 0 0 -0 0 0 2 -0 -0 2 1
1 2 -0 -1 -2 -3 -3 -3 -3 -3 -1 1 3 3 2 1 1 1 0 -1 -4 -5 -5 -4 -4 -5 -6 -7 -10 -10 -9 -2 -4 -2 -2 -2 -0 -0 -1 -1 -1 -0 2
2 2 2 0 -1 -1 -2 -2 -2 -2 -1 -1 -1 -0 -0 -0 -1 -4 -5 -5 -4 -3 -3 -4 -6 -9 -14 -18 -23 -26 -22 -8 -4 -4 -4 -3 -2 -1 -1 -2 -1 -2 0
2 3 3 -0 -0 -1 -1 -1 -1 -1 -1 -1 -2 -3 -4 -5 -5 -5 -3 -3 -2 -3 -6 -8 -11 -16 -24 -31 -32 -30 -27 -11 -7 -6 -4 -3 -2 -3 -2 -2 -5 -5 -5
2 3 1 0 0 -0 -0 -0 -1 -1 -2 -3 -4 -5 -5 -5 -4 -2 -1 -3 -5 -6 -7 -11 -17 -28 -32 -31 -30 -28 -27 -24 -22 -13 -6 -3 -4 -5 -6 -8 -8 -7 -7
3 3 2 1 1 0 0 -0 -1 -1 -2 -4 -5 -5 -4 -3 -2 -3 -3 -4 -5 -7 -9 -15 -26 -31 -31 -29 -28 -27 -26 -20 -19 -10 -5 -5 -8 -9 -10 -10 -6 -5 -5
2 3 3 1 1 1 0 0 -0 -1 -3 -5 -5 -4 -2 -2 -2 -2 -3 -5 -7 -11 -18 -28 -31 -31 -29 -28 -27 -26 -20 -14 -12 -14 -14 -7 -10 -10 -8 -6 -4 -2 -2
3 3 3 2 1 1 1 0 -1 -2 -4 -4 -4 -2 -1 -1 -1 -3 -5 -7 -11 -19 -29 -31 -30 -29 -28 -28 -26 -23 -20 -18 -13 -13 -10 -10 -10 -8 -7 -6 -6 -7 -5
3 3 3 2 1 1 1 0 -1 -3 -4 -4 -2 -1 -0 -1 -3 -5 -7 -12 -21 -28 -30 -30 -29 -29 -27 -25 -22 -19 -19 -15 -14 -13 -11 -10 -10 -7 -9 -10 -11 -10 -9
3 2 2 2 1 1 1 0 -1 -3 -4 -2 -1 -0 -1 -3 -5 -7 -11 -18 -25 -30 -30 -29 -28 -26 -23 -21 -20 -19 -17 -15 -13 -12 -11 -10 -10 -9 -11 -11 -11 -10 -10
3 2 3 2 1 1 1 -0 -2 -4 -3 -1 -0 -2 -3 -4 -7 -11 -16 -27 -31 -30 -29 -27 -24 -21 -20 -20 -20 -17 -15 -14 -12 -12 -11 -11 -11 -10 -11 -10 -10 -9 -9
3 2 3 2 1 1 1 -1 -2 -3 -1 -0 -1 -2 -4 -6 -10 -17 -28 -30 -30 -28 -26 -22 -20 -19 -20 -20 -19 -16 -14 -12 -12 -11 -11 -11 -10 -10 -10 -10 -9 -9 -9
2 2 3 2 1 1 0 -1 -3 -2 -0 -0 -2 -4 -6 -9 -16 -27 -30 -29 -28 -25 -21 -19 -19 -19 -20 -20 -18 -18 -13 -11 -11 -10 -10 -10 -10 -10 -9 -9 -9 -8 -7
2 2 3 2 0 1 -0 -2 -2 -0 -0 -1 -4 -6 -8 -15 -23 -29 -28 -28 -24 -20 -19 -18 -19 -19 -20 -18 -22 -19 -10 -10 -10 -9 -10 -10 -10 -9 -8 -8 -7 -7 -8
1 2 3 2 0 -0 -0 -2 -1 -0 -1 -3 -5 -7 -13 -22 -28 -28 -27 -22 -19 -18 -17 -18 -19 -19 -19 -21 -23 -13 -9 -9 -10 -10 -10 -11 -10 -10 -8 -8 -7 -8 -7
1 2 2 2 0 1 -1 -2 -0 -1 -2 -4 -7 -11 -19 -27 -28 -26 -22 -19 -17 -17 -18 -18 -18 -19 -18 -18 -17 -9 -9 -9 -10 -11 -11 -11 -11 -8 -8 -9 -9 -8 -7
1 2 2 2 2 1 -2 -1 -1 -1 -3 -6 -10 -17 -27 -27 -26 -22 -19 -17 -17 -17 -17 -17 -17 -16 -15 -13 -10 -9 -9 -10 -11 -11 -10 -10 -9 -8 -9 -9 -8 -7 -8
0 1 1 2 2 -0 -2 -1 -1 -2 -6 -10 -15 -26 -27 -25 -23 -20 -18 -16 -17 -17 -17 -17 -15 -15 -15 -12 -9 -9 -10 -11 -11 -10 -10 -8 -9 -9 -9 -7 -8 -8 -10
-0 0 1 2 0 -2 -2 -1 -2 -5 -8 -13 -24 -26 -25 -23 -21 -19 -17 -17 -17 -17 -16 -15 -15 -14 -13 -11 -9 -9 -10 -10 -10 -10 -8 -10 -10 -9 -8 -8 -10 -9 -11
-0 0 1 0 -2 -2 -1 -2 -5 -8 -11 -21 -25 -24 -23 -21 -20 -17 -17 -17 -17 -16 -15 -15 -15 -13 -12 -11 -10 -9 -10 -10 -9 -9 -9 -10 -9 -9 -10 -11 -10 -10 -10
-0 -0 -1 -2 -2 -1 -1 -3 -8 -12 -19 -24 -24 -23 -22 -20 -16 -17 -18 -19 -16 -16 -16 -15 -13 -12 -11 -11 -10 -9 -9 -9 -8 -9 -9 -9 -9 -11 -12 -11 -10 -11 -11
-0 -0 -1 -1 -1 -1 -2 -7 -13 -16 -23 -23 -22 -22 -20 -16 -16 -18 -19 -16 -16 -16 -15 -13 -12 -12 -11 -11 -10 -10 -9 -9 -9 -9 -9 -10 -12 -12 -12 -11 -12 -11 -12
-0 0 -0 -1 -1 -2 -7 -9 -15 -22 -23 -22 -22 -20 -15 -16 -17 -17 -16 -17 -16 -14 -13 -12 -11 -11 -11 -11 -11 -10 -10 -10 -10 -9 -10 -12 -12 -12 -12 -12 -13 -12 -12
-0 -0 -1 -2 -2 -7 -10 -13 -22 -22 -22 -22 -19 -15 -16 -16 -17 -17 -17 -16 -15 -13 -11 -10 -10 -10 -11 -10 -10 -10 -10 -10 -9 -10 -12 -13 -13 -12 -13 -13 -12 -12 -12
-0 -1 -1 -3 -7 -9 -14 -21 -22 -22 -22 -19 -16 -16 -17 -17 -18 -17 -16 -14 -12 -11 -10 -11 -10 -10 -10 -10 -10 -10 -10 -10 -10 -12 -12 -13 -12 -12 -12 -12 -12 -12 -12

GFSMW_850_dewp_015.txt.gz
Dewpoint
2 3 3 4 4 7 8 9 9 10 11 11 11 9 7 7 8 7 5 2 0 -0 -3 -5 -5 -4 -4 -3 -4 -4 -4 -6 -2 -3 -2 -6 -1 -2 -1 3 5 2 -0
2 3 3 3 3 4 6 8 9 11 10 8 8 7 6 5 3 0 0 -1 -4 -5 -4 -3 -3 -4 -5 -6 -9 -10 -11 -8 -10 -4 -5 -4 -4 -4 -7 -8 -5 -4 -1
1 2 2 3 3 2 -0 -1 -0 1 3 3 3 2 1 2 1 -1 -4 -5 -4 -3 -3 -5 -7 -8 -10 -12 -17 -15 -16 -9 -8 -6 -5 -5 -5 -4 -4 -5 -4 -3 -4
1 2 2 3 3 -1 -1 -2 -2 -1 -0 2 3 3 1 -1 -4 -5 -4 -3 -2 -4 -5 -6 -7 -10 -14 -20 -25 -21 -21 -11 -7 -9 -8 -7 -5 -4 -4 -7 -7 -7 -8
1 2 3 4 2 -0 -1 -1 -1 -1 -1 -1 -2 -3 -4 -5 -4 -3 -2 -4 -4 -4 -5 -7 -10 -14 -21 -26 -28 -26 -25 -21 -9 -9 -9 -8 -6 -6 -8 -8 -9 -10 -11
2 3 3 4 1 0 -0 -0 -1 -2 -2 -3 -4 -5 -5 -4 -2 -3 -3 -3 -5 -6 -7 -10 -15 -22 -27 -28 -27 -27 -26 -22 -11 -13 -10 -8 -8 -7 -8 -10 -10 -9 -8
2 3 3 4 3 1 -0 -1 -2 -2 -3 -4 -5 -4 -3 -2 -2 -2 -2 -3 -5 -6 -7 -12 -20 -27 -28 -28 -27 -27 -24 -17 -13 -14 -10 -12 -11 -8 -10 -10 -9 -7 -6
2 3 3 4 4 2 1 -1 -1 -2 -4 -4 -4 -3 -2 -2 -1 -1 -2 -4 -5 -7 -10 -16 -22 -28 -28 -28 -25 -22 -16 -14 -15 -14 -12 -13 -10 -11 -10 -9 -7 -6 -6
2 2 3 4 3 2 1 -0 -1 -2 -3 -4 -3 -2 -1 -1 -1 -2 -3 -5 -7 -10 -14 -22 -28 -29 -27 -24 -20 -18 -16 -15 -16 -15 -14 -13 -11 -11 -10 -10 -7 -8 -9
2 3 3 3 2 2 1 0 -1 -2 -3 -3 -2 -1 -1 -2 -2 -3 -5 -7 -11 -15 -24 -29 -29 -28 -24 -19 -18 -18 -17 -16 -15 -14 -13 -12 -12 -11 -10 -10 -9 -10 -10
2 3 3 3 2 1 1 0 -1 -3 -4 -3 -1 -1 -1 -2 -3 -5 -8 -12 -19 -26 -29 -29 -28 -23 -19 -18 -17 -17 -16 -16 -15 -14 -13 -12 -12 -11 -11 -10 -10 -10 -9
2 2 3 3 1 1 0 -0 -1 -3 -3 -1 -1 -1 -2 -3 -5 -8 -12 -19 -27 -29 -29 -27 -21 -18 -18 -17 -16 -16 -16 -16 -14 -13 -12 -11 -11 -11 -10 -10 -10 -9 -9
2 2 3 2 1 0 -1 -1 -3 -4 -2 -1 -1 -1 -3 -5 -7 -11 -18 -26 -28 -29 -25 -19 -18 -17 -17 -16 -15 -16 -16 -14 -12 -11 -11 -10 -10 -10 -10 -10 -9 -9 -8
2 2 3 2 1 -0 -2 -3 -4 -3 -1 -1 -1 -3 -4 -6 -10 -17 -25 -28 -28 -24 -18 -17 -16 -16 -15 -15 -15 -16 -15 -12 -10 -10 -10 -10 -10 -10 -10 -10 -9 -7 -7
2 2 3 2 1 -1 -2 -4 -5 -3 -1 -1 -2 -3 -6 -10 -16 -25 -28 -27 -23 -18 -16 -16 -15 -15 -15 -16 -16 -14 -11 -10 -9 -9 -10 -11 -11 -10 -9 -9 -7 -7 -7
2 2 3 2 1 -1 -3 -5 -4 -2 -1 -1 -2 -5 -8 -15 -25 -28 -27 -23 -19 -17 -15 -14 -14 -15 -15 -15 -13 -10 -9 -9 -9 -9 -10 -11 -11 -11 -10 -9 -8 -7 -8
1 2 3 3 1 -1 -3 -4 -4 -1 -1 -2 -4 -7 -12 -21 -27 -26 -23 -19 -17 -15 -14 -15 -15 -15 -16 -14 -12 -10 -9 -9 -10 -10 -11 -11 -11 -10 -10 -9 -8 -8 -8
1 2 2 3 1 -2 -3 -5 -4 -2 -2 -4 -7 -11 -18 -25 -26 -23 -20 -18 -15 -15 -15 -15 -16 -16 -15 -14 -12 -10 -9 -9 -10 -11 -11 -10 -10 -10 -9 -7 -8 -8 -9
2 2 3 1 -1 -3 -4 -3 -2 -2 -3 -7 -11 -17 -24 -25 -23 -21 -20 -16 -15 -15 -16 -16 -16 -16 -16 -14 -11 -9 -9 -10 -10 -10 -10 -9 -8 -9 -8 -8 -8 -10 -10
1 2 1 -0 -1 -3 -3 -2 -2 -3 -6 -9 -14 -20 -25 -23 -22 -21 -16 -15 -15 -17 -16 -16 -16 -16 -15 -13 -10 -10 -9 -9 -9 -9 -9 -10 -9 -8 -8 -9 -10 -10 -10
-1 0 0 -1 -3 -2 -3 -3 -2 -4 -9 -12 -16 -24 -23 -22 -21 -16 -15 -16 -18 -17 -16 -16 -16 -15 -13 -12 -11 -10 -9 -9 -8 -9 -9 -9 -10 -8 -10 -11 -11 -10 -9
-1 0 -1 -3 -3 -2 -2 -2 -3 -8 -9 -11 -22 -23 -23 -22 -16 -15 -16 -18 -16 -15 -16 -16 -15 -14 -12 -12 -11 -10 -9 -9 -8 -9 -9 -9 -9 -10 -12 -11 -12 -11 -10
-1 -1 -2 -2 -2 -2 -2 -3 -5 -7 -9 -21 -23 -23 -23 -17 -15 -15 -17 -16 -15 -16 -15 -15 -13 -12 -11 -11 -11 -10 -10 -10 -9 -10 -10 -9 -11 -12 -12 -12 -12 -12 -12
-1 -2 -2 -2 -2 -1 -2 -5 -5 -7 -21 -22 -23 -22 -17 -15 -15 -15 -15 -15 -15 -14 -13 -12 -11 -10 -10 -10 -11 -10 -9 -9 -10 -10 -9 -12 -12 -12 -12 -12 -12 -12 -12
-1 -1 -2 -4 -3 -2 -3 -6 -7 -20 -22 -22 -22 -18 -14 -14 -15 -15 -16 -15 -14 -13 -11 -10 -10 -10 -10 -11 -10 -10 -10 -10 -10 -10 -11 -12 -13 -12 -12 -12 -12 -12 -11
-1 -1 -1 -2 -2 -3 -6 -9 -21 -22 -23 -22 -18 -14 -14 -15 -15 -15 -16 -15 -13 -12 -12 -11 -11 -10 -10 -10 -10 -10 -10 -10 -11 -11 -12 -12 -12 -12 -12 -12 -12 -12 -12

GFSMW_850_dewp_018.txt.gz
Dewpoint
2 3 4 5 8 9 9 9 9 10 10 11 11 11 11 9 8 7 4 0 -1 -4 -5 -3 -3 -4 -6 -7 -8 -10 -11 -12 -16 -15 -14 -13 -10 -10 -8 -4 -11 -14 -11
2 3 3 4 7 10 10 10 11 11 11 11 10 8 7 6 3 0 -1 -4 -5 -3 -3 -4 -5 -6 -7 -8 -11 -15 -18 -19 -19 -9 -13 -8 -10 -6 -17 -12 -14 -4 -3
2 3 3 3 5 7 9 10 10 9 9 8 6 5 2 1 -1 -4 -5 -4 -3 -3 -4 -4 -5 -6 -8 -10 -17 -20 -23 -22 -21 -18 -10 -7 -7 -8 -9 -11 -9 -7 -15
2 2 3 3 3 3 2 3 3 3 3 2 2 1 0 -2 -4 -4 -3 -3 -3 -3 -4 -5 -6 -8 -11 -15 -21 -23 -23 -24 -23 -22 -20 -18 -13 -7 -7 -8 -13 -11 -16
1 2 3 3 2 2 1 1 1 2 3 3 2 -1 -4 -5 -4 -3 -3 -3 -3 -3 -3 -5 -7 -9 -12 -18 -22 -24 -25 -25 -22 -18 -16 -19 -13 -13 -12 -9 -9 -10 -12
2 3 4 4 2 2 1 0 -0 -0 -1 -2 -3 -4 -4 -3 -2 -3 -2 -3 -3 -3 -4 -5 -8 -11 -16 -21 -24 -26 -26 -26 -22 -19 -17 -16 -9 -11 -12 -8 -9 -10 -10
2 3 4 4 2 1 0 -1 -2 -3 -3 -4 -4 -4 -3 -2 -2 -1 -1 -2 -3 -3 -4 -6 -10 -15 -21 -25 -26 -27 -26 -23 -20 -17 -17 -15 -14 -15 -11 -10 -10 -9 -9
3 3 4 4 2 1 -0 -1 -2 -3 -4 -4 -4 -3 -2 -2 -1 -1 -2 -2 -3 -4 -6 -9 -16 -23 -26 -27 -27 -25 -21 -19 -18 -18 -17 -16 -16 -13 -12 -11 -9 -9 -9
3 3 4 4 3 1 0 -1 -2 -3 -4 -3 -3 -2 -2 -1 -1 -1 -2 -3 -4 -6 -12 -18 -22 -26 -27 -26 -21 -19 -19 -19 -20 -18 -16 -17 -15 -13 -12 -11 -11 -9 -9
3 3 4 4 3 2 1 -1 -2 -3 -3 -3 -3 -2 -1 -1 -1 -2 -3 -4 -7 -12 -18 -22 -25 -28 -24 -19 -18 -18 -20 -20 -18 -17 -18 -16 -13 -12 -12 -11 -10 -10 -9
3 3 4 4 3 2 1 -0 -1 -2 -3 -3 -2 -1 -1 -1 -2 -3 -4 -7 -12 -18 -23 -26 -28 -22 -19 -18 -18 -20 -20 -18 -16 -18 -18 -14 -13 -11 -10 -10 -9 -9 -9
3 3 3 3 2 1 0 -0 -2 -3 -3 -3 -2 -1 -1 -2 -3 -4 -7 -12 -17 -24 -28 -26 -22 -19 -17 -18 -19 -18 -17 -16 -17 -19 -16 -13 -11 -10 -10 -9 -10 -10 -10
3 3 3 3 2 1 0 -1 -2 -2 -3 -2 -1 -1 -1 -2 -4 -6 -11 -18 -25 -28 -25 -21 -19 -17 -17 -18 -17 -17 -16 -16 -17 -16 -13 -12 -10 -10 -10 -10 -10 -10 -8
2 2 3 2 1 1 -0 -1 -3 -3 -3 -2 -1 -1 -2 -3 -5 -9 -16 -25 -27 -24 -21 -19 -17 -17 -17 -16 -17 -15 -14 -13 -12 -13 -13 -10 -9 -10 -10 -10 -9 -8 -7
2 2 3 2 1 0 -1 -2 -3 -3 -3 -2 -1 -2 -3 -4 -7 -13 -23 -26 -24 -21 -19 -16 -16 -17 -16 -16 -14 -13 -11 -11 -10 -13 -10 -9 -10 -10 -10 -9 -8 -8 -8
3 2 3 2 1 0 -1 -3 -4 -3 -3 -2 -2 -2 -4 -6 -11 -21 -25 -24 -22 -19 -16 -16 -16 -17 -17 -15 -13 -11 -11 -10 -10 -10 -9 -10 -10 -10 -9 -9 -9 -8 -7
2 2 3 2 1 -0 -1 -3 -4 -4 -3 -2 -2 -3 -5 -9 -17 -24 -23 -22 -20 -16 -16 -17 -19 -17 -17 -15 -13 -11 -10 -10 -10 -9 -10 -10 -10 -10 -10 -10 -7 -7 -8
2 2 3 3 1 -0 -2 -3 -4 -4 -3 -2 -3 -6 -8 -14 -23 -24 -23 -21 -16 -15 -17 -19 -18 -17 -17 -15 -13 -11 -10 -10 -9 -10 -10 -9 -9 -10 -9 -8 -8 -8 -10
1 2 2 3 1 -0 -2 -3 -5 -4 -2 -3 -6 -8 -15 -22 -24 -24 -22 -16 -15 -17 -19 -19 -19 -19 -17 -16 -13 -10 -10 -10 -9 -9 -8 -8 -9 -9 -8 -8 -8 -9 -10
2 2 3 2 1 -1 -3 -3 -3 -3 -3 -6 -8 -11 -20 -23 -24 -23 -17 -15 -16 -18 -19 -20 -20 -18 -17 -15 -12 -10 -10 -9 -9 -8 -8 -9 -9 -10 -8 -8 -9 -9 -11
2 2 1 0 -1 -2 -3 -3 -4 -3 -5 -8 -9 -18 -23 -24 -24 -17 -14 -15 -17 -18 -19 -20 -20 -18 -15 -13 -11 -10 -9 -9 -9 -9 -10 -10 -10 -9 -9 -10 -10 -11 -10
-1 -0 -1 -1 -2 -3 -4 -4 -3 -4 -7 -8 -16 -23 -24 -23 -17 -14 -14 -16 -18 -18 -19 -18 -17 -15 -14 -11 -10 -10 -10 -9 -9 -9 -10 -12 -9 -10 -11 -11 -12 -11 -11
-2 -2 -2 -2 -3 -4 -3 -2 -3 -6 -7 -15 -22 -24 -22 -16 -14 -14 -15 -17 -18 -17 -17 -15 -13 -12 -11 -11 -11 -10 -10 -10 -10 -11 -10 -9 -10 -11 -12 -12 -12 -12 -13
-2 -2 -2 -2 -3 -2 -2 -2 -6 -6 -14 -22 -24 -22 -16 -14 -14 -15 -17 -17 -17 -15 -14 -12 -11 -11 -11 -11 -11 -9 -9 -10 -10 -10 -9 -11 -12 -13 -12 -13 -13 -13 -12
-2 -2 -2 -3 -2 -2 -2 -6 -7 -12 -22 -24 -21 -17 -14 -13 -14 -16 -17 -17 -17 -14 -12 -11 -11 -11 -11 -11 -10 -10 -10 -10 -10 -10 -11 -14 -13 -12 -12 -12 -13 -12 -12
-2 -2 -4 -4 -3 -3 -5 -6 -11 -21 -23 -21 -18 -14 -13 -13 -15 -17 -18 -19 -17 -13 -12 -12 -11 -11 -11 -11 -10 -11 -10 -10 -11 -11 -14 -12 -12 -12 -12 -12 -13 -12 -12

GFSMW_850_dewp_024.txt.gz
Dewpoint
1 1 1 1 1 3 3 4 4 4 8 10 12 12 11 11 11 11 11 9 4 -3 -4 -4 -4 -4 -5 -5 -6 -8 -11 -12 -13 -14 -13 -14 -15 -15 -10 -11 -21 -27 -25
2 2 2 1 3 4 5 5 4 3 8 11 12 12 11 11 11 11 7 -2 -4 -4 -3 -3 -3 -3 -3 -5 -8 -10 -13 -16 -19 -20 -16 -16 -17 -12 -16 -21 -24 -22 -21
2 2 2 3 5 6 8 8 8 10 11 12 12 12 11 11 9 3 -3 -4 -3 -3 -3 -2 -2 -2 -4 -7 -10 -14 -16 -19 -21 -21 -16 -17 -13 -17 -18 -24 -21 -20 -26
2 3 4 6 7 8 9 10 10 11 12 12 12 11 11 8 1 -4 -4 -3 -3 -2 -2 -2 -2 -4 -8 -11 -15 -19 -21 -23 -23 -23 -19 -17 -16 -15 -15 -19 -25 -23 -26
2 3 4 6 9 9 10 10 10 10 11 10 9 8 5 -1 -4 -4 -3 -2 -2 -2 -2 -2 -5 -9 -11 -16 -20 -22 -23 -23 -21 -20 -19 -20 -21 -20 -12 -12 -15 -23 -27
3 4 6 8 10 10 10 10 11 11 10 7 4 -0 -2 -4 -4 -3 -2 -2 -2 -2 -2 -4 -8 -12 -16 -19 -21 -24 -22 -20 -19 -19 -20 -20 -19 -16 -15 -16 -17 -13 -14
3 5 6 7 8 10 10 10 10 8 4 1 0 -2 -4 -3 -3 -2 -2 -2 -2 -2 -3 -7 -11 -14 -18 -23 -24 -21 -19 -18 -19 -20 -21 -21 -19 -17 -18 -20 -20 -14 -13
3 4 4 5 6 6 7 6 4 2 2 2 -1 -4 -3 -3 -2 -2 -2 -2 -2 -3 -6 -10 -15 -19 -24 -23 -21 -19 -18 -19 -20 -22 -22 -21 -20 -20 -19 -19 -16 -12 -11
4 4 4 4 4 4 4 3 3 2 2 -0 -3 -3 -3 -2 -2 -2 -2 -2 -2 -4 -8 -13 -19 -24 -23 -21 -19 -18 -19 -21 -22 -23 -21 -20 -20 -19 -21 -22 -17 -9 -8
5 4 4 3 3 3 2 2 1 -0 -1 -3 -4 -3 -3 -2 -2 -2 -2 -2 -4 -7 -12 -18 -23 -23 -21 -18 -18 -20 -21 -22 -22 -21 -19 -18 -17 -19 -21 -17 -13 -10 -9
4 4 4 3 2 1 0 -1 -2 -3 -4 -4 -3 -3 -2 -2 -2 -2 -2 -3 -6 -11 -17 -22 -23 -22 -18 -18 -20 -21 -21 -21 -20 -18 -16 -15 -15 -17 -17 -15 -12 -10 -9
4 4 4 3 1 0 -1 -2 -3 -4 -4 -4 -3 -2 -2 -2 -2 -2 -2 -5 -9 -15 -22 -23 -21 -17 -17 -20 -21 -21 -21 -19 -17 -15 -13 -13 -13 -14 -15 -13 -10 -9 -9
4 4 4 2 1 0 -1 -2 -3 -4 -4 -4 -3 -2 -2 -2 -2 -2 -4 -7 -13 -21 -23 -22 -17 -17 -19 -21 -21 -21 -19 -18 -15 -13 -12 -12 -12 -12 -13 -10 -9 -9 -8
4 4 4 3 2 1 -0 -1 -3 -4 -4 -4 -3 -3 -2 -2 -2 -3 -5 -11 -19 -23 -22 -17 -16 -18 -20 -21 -22 -21 -19 -17 -13 -11 -11 -11 -11 -11 -9 -9 -9 -8 -9
4 4 4 3 2 1 1 -1 -2 -4 -4 -4 -4 -3 -2 -2 -3 -5 -9 -17 -22 -23 -17 -15 -17 -20 -20 -22 -23 -19 -13 -12 -11 -11 -11 -10 -10 -9 -9 -9 -8 -9 -8
4 4 4 3 3 2 1 -1 -2 -4 -4 -4 -4 -3 -2 -3 -5 -8 -14 -22 -24 -18 -15 -16 -19 -20 -21 -23 -22 -12 -11 -11 -11 -10 -10 -10 -11 -10 -9 -9 -9 -9 -8
3 3 3 3 3 2 1 -0 -2 -3 -4 -4 -4 -3 -3 -5 -7 -12 -20 -24 -18 -14 -15 -18 -19 -20 -22 -23 -21 -11 -10 -10 -10 -10 -11 -11 -10 -10 -11 -10 -9 -9 -9
3 3 3 3 3 2 1 -1 -2 -4 -4 -4 -3 -3 -5 -7 -9 -19 -24 -18 -14 -15 -17 -18 -19 -20 -22 -21 -20 -15 -11 -11 -12 -12 -12 -10 -10 -11 -10 -9 -9 -9 -11
3 3 3 3 2 2 0 -1 -3 -4 -5 -4 -4 -5 -6 -8 -18 -24 -18 -13 -14 -15 -17 -18 -19 -21 -21 -19 -18 -9 -10 -11 -11 -12 -9 -9 -10 -10 -9 -8 -9 -10 -12
3 3 3 3 2 1 -1 -2 -4 -5 -5 -4 -4 -6 -8 -16 -24 -18 -13 -13 -14 -16 -18 -19 -21 -21 -19 -18 -14 -9 -10 -10 -11 -9 -9 -10 -10 -10 -9 -10 -10 -11 -13
3 3 3 2 1 -0 -2 -3 -4 -5 -4 -4 -7 -7 -16 -24 -18 -13 -13 -13 -15 -17 -18 -21 -23 -22 -19 -16 -12 -10 -9 -9 -8 -9 -10 -11 -10 -9 -11 -11 -11 -11 -10
3 2 2 1 -1 -2 -3 -3 -4 -4 -4 -6 -7 -16 -23 -19 -13 -13 -13 -14 -16 -17 -21 -23 -23 -21 -18 -14 -13 -10 -10 -9 -10 -9 -11 -10 -10 -11 -11 -11 -11 -10 -11
2 1 1 -1 -3 -3 -3 -3 -4 -4 -5 -6 -16 -23 -20 -14 -13 -13 -13 -15 -17 -21 -23 -20 -17 -15 -15 -13 -12 -10 -10 -10 -10 -11 -10 -10 -11 -13 -15 -12 -11 -11 -13
1 1 -0 -2 -3 -5 -5 -3 -3 -5 -6 -15 -23 -21 -16 -14 -13 -12 -14 -16 -20 -23 -20 -16 -14 -13 -12 -12 -10 -10 -11 -10 -10 -10 -11 -13 -14 -15 -13 -13 -13 -13 -12
-2 -2 -3 -3 -4 -5 -3 -3 -5 -7 -16 -22 -21 -17 -15 -13 -12 -13 -15 -18 -22 -20 -14 -14 -12 -11 -11 -11 -10 -10 -10 -10 -10 -11 -13 -15 -15 -15 -14 -13 -13 -13 -12
-4 -4 -4 -3 -3 -3 -3 -5 -7 -16 -22 -21 -18 -17 -15 -12 -12 -15 -17 -22 -22 -22 -21 -20 -13 -12 -11 -11 -11 -10 -10 -11 -11 -12 -14 -14 -14 -14 -13 -13 -13 -13 -12

GFSMW_850_dewp_027.txt.gz
Dewpoint
3 2 1 2 2 1 2 5 8 10 10 11 12 12 10 11 12 12 11 10 10 8 -2 -4 -4 -4 -3 -3 -4 -6 -8 -11 -12 -13 -13 -15 -15 -18 -15 -10 -14 -23 -26
4 2 1 2 2 1 2 3 5 8 9 10 11 11 11 11 10 11 11 10 2 -4 -4 -3 -3 -2 -2 -4 -7 -9 -12 -15 -17 -18 -18 -19 -19 -15 -15 -22 -23 -25 -24
2 2 1 1 2 2 2 3 4 5 6 10 11 12 10 10 10 10 10 2 -4 -3 -3 -2 -2 -2 -5 -9 -11 -13 -16 -18 -21 -22 -16 -19 -17 -19 -20 -23 -23 -22 -26
3 2 1 2 2 3 4 5 6 5 7 11 11 11 10 10 10 9 3 -4 -3 -3 -2 -1 -2 -5 -9 -11 -13 -15 -18 -21 -22 -21 -19 -19 -18 -18 -18 -20 -23 -23 -26
3 3 1 2 3 5 6 8 8 8 10 11 12 12 11 11 9 2 -4 -3 -2 -2 -2 -2 -4 -7 -10 -13 -15 -18 -22 -22 -20 -19 -19 -20 -21 -20 -14 -14 -19 -25 -27
3 2 2 5 6 7 8 10 11 11 12 12 11 11 11 9 3 -3 -3 -3 -2 -2 -2 -3 -5 -8 -12 -15 -19 -23 -22 -20 -19 -19 -20 -21 -19 -17 -16 -15 -16 -16 -20
2 2 3 7 7 8 9 10 11 11 11 11 9 8 6 1 -3 -3 -3 -2 -2 -2 -2 -4 -7 -11 -16 -21 -23 -21 -20 -18 -19 -20 -22 -22 -20 -18 -18 -17 -18 -15 -19
2 3 3 6 8 8 10 10 11 11 10 8 5 1 -2 -4 -3 -3 -2 -2 -2 -2 -3 -6 -10 -17 -21 -22 -21 -19 -18 -19 -21 -22 -22 -20 -19 -18 -17 -16 -16 -13 -12
3 4 5 7 8 9 10 10 10 10 8 3 0 -2 -4 -3 -3 -2 -2 -2 -2 -2 -5 -10 -16 -22 -22 -21 -19 -18 -20 -22 -22 -22 -21 -19 -17 -16 -16 -17 -17 -12 -9
4 5 6 7 8 9 9 9 8 7 2 2 -0 -3 -3 -3 -2 -2 -2 -2 -2 -4 -9 -14 -20 -22 -21 -19 -18 -19 -22 -22 -22 -22 -20 -17 -15 -15 -15 -15 -16 -14 -11
5 5 6 6 6 7 7 6 4 3 3 1 -3 -3 -3 -3 -2 -2 -2 -2 -4 -7 -12 -19 -21 -22 -19 -17 -19 -21 -22 -23 -23 -21 -16 -15 -14 -13 -13 -13 -14 -12 -10
5 4 5 5 4 4 4 3 2 2 0 -2 -3 -3 -3 -2 -2 -2 -2 -3 -6 -11 -17 -20 -22 -19 -17 -18 -20 -21 -23 -23 -21 -17 -14 -13 -13 -12 -11 -12 -10 -10 -10
4 4 4 4 3 3 2 1 0 -1 -3 -4 -4 -3 -3 -2 -2 -2 -3 -5 -9 -15 -20 -22 -20 -16 -17 -20 -21 -22 -23 -21 -17 -14 -13 -12 -11 -11 -10 -10 -9 -9 -8
4 4 3 3 2 1 -0 -1 -3 -4 -4 -4 -4 -3 -3 -2 -2 -3 -5 -7 -13 -19 -22 -20 -16 -16 -19 -20 -21 -22 -20 -17 -14 -13 -12 -11 -11 -10 -9 -9 -9 -8 -9
4 4 3 2 1 0 -1 -3 -4 -5 -5 -5 -4 -3 -3 -3 -3 -4 -6 -10 -16 -22 -20 -15 -15 -18 -19 -20 -22 -20 -17 -14 -13 -12 -12 -12 -12 -11 -9 -9 -9 -10 -9
4 4 3 2 1 0 -1 -2 -3 -4 -5 -5 -4 -4 -3 -3 -4 -6 -9 -14 -21 -20 -14 -15 -17 -18 -19 -21 -23 -21 -15 -14 -13 -14 -15 -14 -13 -11 -10 -10 -9 -9 -9
4 4 4 3 2 0 -0 -1 -3 -4 -5 -5 -5 -4 -3 -4 -6 -8 -11 -20 -21 -14 -14 -15 -17 -18 -20 -22 -23 -19 -11 -14 -14 -14 -13 -12 -11 -11 -11 -11 -9 -8 -9
3 3 3 3 2 1 0 -1 -2 -4 -4 -5 -5 -4 -4 -6 -7 -9 -19 -22 -14 -13 -14 -16 -17 -19 -22 -23 -22 -17 -14 -14 -13 -12 -11 -9 -10 -10 -10 -9 -8 -11 -12
3 3 3 3 3 2 1 -1 -3 -4 -5 -5 -5 -4 -5 -6 -9 -19 -22 -14 -13 -13 -14 -16 -18 -21 -23 -22 -22 -16 -14 -12 -11 -11 -9 -10 -10 -10 -9 -9 -10 -10 -13
3 3 3 3 3 2 1 -1 -3 -4 -5 -6 -5 -5 -6 -9 -17 -22 -14 -13 -13 -13 -15 -17 -21 -23 -23 -22 -22 -13 -10 -10 -10 -9 -10 -9 -10 -9 -9 -10 -10 -11 -13
3 3 3 3 2 1 -0 -2 -4 -5 -6 -5 -5 -7 -9 -15 -22 -15 -13 -12 -12 -14 -16 -20 -24 -24 -23 -22 -20 -10 -10 -10 -8 -10 -10 -12 -10 -9 -10 -10 -11 -11 -10
3 3 3 2 2 0 -1 -3 -4 -5 -5 -5 -7 -8 -16 -22 -16 -13 -13 -12 -13 -15 -20 -24 -25 -25 -24 -21 -17 -10 -10 -9 -10 -10 -11 -11 -10 -11 -11 -12 -11 -10 -11
2 2 2 1 -1 -3 -3 -3 -4 -5 -5 -7 -8 -17 -23 -17 -14 -13 -12 -12 -14 -19 -24 -23 -23 -22 -21 -18 -14 -10 -10 -10 -10 -10 -10 -10 -11 -14 -16 -14 -11 -12 -13
2 1 0 -2 -4 -4 -4 -4 -4 -5 -7 -8 -17 -23 -18 -15 -14 -13 -12 -14 -18 -22 -24 -23 -21 -20 -17 -15 -11 -10 -11 -10 -10 -10 -11 -13 -15 -16 -15 -13 -13 -13 -12
-0 -0 -1 -2 -3 -5 -5 -5 -5 -6 -8 -17 -22 -19 -17 -16 -14 -12 -14 -16 -21 -22 -21 -20 -17 -15 -13 -11 -10 -10 -10 -10 -11 -11 -13 -15 -15 -16 -14 -13 -12 -12 -12
-1 -2 -3 -3 -5 -5 -4 -5 -6 -9 -18 -22 -20 -18 -17 -15 -12 -13 -15 -21 -23 -24 -23 -22 -19 -16 -14 -11 -10 -10 -10 -10 -11 -12 -15 -15 -15 -14 -13 -12 -12 -12 -12

GFSMW_850_dewp_030.txt.gz
Dewpoint
3 4 3 3 2 2 1 1 2 3 7 11 12 13 13 12 12 12 12 11 10 10 9 -2 -4 -4 -3 -3 -5 -10 -11 -11 -12 -13 -14 -17 -17 -18 -18 -16 -12 -16 -23
2 3 3 3 2 2 1 1 1 5 9 11 12 12 13 12 12 12 11 11 10 8 -3 -4 -3 -2 -2 -5 -8 -11 -12 -13 -14 -18 -19 -21 -21 -17 -15 -22 -22 -22 -23
3 2 2 3 2 2 1 1 1 6 10 12 12 13 12 11 11 11 11 9 6 -2 -4 -3 -2 -1 -3 -5 -8 -12 -13 -15 -20 -22 -20 -20 -19 -20 -20 -22 -22 -24 -25
2 3 3 2 2 2 2 2 2 5 8 11 12 12 12 10 10 9 8 7 -1 -4 -3 -2 -1 -2 -3 -6 -11 -13 -16 -21 -22 -21 -20 -19 -19 -19 -19 -21 -24 -24 -25
-2 0 2 2 2 2 2 3 4 6 6 9 12 12 11 10 8 8 8 1 -4 -3 -2 -2 -2 -3 -5 -8 -13 -17 -21 -21 -20 -19 -19 -21 -22 -22 -16 -16 -22 -25 -25
2 2 2 3 2 3 4 5 5 6 6 9 11 11 11 9 8 8 3 -3 -3 -2 -2 -2 -2 -4 -7 -12 -17 -20 -21 -20 -19 -19 -21 -22 -21 -20 -17 -16 -16 -15 -19
1 3 3 2 3 4 5 7 8 8 8 11 10 10 10 10 10 7 -2 -3 -2 -2 -2 -2 -3 -6 -10 -16 -19 -21 -20 -19 -20 -21 -23 -22 -20 -19 -18 -16 -16 -15 -19
2 2 2 2 3 4 6 8 10 10 11 10 10 10 10 9 4 -3 -4 -3 -2 -2 -2 -3 -5 -9 -14 -19 -20 -20 -19 -19 -21 -22 -22 -22 -20 -18 -16 -14 -14 -14 -14
-4 1 2 3 4 5 7 8 10 11 11 11 10 8 5 0 -4 -4 -3 -2 -2 -2 -3 -5 -8 -13 -17 -20 -20 -18 -18 -21 -22 -22 -22 -22 -19 -17 -15 -14 -13 -12 -11
0 1 3 4 6 7 8 10 11 11 10 9 6 2 -2 -4 -4 -3 -2 -2 -2 -3 -4 -7 -10 -15 -19 -20 -18 -18 -20 -21 -22 -23 -22 -21 -18 -16 -14 -13 -12 -11 -11
-1 2 4 5 7 9 9 10 10 10 9 5 1 -2 -4 -4 -3 -3 -2 -2 -2 -4 -6 -9 -14 -18 -20 -18 -17 -19 -20 -21 -22 -22 -21 -20 -17 -15 -14 -12 -10 -11 -10
3 4 5 7 8 9 9 10 9 9 5 1 -1 -3 -4 -4 -3 -3 -2 -2 -3 -5 -7 -12 -17 -20 -18 -16 -18 -19 -20 -22 -22 -22 -19 -18 -16 -14 -12 -11 -11 -10 -10
5 4 5 7 8 8 8 8 6 5 2 0 -3 -4 -4 -3 -3 -2 -2 -3 -4 -6 -10 -15 -20 -18 -15 -16 -18 -20 -21 -22 -21 -19 -17 -16 -14 -13 -13 -11 -10 -9 -9
4 3 4 6 7 7 6 5 3 2 1 -3 -4 -4 -4 -3 -3 -2 -3 -4 -5 -9 -14 -20 -18 -15 -15 -17 -18 -20 -21 -22 -21 -20 -19 -17 -15 -15 -10 -9 -9 -8 -10
3 3 4 4 4 4 3 2 1 -1 -3 -4 -4 -4 -3 -3 -3 -3 -4 -5 -8 -13 -19 -18 -14 -14 -16 -17 -19 -21 -22 -21 -20 -19 -17 -14 -14 -12 -9 -9 -9 -9 -10
3 3 3 3 3 2 1 -0 -2 -4 -5 -5 -4 -4 -3 -3 -3 -4 -5 -8 -12 -19 -18 -14 -13 -14 -16 -18 -21 -24 -20 -19 -17 -16 -14 -13 -11 -11 -10 -10 -9 -9 -8
3 3 3 3 2 1 -0 -2 -4 -5 -5 -5 -5 -4 -4 -4 -4 -6 -8 -11 -18 -18 -13 -13 -13 -15 -17 -20 -24 -25 -23 -17 -15 -13 -12 -11 -11 -12 -12 -11 -9 -8 -9
4 3 3 2 1 -0 -2 -3 -4 -5 -5 -6 -5 -5 -4 -5 -6 -7 -10 -17 -19 -14 -13 -13 -14 -15 -19 -24 -25 -25 -21 -15 -12 -12 -11 -10 -11 -11 -10 -9 -8 -10 -12
4 4 3 2 1 0 -1 -2 -4 -5 -6 -6 -6 -5 -5 -6 -8 -10 -16 -19 -14 -13 -12 -13 -14 -18 -23 -25 -26 -24 -14 -11 -11 -11 -10 -10 -10 -10 -9 -9 -9 -11 -13
4 3 3 3 2 0 -1 -2 -3 -5 -6 -6 -6 -6 -6 -8 -10 -15 -19 -14 -13 -12 -12 -13 -18 -23 -25 -25 -24 -15 -10 -10 -11 -9 -10 -11 -10 -10 -9 -10 -10 -11 -13
3 3 3 3 2 1 -0 -2 -4 -5 -6 -6 -6 -7 -9 -10 -14 -20 -15 -13 -13 -12 -13 -16 -22 -25 -25 -25 -22 -15 -9 -10 -9 -10 -11 -11 -10 -9 -10 -10 -11 -12 -10
3 3 3 3 2 1 -1 -3 -4 -6 -7 -7 -7 -8 -9 -14 -20 -15 -14 -13 -12 -13 -15 -21 -26 -26 -25 -23 -19 -13 -9 -9 -10 -10 -10 -11 -10 -10 -11 -12 -11 -10 -11
3 2 3 2 1 -1 -2 -3 -5 -7 -7 -7 -8 -8 -16 -21 -16 -15 -14 -13 -13 -15 -21 -25 -25 -25 -24 -21 -19 -14 -10 -10 -10 -10 -10 -10 -11 -15 -16 -15 -12 -12 -12
2 2 2 0 -2 -4 -4 -4 -6 -7 -7 -7 -8 -17 -21 -17 -16 -15 -13 -12 -14 -21 -24 -24 -22 -21 -20 -19 -14 -11 -11 -10 -10 -10 -11 -14 -15 -16 -16 -13 -13 -12 -12
1 0 -0 -2 -5 -6 -6 -6 -6 -6 -6 -9 -18 -21 -18 -17 -16 -14 -12 -14 -20 -23 -22 -21 -19 -17 -16 -14 -10 -10 -10 -10 -11 -11 -14 -15 -15 -16 -14 -13 -12 -12 -12
-1 -2 -4 -4 -6 -6 -5 -6 -6 -7 -12 -20 -21 -19 -18 -17 -14 -12 -14 -21 -24 -24 -24 -22 -21 -20 -18 -12 -11 -10 -10 -10 -11 -13 -15 -15 -15 -15 -12 -12 -12 -12 -11

GFSMW_850_dewp_033.txt.gz
Dewpoint
1 3 4 4 4 3 3 2 1 1 1 2 8 12 12 13 12 12 11 12 11 10 10 9 0 -4 -4 -2 -4 -6 -10 -12 -13 -15 -17 -20 -19 -21 -18 -16 -14 -20 -22
-0 0 2 3 4 4 2 2 2 3 3 4 7 11 12 12 12 12 12 12 11 10 9 3 -4 -3 -2 -3 -4 -6 -10 -12 -16 -18 -19 -21 -20 -15 -18 -21 -21 -22 -23
-1 -2 -0 1 2 3 3 2 2 3 3 5 8 12 13 12 12 11 11 11 10 8 2 -4 -3 -2 -2 -3 -4 -7 -11 -15 -18 -20 -20 -19 -17 -20 -21 -21 -22 -23 -24
-2 -6 -3 1 2 2 3 2 2 2 4 7 10 12 12 12 12 11 11 11 9 2 -4 -3 -2 -2 -2 -3 -5 -9 -13 -17 -19 -20 -20 -20 -21 -20 -17 -21 -21 -23 -23
-3 -5 -5 -0 1 2 2 2 2 3 5 9 11 12 12 12 11 10 10 7 5 -1 -3 -3 -2 -2 -3 -4 -7 -11 -16 -18 -19 -20 -20 -21 -23 -23 -19 -16 -20 -21 -21
-4 -2 -2 -2 1 2 2 3 3 4 6 10 12 12 12 11 10 9 8 5 3 -3 -3 -2 -2 -2 -3 -6 -9 -14 -17 -19 -19 -20 -21 -22 -22 -21 -18 -14 -14 -13 -18
-3 -2 1 2 1 3 2 3 4 5 6 9 11 12 12 11 9 7 7 4 -2 -3 -2 -2 -2 -3 -5 -8 -12 -16 -18 -19 -19 -20 -22 -22 -22 -21 -20 -17 -13 -12 -13
-5 -1 1 1 3 3 3 3 4 6 7 8 10 11 11 9 8 7 3 -1 -3 -2 -2 -2 -2 -4 -6 -10 -15 -18 -18 -18 -19 -21 -22 -22 -22 -21 -18 -16 -13 -12 -13
-4 -2 -4 2 3 3 3 3 5 7 7 8 10 10 9 9 7 2 -3 -3 -3 -2 -2 -2 -4 -5 -8 -13 -17 -18 -17 -18 -20 -21 -22 -22 -21 -19 -18 -16 -14 -11 -11
-3 -3 -3 1 3 3 5 6 8 8 9 10 9 9 9 4 2 -3 -4 -3 -2 -2 -2 -3 -4 -7 -12 -16 -18 -17 -17 -19 -20 -21 -21 -21 -20 -19 -18 -16 -14 -12 -10
-0 -2 -2 0 2 4 7 9 10 10 10 9 9 8 4 -1 -4 -4 -3 -2 -2 -2 -3 -4 -7 -11 -16 -18 -16 -16 -18 -19 -20 -21 -21 -21 -19 -19 -18 -16 -15 -13 -11
2 1 2 3 4 7 9 10 10 10 9 8 7 3 -1 -4 -4 -3 -3 -2 -2 -3 -4 -6 -10 -15 -18 -16 -15 -16 -18 -19 -20 -22 -22 -22 -20 -20 -20 -18 -16 -14 -11
4 4 5 5 6 8 9 10 10 9 8 4 1 -3 -4 -4 -4 -3 -2 -2 -3 -4 -6 -9 -14 -18 -15 -14 -15 -16 -18 -19 -22 -22 -21 -20 -20 -18 -17 -15 -12 -10 -9
4 4 4 5 7 8 9 9 8 7 4 -1 -3 -4 -5 -4 -3 -3 -3 -4 -5 -6 -8 -13 -17 -15 -14 -14 -15 -16 -19 -22 -23 -23 -20 -19 -16 -15 -13 -9 -9 -8 -9
3 3 3 5 6 8 8 7 6 3 -0 -3 -4 -5 -4 -4 -3 -3 -4 -5 -6 -8 -13 -16 -15 -13 -13 -14 -15 -18 -22 -24 -24 -23 -20 -17 -15 -13 -9 -9 -9 -9 -9
3 2 3 5 6 7 6 5 2 -0 -2 -4 -5 -4 -4 -3 -4 -4 -5 -6 -8 -12 -16 -15 -13 -13 -13 -14 -17 -23 -24 -24 -21 -19 -18 -16 -13 -11 -9 -9 -9 -9 -9
3 2 3 4 5 5 5 3 0 -2 -4 -5 -5 -4 -4 -4 -4 -5 -6 -9 -11 -15 -15 -13 -13 -13 -14 -16 -22 -26 -25 -23 -21 -19 -15 -12 -11 -11 -11 -11 -9 -9 -8
3 3 3 3 3 2 1 -0 -2 -4 -5 -5 -5 -5 -4 -5 -5 -7 -9 -11 -15 -15 -13 -13 -12 -13 -16 -21 -25 -26 -25 -23 -18 -15 -13 -11 -11 -10 -9 -9 -9 -9 -10
4 3 3 2 1 0 -1 -2 -5 -6 -6 -6 -5 -5 -5 -6 -7 -8 -10 -15 -16 -13 -13 -12 -13 -15 -20 -25 -26 -26 -23 -18 -14 -12 -11 -10 -9 -9 -9 -9 -9 -10 -10
4 3 2 2 0 -2 -3 -5 -6 -7 -6 -6 -6 -6 -7 -8 -8 -9 -14 -16 -14 -13 -13 -13 -15 -21 -25 -26 -27 -24 -15 -11 -10 -9 -9 -10 -9 -9 -9 -9 -10 -10 -12
4 3 2 1 -1 -2 -4 -5 -6 -7 -7 -7 -6 -7 -8 -8 -9 -14 -17 -14 -14 -13 -13 -14 -19 -25 -26 -26 -25 -22 -10 -9 -9 -9 -10 -10 -10 -9 -10 -10 -10 -11 -10
3 3 2 0 -1 -3 -4 -5 -6 -7 -7 -7 -7 -7 -8 -9 -14 -18 -15 -15 -14 -13 -14 -19 -25 -27 -27 -26 -23 -19 -10 -9 -10 -10 -10 -10 -10 -10 -11 -12 -13 -10 -11
3 2 2 0 -2 -4 -4 -5 -6 -7 -7 -7 -7 -7 -8 -16 -18 -16 -16 -14 -13 -14 -21 -25 -26 -27 -27 -25 -22 -15 -10 -10 -10 -10 -10 -10 -11 -15 -16 -16 -12 -12 -12
2 1 1 -1 -3 -5 -5 -4 -6 -7 -7 -6 -7 -10 -18 -18 -17 -17 -15 -13 -15 -21 -25 -26 -25 -25 -24 -22 -16 -11 -11 -11 -10 -10 -10 -14 -16 -16 -17 -13 -13 -12 -12
1 0 0 -2 -4 -6 -6 -7 -7 -6 -6 -7 -11 -19 -19 -18 -17 -15 -13 -15 -22 -25 -25 -24 -23 -21 -19 -15 -10 -10 -10 -10 -10 -10 -13 -16 -16 -16 -15 -13 -12 -12 -11
-1 -1 -3 -4 -7 -7 -6 -7 -7 -7 -7 -14 -20 -19 -18 -17 -14 -12 -16 -23 -25 -25 -25 -24 -23 -21 -20 -15 -11 -10 -10 -10 -11 -12 -15 -16 -15 -15 -13 -12 -11 -11 -11

GFSMW_850_dewp_036.txt.gz
Dewpoint
0 1 2 3 3 3 1 3 2 2 2 3 11 12 13 12 12 12 13 12 11 11 10 10 9 3 -4 -4 -2 -2 -3 -6 -10 -14 -14 -18 -20 -20 -16 -15 -15 -20 -21
-3 -2 1 2 4 4 4 4 3 2 2 5 7 10 12 11 11 12 13 12 11 11 10 9 6 -4 -4 -2 -2 -2 -4 -6 -10 -16 -14 -12 -12 -12 -15 -17 -20 -17 -22
-5 -5 -4 1 2 4 4 4 3 2 2 4 9 8 10 12 12 13 12 12 11 11 10 6 -4 -3 -3 -2 -2 -2 -5 -8 -11 -17 -17 -14 -12 -14 -15 -17 -18 -20 -20
-4 -4 -4 -3 0 3 3 3 3 2 3 4 5 6 9 12 12 12 12 11 10 10 2 -2 -4 -3 -2 -1 -2 -3 -6 -10 -16 -17 -19 -20 -20 -15 -15 -14 -13 -14 -15
-5 -4 -3 -3 -1 2 0 2 3 3 3 4 5 9 12 12 12 11 11 10 10 6 -2 -3 -3 -2 -2 -2 -3 -4 -8 -12 -16 -18 -19 -19 -18 -15 -13 -14 -15 -14 -13
-5 -4 -3 -2 -1 2 1 2 2 3 3 4 7 11 12 12 12 11 10 10 8 3 -3 -3 -3 -2 -2 -2 -4 -6 -10 -15 -18 -19 -19 -20 -17 -16 -15 -15 -14 -13 -13
-6 -4 -1 0 2 3 1 2 3 3 4 5 9 11 12 12 12 10 10 10 6 1 -2 -3 -2 -2 -2 -3 -5 -9 -14 -17 -18 -18 -20 -20 -20 -17 -15 -13 -13 -13 -13
-4 -4 -1 2 3 2 -1 3 4 4 5 7 10 11 12 12 11 10 10 8 2 -0 -3 -3 -2 -2 -3 -5 -8 -13 -16 -17 -17 -18 -19 -20 -20 -18 -15 -12 -11 -12 -13
-4 -2 -3 1 4 5 1 2 4 5 6 7 9 11 11 11 10 9 7 3 -1 -3 -3 -3 -3 -3 -5 -7 -12 -16 -17 -17 -17 -18 -19 -20 -19 -17 -15 -12 -11 -11 -12
-2 -1 -1 0 3 6 5 6 6 6 7 8 9 10 10 10 8 6 2 -1 -3 -3 -3 -3 -4 -5 -7 -11 -15 -16 -16 -16 -17 -18 -19 -19 -18 -18 -14 -11 -11 -10 -11
0 2 1 2 5 7 7 6 7 7 7 8 9 10 9 6 6 2 -3 -4 -3 -3 -3 -4 -5 -7 -11 -14 -16 -15 -15 -15 -17 -18 -19 -21 -20 -17 -13 -11 -11 -11 -11
3 4 3 5 6 7 6 6 7 7 7 8 9 8 7 6 4 -4 -5 -4 -3 -3 -4 -5 -7 -10 -13 -15 -14 -14 -14 -15 -17 -19 -20 -20 -16 -19 -14 -12 -11 -11 -10
4 4 4 4 5 5 5 6 7 7 8 9 8 8 6 -0 -5 -5 -4 -3 -3 -4 -5 -7 -9 -12 -15 -14 -14 -14 -14 -16 -18 -20 -22 -21 -19 -15 -11 -11 -10 -9 -9
4 3 3 4 4 4 3 6 8 8 8 8 7 5 -1 -5 -5 -4 -4 -4 -4 -5 -6 -8 -12 -14 -14 -13 -13 -14 -15 -18 -19 -21 -21 -18 -14 -11 -10 -9 -9 -9 -9
3 3 3 3 2 1 4 8 8 7 7 6 2 -3 -5 -5 -4 -4 -4 -5 -5 -6 -8 -11 -14 -14 -13 -13 -14 -16 -17 -16 -17 -19 -16 -12 -12 -15 -11 -8 -9 -9 -9
3 2 1 1 -1 3 6 7 7 6 3 -1 -3 -5 -5 -4 -4 -4 -5 -6 -7 -8 -11 -14 -14 -13 -13 -13 -15 -18 -22 -19 -16 -12 -12 -11 -10 -10 -9 -9 -9 -9 -8
3 1 0 -1 -1 4 7 6 5 1 -2 -3 -5 -5 -5 -4 -5 -6 -6 -7 -9 -11 -14 -14 -13 -13 -13 -14 -17 -23 -26 -15 -14 -12 -11 -11 -10 -9 -9 -9 -9 -8 -8
2 1 -1 -1 2 4 4 4 0 -2 -3 -6 -6 -5 -5 -5 -6 -7 -8 -9 -11 -14 -14 -13 -13 -13 -13 -16 -23 -26 -24 -13 -11 -10 -10 -10 -9 -10 -9 -9 -9 -9 -9
1 -0 2 2 1 1 1 -1 -4 -6 -6 -6 -5 -5 -5 -5 -7 -8 -9 -11 -14 -15 -14 -13 -13 -13 -17 -22 -26 -27 -18 -11 -11 -10 -10 -9 -10 -9 -9 -9 -9 -10 -11
-0 0 1 1 1 -1 -2 -3 -5 -6 -6 -6 -6 -6 -6 -7 -8 -9 -11 -14 -15 -14 -14 -13 -13 -17 -23 -26 -27 -26 -16 -11 -10 -10 -10 -10 -9 -9 -9 -9 -10 -10 -11
3 1 1 1 0 -2 -3 -5 -7 -7 -6 -6 -6 -7 -7 -8 -9 -11 -15 -15 -15 -15 -13 -13 -17 -24 -26 -26 -26 -25 -14 -10 -10 -10 -11 -10 -10 -9 -9 -10 -10 -11 -10
2 1 1 -1 -3 -4 -6 -7 -7 -7 -7 -7 -7 -7 -8 -10 -12 -16 -16 -16 -15 -13 -13 -17 -25 -24 -24 -23 -24 -23 -16 -9 -10 -10 -10 -10 -9 -10 -10 -11 -12 -11 -10
1 1 -0 -3 -6 -7 -6 -6 -7 -7 -7 -7 -7 -9 -10 -13 -17 -17 -16 -15 -13 -14 -20 -25 -24 -22 -22 -18 -18 -16 -10 -10 -10 -9 -10 -9 -10 -11 -16 -14 -13 -12 -11
-0 -1 -2 -4 -6 -7 -7 -6 -7 -7 -7 -8 -8 -9 -14 -18 -17 -17 -15 -13 -15 -23 -24 -18 -15 -15 -15 -13 -12 -11 -10 -10 -10 -10 -10 -10 -12 -13 -13 -13 -12 -11 -11
-1 -2 -3 -4 -6 -7 -7 -7 -7 -8 -8 -8 -9 -16 -18 -18 -17 -15 -13 -16 -24 -25 -24 -23 -22 -17 -13 -12 -11 -10 -10 -10 -10 -10 -11 -12 -13 -12 -12 -12 -11 -11 -11
-1 -3 -4 -5 -7 -7 -7 -8 -8 -8 -7 -10 -17 -19 -18 -17 -14 -13 -19 -25 -25 -25 -26 -26 -24 -22 -19 -13 -11 -10 -10 -10 -11 -11 -12 -13 -12 -12 -12 -12 -12 -11 -10

GFSMW_850_dewp_039.txt.gz
Dewpoint
-0 -0 1 2 1 1 3 3 3 4 5 7 9 12 12 12 13 13 13 11 11 10 10 10 9 9 7 -4 -4 -2 -2 -2 -4 -6 -11 -11 -13 -15 -12 -12 -12 -11 -14
-3 -3 -1 0 1 2 3 3 3 4 5 8 9 11 12 12 13 13 12 12 11 11 11 10 10 9 -1 -4 -2 -2 -2 -2 -4 -10 -11 -9 -10 -10 -14 -10 -13 -16 -14
-5 -5 -5 -3 -1 1 2 3 3 4 6 8 10 12 12 13 13 12 12 12 11 12 11 10 10 5 -4 -3 -2 -1 -2 -3 -5 -11 -15 -12 -10 -12 -14 -14 -12 -16 -13
-6 -6 -6 -6 -5 -2 1 3 4 5 7 7 10 9 7 10 11 12 12 12 12 11 11 10 9 -3 -3 -2 -2 -1 -2 -3 -7 -12 -15 -18 -18 -13 -13 -13 -13 -13 -14
-6 -6 -5 -4 -5 -5 0 3 5 7 8 7 10 8 8 8 9 11 12 12 11 11 11 9 1 -3 -3 -2 -2 -1 -2 -4 -10 -14 -17 -16 -15 -13 -13 -11 -13 -14 -13
-7 -7 -5 -5 -4 -3 -1 3 6 8 10 9 6 6 9 8 9 11 11 11 10 10 9 5 -4 -3 -2 -2 -2 -2 -3 -6 -12 -16 -17 -17 -16 -15 -13 -14 -14 -13 -14
-7 -7 -7 -5 -3 -3 -2 4 7 8 9 6 7 8 10 8 10 12 11 11 10 9 4 -2 -3 -3 -2 -2 -2 -3 -5 -10 -15 -16 -17 -17 -17 -16 -14 -13 -13 -12 -14
-7 -4 -4 -4 -0 -0 0 4 8 8 7 6 9 10 9 9 10 12 11 10 10 8 2 -4 -3 -3 -2 -2 -3 -5 -8 -13 -16 -16 -16 -17 -17 -16 -14 -12 -11 -11 -11
-6 -4 -3 -2 -3 2 2 5 8 8 7 8 9 10 9 10 10 11 10 9 7 3 -1 -3 -3 -3 -3 -3 -4 -7 -11 -15 -15 -15 -16 -16 -16 -15 -15 -14 -12 -10 -10
-4 -3 -1 0 -2 1 4 6 7 7 7 8 8 7 8 10 11 10 9 8 1 -2 -3 -4 -3 -3 -3 -4 -6 -10 -14 -15 -15 -15 -15 -16 -16 -16 -16 -14 -11 -11 -10
-2 -1 1 2 -0 2 6 7 7 7 7 6 5 7 9 10 10 9 7 4 -1 -4 -4 -4 -4 -3 -4 -6 -9 -13 -14 -14 -14 -15 -15 -16 -17 -16 -14 -14 -13 -12 -11
-4 2 3 3 3 5 7 7 7 6 6 3 4 8 9 9 8 5 5 1 -3 -4 -4 -4 -4 -5 -6 -9 -12 -14 -14 -14 -14 -14 -15 -16 -15 -14 -14 -13 -12 -11 -11
-3 3 3 4 5 7 7 7 5 4 3 3 5 8 7 7 5 5 1 -3 -4 -5 -4 -5 -5 -6 -8 -11 -13 -14 -13 -13 -14 -14 -15 -15 -14 -13 -12 -11 -10 -10 -9
1 3 4 4 5 6 6 4 3 1 1 3 6 5 4 4 5 -1 -4 -5 -4 -5 -5 -5 -6 -8 -11 -13 -13 -13 -13 -14 -14 -13 -13 -13 -13 -12 -11 -10 -10 -9 -9
2 4 4 4 4 4 4 1 -1 -1 2 4 4 3 3 1 -1 -4 -6 -5 -5 -5 -5 -6 -8 -11 -13 -13 -13 -13 -15 -16 -15 -15 -14 -12 -12 -12 -9 -8 -8 -8 -9
4 3 3 3 3 1 -2 -3 -3 -0 3 4 3 1 -0 -3 -5 -6 -4 -5 -5 -5 -6 -7 -10 -13 -13 -13 -13 -14 -17 -21 -21 -14 -15 -13 -11 -11 -10 -9 -8 -9 -8
4 2 2 2 -2 -2 -2 -4 -2 2 3 3 -1 -2 -4 -6 -6 -5 -5 -5 -5 -6 -7 -11 -14 -14 -13 -13 -14 -17 -23 -26 -19 -15 -12 -11 -10 -10 -9 -9 -9 -9 -9
3 2 0 -3 -4 -3 -4 -4 0 1 1 -3 -3 -4 -4 -5 -6 -4 -5 -5 -6 -8 -11 -14 -14 -13 -13 -13 -17 -24 -26 -24 -16 -11 -11 -10 -10 -10 -9 -9 -9 -10 -10
1 -1 -4 -5 -4 -3 -3 -3 -3 -4 -4 -4 -3 -3 -4 -3 -5 -5 -6 -7 -9 -11 -14 -14 -14 -13 -14 -18 -25 -26 -26 -20 -12 -11 -11 -10 -10 -10 -9 -9 -10 -9 -10
-1 -3 -4 -4 -2 -5 -5 -3 -3 -1 -1 -2 -6 -6 -6 -6 -6 -6 -8 -9 -9 -15 -15 -14 -13 -14 -19 -23 -25 -26 -25 -14 -11 -11 -10 -10 -10 -9 -9 -9 -9 -10 -11
0 -0 -1 -1 -0 1 0 -2 -4 -8 -8 -7 -7 -7 -7 -6 -7 -6 -4 -14 -15 -16 -15 -13 -15 -19 -21 -21 -21 -21 -20 -12 -9 -10 -10 -10 -10 -9 -9 -9 -10 -10 -10
-4 -5 -7 -7 -8 -8 -8 -8 -7 -7 -6 -6 -6 -6 -7 -4 -3 -10 -15 -16 -16 -15 -13 -15 -20 -18 -15 -14 -14 -16 -11 -9 -9 -10 -10 -10 -9 -9 -9 -10 -11 -10 -10
-2 -4 -4 -6 -7 -6 -3 -3 -5 -6 -6 -6 -5 -3 -5 -9 -12 -16 -17 -17 -15 -13 -18 -20 -16 -16 -16 -15 -13 -12 -10 -10 -10 -10 -10 -9 -10 -10 -11 -12 -11 -10 -11
-2 -2 -3 -4 -5 -6 -7 -6 -5 -6 -3 -4 -7 -8 -9 -14 -17 -18 -17 -14 -14 -21 -22 -19 -18 -21 -19 -14 -13 -14 -11 -10 -10 -11 -10 -10 -11 -12 -12 -12 -12 -12 -11
-5 -6 -5 -6 -7 -7 -7 -7 -6 -7 -7 -7 -7 -10 -16 -18 -18 -17 -13 -16 -23 -24 -25 -26 -27 -24 -21 -16 -12 -10 -10 -10 -10 -10 -12 -13 -13 -13 -12 -12 -12 -11 -11
-5 -6 -7 -7 -8 -8 -7 -8 -8 -8 -7 -7 -12 -17 -19 -18 -15 -13 -20 -24 -23 -25 -27 -28 -25 -22 -19 -14 -12 -10 -10 -10 -10 -11 -12 -13 -12 -12 -12 -12 -11 -11 -10

GFSMW_850_dewp_045.txt.gz
Dewpoint
-0 -0 -0 -1 -1 -2 -2 -0 2 5 9 10 11 12 13 13 12 12 11 11 11 11 11 10 9 9 9 8 8 6 -4 -2 -1 -1 -3 -5 -8 -10 -11 -13 -13 -14 -14
-2 -2 -1 -0 -0 -0 -1 -2 -0 3 6 10 10 9 11 12 12 11 11 11 11 11 11 10 9 9 9 8 8 -1 -4 -2 -1 -1 -2 -7 -7 -9 -10 -12 -14 -13 -13
-3 -3 -2 -2 -1 -1 -0 0 0 1 4 5 7 9 9 11 11 11 11 11 11 11 11 11 10 10 9 9 8 -3 -3 -1 -1 -1 -2 -7 -10 -11 -13 -13 -11 -11 -13
-4 -4 -4 -4 -4 -3 -2 -1 -0 1 2 4 4 4 8 11 11 11 11 11 11 11 10 11 10 10 9 9 6 -3 -3 -1 -1 -1 -3 -5 -9 -13 -16 -15 -15 -14 -14
-5 -6 -6 -6 -6 -6 -5 -4 -3 -1 -1 2 4 4 4 7 9 10 10 10 10 11 10 11 11 10 10 8 1 -3 -2 -2 -1 -1 -3 -6 -11 -14 -15 -15 -15 -16 -16
-6 -6 -6 -6 -6 -5 -5 -5 -6 -3 -1 -2 2 4 4 5 8 9 9 9 10 10 11 11 10 9 9 7 0 -3 -2 -2 -1 -2 -4 -8 -13 -15 -16 -15 -16 -16 -16
-7 -7 -8 -7 -7 -6 -5 -5 -5 -5 -4 -0 -1 5 5 6 7 7 8 8 9 11 11 10 10 9 8 3 -2 -3 -2 -2 -2 -3 -6 -10 -14 -15 -15 -16 -15 -15 -16
-8 -8 -7 -6 -5 -5 -4 -4 -3 -4 -4 -1 2 3 5 8 9 8 8 9 10 11 10 10 9 8 3 -0 -3 -3 -2 -2 -3 -5 -8 -12 -14 -15 -15 -15 -14 -14 -16
-8 -7 -5 -4 -3 -3 -4 -3 -2 -2 -3 -2 5 5 7 9 8 8 9 11 11 10 10 9 9 4 0 -3 -4 -3 -2 -3 -5 -8 -11 -13 -14 -14 -14 -14 -15 -14 -12
-6 -5 -3 -2 -2 -3 -5 -4 -1 -0 -1 5 7 7 9 9 8 9 10 8 10 9 9 8 5 3 -3 -3 -4 -3 -3 -4 -7 -10 -13 -14 -14 -14 -14 -15 -16 -15 -13
-5 -4 -4 -4 -4 -5 -6 -1 -2 1 1 6 8 8 10 8 8 9 8 8 9 9 8 6 2 -2 -5 -5 -5 -5 -6 -7 -10 -13 -14 -13 -13 -14 -15 -16 -17 -16 -15
-3 -2 -1 -0 -1 -2 -2 1 1 2 4 6 7 9 10 9 9 9 8 9 8 7 6 4 -3 -7 -7 -3 -1 -6 -6 -9 -12 -13 -13 -13 -14 -14 -15 -16 -16 -15 -14
0 -1 1 0 -2 0 3 5 5 5 6 7 8 7 8 9 9 8 8 7 7 5 0 -2 -2 -2 0 2 -4 -8 -10 -12 -13 -14 -14 -14 -15 -17 -16 -15 -14 -14 -11
1 1 1 1 -2 1 6 6 5 6 7 8 7 8 7 7 7 7 5 4 3 1 -1 -3 -1 -0 -5 -9 -9 -11 -13 -14 -14 -14 -15 -18 -19 -17 -14 -13 -11 -9 -9
3 2 1 2 1 4 7 6 6 7 8 8 7 7 6 5 4 3 0 -2 -1 -4 -4 -1 1 -0 -9 -10 -8 -11 -14 -14 -14 -17 -21 -23 -20 -16 -14 -10 -9 -9 -9
4 3 3 3 5 5 5 5 5 5 5 6 5 4 2 1 1 -3 -4 -4 -5 -2 0 -1 -8 -6 -2 -13 -12 -14 -14 -14 -18 -23 -24 -23 -20 -17 -13 -10 -9 -8 -8
4 3 3 3 4 4 4 2 1 1 2 1 -0 -2 -2 -4 -5 -4 -4 -2 -2 -4 -4 -1 -3 -11 -12 -13 -14 -14 -15 -19 -23 -24 -25 -25 -19 -13 -11 -11 -9 -9 -8
4 2 2 1 -1 0 1 -0 -1 -2 -2 -3 -6 -7 -6 -3 -4 -3 -3 -2 -1 -1 -3 -7 -6 -11 -13 -14 -14 -15 -21 -23 -24 -27 -27 -21 -16 -15 -12 -9 -8 -8 -9
1 -1 -2 -3 -2 -2 -3 -2 -4 -5 -6 -7 -5 -5 -6 -4 -1 -0 -1 1 1 -1 -12 -12 -10 -15 -14 -14 -17 -21 -22 -25 -27 -26 -20 -16 -15 -12 -9 -9 -9 -10 -10
-2 -1 -1 -3 -5 -6 -6 -5 -7 -7 -6 -3 -2 -1 0 -0 -0 1 0 -6 -12 -10 -4 -14 -15 -14 -16 -20 -21 -22 -24 -23 -21 -20 -18 -15 -11 -9 -9 -8 -8 -9 -9
-5 -5 -5 -5 -5 -7 -6 -6 -4 -1 -1 -1 0 0 0 0 -0 -2 -8 -5 -3 -13 -16 -14 -15 -19 -20 -20 -19 -19 -14 -12 -11 -13 -15 -13 -12 -9 -9 -9 -9 -10 -10
-4 -4 -5 -2 -2 -1 -1 -1 -1 -1 0 -0 -0 -0 -2 -8 -8 -1 -4 -14 -16 -15 -14 -16 -21 -20 -21 -20 -24 -22 -17 -13 -14 -14 -13 -11 -9 -9 -10 -10 -11 -10 -10
-1 -0 -0 -1 -1 -1 -0 -0 -0 -0 -0 -1 -5 -8 -5 -1 -8 -15 -16 -17 -15 -14 -20 -23 -23 -25 -27 -29 -26 -23 -20 -19 -13 -12 -10 -10 -10 -14 -17 -16 -14 -13 -12
-0 -0 -0 -0 -1 -0 -0 -0 -1 -3 -5 -9 -5 -3 -8 -14 -16 -17 -16 -14 -18 -23 -23 -25 -27 -30 -28 -24 -22 -20 -16 -13 -11 -11 -10 -11 -15 -16 -16 -14 -12 -11 -11
-5 -4 -5 -4 -4 -4 -5 -9 -9 -9 -4 -3 -9 -13 -16 -18 -17 -14 -16 -21 -22 -23 -26 -29 -28 -24 -23 -18 -12 -11 -10 -10 -10 -10 -13 -17 -17 -15 -12 -11 -11 -11 -11
-6 -8 -7 -7 -9 -9 -9 -9 -8 -7 -7 -9 -14 -17 -18 -15 -14 -21 -22 -23 -25 -28 -29 -25 -20 -16 -14 -11 -11 -10 -10 -10 -11 -13 -16 -16 -12 -11 -11 -11 -11 -10 -10

GFSMW_850_dewp_048.txt.gz
Dewpoint
-1 -1 -0 -1 -1 -1 -1 -1 -1 -0 8 10 10 10 10 10 12 12 12 12 12 11 10 10 10 10 10 9 9 8 8 3 -3 -2 -2 -3 -5 -8 -10 -11 -12 -12 -13
-3 -2 -2 -1 -0 -0 -0 -1 -1 -1 -1 7 9 10 9 9 10 10 11 11 11 11 10 10 11 11 10 9 9 8 8 -3 -3 -1 -2 -3 -5 -6 -9 -10 -12 -12 -12
-4 -5 -4 -3 -2 -2 -1 -0 -0 -1 -1 0 7 9 10 9 10 10 10 11 11 11 9 10 10 11 10 9 9 8 6 -4 -2 -1 -2 -3 -5 -7 -8 -12 -12 -12 -11
-4 -5 -5 -5 -4 -3 -3 -2 -1 -1 0 1 6 8 9 9 8 8 8 10 11 11 9 9 11 10 10 9 9 8 3 -4 -2 -1 -1 -2 -3 -8 -12 -12 -12 -12 -12
-6 -5 -6 -5 -5 -5 -5 -5 -4 -2 -2 0 1 7 9 9 7 7 8 8 10 10 9 8 9 10 10 10 9 8 2 -3 -2 -1 -1 -2 -4 -6 -10 -13 -14 -14 -15
-7 -6 -6 -6 -6 -6 -6 -5 -5 -5 -4 -3 -1 1 3 9 9 8 7 7 9 9 8 8 9 11 10 10 9 8 -0 -2 -2 -2 -2 -3 -5 -8 -12 -14 -14 -15 -15
-6 -7 -7 -7 -6 -6 -6 -6 -6 -5 -5 -5 -5 -2 1 1 6 7 7 7 7 8 8 7 8 11 10 9 8 7 1 -2 -2 -2 -3 -4 -6 -9 -13 -15 -15 -15 -15
-5 -8 -7 -6 -6 -6 -6 -6 -7 -7 -7 -6 -5 -5 -2 1 2 6 6 6 6 6 7 8 10 10 9 9 8 3 -3 -3 -3 -4 -4 -6 -9 -12 -14 -14 -14 -14 -15
-2 -3 -6 -4 -4 -4 -4 -4 -6 -6 -7 -5 -5 -4 -4 1 1 4 6 6 7 7 7 9 10 9 7 8 5 -1 1 -4 -4 -4 -3 -7 -11 -13 -14 -14 -14 -14 -13
1 -0 -1 -2 -2 -3 -4 -4 -4 -7 -8 -3 -3 -3 -3 2 4 5 7 7 7 8 9 10 9 7 6 3 0 -1 -1 -6 -5 -7 -6 -11 -13 -14 -14 -14 -14 -15 -14
1 1 -2 -3 -2 -2 -4 -5 -7 -7 -5 -2 -1 -1 2 7 8 6 6 7 8 10 10 9 8 5 2 -0 -2 -3 -5 -5 -5 -8 -10 -13 -13 -14 -14 -14 -15 -16 -16
2 2 1 -1 -0 -1 -2 -3 -6 -5 -2 -1 0 3 9 8 8 8 8 8 10 9 9 7 5 0 -1 -1 -4 -4 -5 -5 -4 -10 -13 -13 -13 -14 -14 -15 -17 -17 -16
2 2 1 1 1 -1 -1 -2 -3 3 2 1 3 7 9 8 9 9 9 8 7 7 6 2 1 -0 -3 -1 -3 -1 0 -2 -12 -12 -13 -13 -14 -15 -17 -18 -17 -16 -15
4 3 3 2 1 1 1 -1 -1 5 6 7 8 9 8 9 8 8 7 7 6 5 2 1 -2 -4 -5 0 1 -3 -10 -10 -6 -3 -6 -12 -18 -20 -20 -17 -16 -13 -10
4 4 3 2 3 4 4 3 5 6 7 8 8 7 7 6 6 6 4 3 2 1 -1 -2 -1 0 1 -3 -2 -3 -1 -3 -4 -8 -16 -20 -22 -21 -17 -13 -11 -9 -10
4 4 3 4 4 4 4 4 4 4 4 4 5 5 4 4 4 2 1 -1 -2 -2 -2 -1 -0 -0 -3 -5 0 -2 -11 -8 -13 -18 -22 -23 -23 -21 -19 -15 -11 -9 -8
4 4 3 3 3 3 2 3 3 3 2 2 1 1 3 2 0 -2 -3 -2 -1 -1 -1 -1 -2 -0 1 -0 -2 -3 -10 -16 -21 -23 -24 -26 -25 -22 -19 -18 -15 -10 -9
-1 1 0 -0 0 1 1 2 1 2 2 1 -1 -2 -2 -3 -5 -4 -2 -1 -1 -1 0 0 -0 -3 -6 -7 -12 -14 -18 -21 -22 -24 -25 -23 -21 -21 -18 -10 -9 -9 -9
-3 -3 -3 -2 -0 1 0 -1 -1 -1 -1 -3 -4 -5 -4 -3 -1 -0 -0 -0 -0 0 0 -2 -4 -3 -13 -14 -16 -20 -21 -23 -24 -24 -20 -20 -21 -18 -9 -9 -8 -8 -9
-4 -3 -2 -2 -2 -3 -3 -2 -4 -5 -5 -5 -3 -0 0 0 -0 -1 -0 -1 -1 -3 -3 -4 -14 -14 -15 -18 -19 -18 -21 -20 -20 -21 -22 -20 -17 -10 -9 -8 -8 -9 -11
-5 -5 -5 -5 -5 -5 -6 -6 -6 -3 -1 -0 -1 -1 -1 -0 -0 -0 0 -1 -2 -7 -14 -15 -14 -16 -19 -19 -18 -17 -16 -16 -19 -20 -19 -18 -14 -9 -9 -9 -10 -11 -9
-5 -5 -4 -5 -6 -7 -7 -4 -1 -1 -1 -1 -0 -0 -0 -0 -0 -0 -3 -10 -14 -15 -14 -15 -19 -20 -20 -22 -24 -26 -24 -21 -19 -17 -14 -11 -9 -10 -11 -13 -16 -10 -11
-1 -1 -2 -2 -2 -2 -1 -0 -1 -0 -0 -0 -1 -1 -1 -2 -7 -13 -15 -15 -15 -14 -19 -22 -22 -24 -26 -29 -27 -23 -19 -18 -11 -11 -10 -10 -12 -16 -18 -17 -14 -12 -12
0 -0 -1 -1 -1 -0 -0 0 -0 -1 -1 -2 -4 -2 -10 -14 -15 -16 -15 -14 -16 -22 -22 -24 -27 -28 -25 -22 -19 -17 -15 -12 -11 -11 -11 -12 -16 -17 -14 -12 -12 -11 -11
1 1 0 -0 -0 -0 -0 -1 -4 -6 -6 -5 -7 -12 -15 -17 -17 -15 -14 -20 -22 -23 -26 -28 -24 -21 -20 -16 -11 -10 -11 -10 -10 -11 -15 -17 -16 -12 -12 -11 -11 -11 -10
-0 -0 -1 -0 -0 -2 -7 -8 -8 -6 -4 -9 -12 -16 -18 -17 -14 -18 -22 -22 -25 -27 -26 -23 -18 -14 -13 -11 -13 -13 -10 -12 -11 -15 -17 -14 -12 -11 -11 -11 -11 -10 -10

GFSMW_850_dewp_051.txt.gz
Dewpoint
-1 -1 -1 -1 -1 -1 -2 0 1 -0 -1 0 9 11 11 11 12 11 11 10 11 11 11 9 8 8 9 9 10 10 9 9 8 1 -3 -3 -3 -5 -8 -10 -11 -11 -12
-2 -2 -2 -1 -1 -1 -0 -1 -1 -1 -1 -1 -1 9 10 10 9 9 9 8 9 11 10 10 9 9 10 10 10 10 9 8 8 -2 -3 -3 -4 -4 -6 -8 -9 -10 -11
-4 -5 -5 -5 -4 -3 -1 -1 -0 -0 -1 -1 -1 4 10 10 10 10 9 9 9 9 8 8 9 10 10 10 10 9 9 8 7 -3 -2 -2 -3 -5 -6 -8 -9 -10 -11
-5 -5 -5 -5 -5 -5 -5 -3 -2 -2 -1 -1 0 -0 0 6 9 9 9 8 9 9 9 8 9 10 10 11 11 10 9 8 6 -3 -2 -2 -2 -4 -6 -7 -10 -11 -11
-6 -6 -6 -6 -6 -5 -5 -4 -4 -3 -3 -2 -2 1 4 5 9 9 9 8 8 8 9 9 8 9 9 9 11 10 9 8 5 -3 -2 -2 -2 -3 -5 -8 -9 -11 -12
-6 -6 -6 -6 -6 -6 -6 -6 -5 -6 -6 -5 -4 -3 -1 4 7 10 9 9 8 7 8 8 8 8 8 9 11 10 8 8 5 -2 -2 -2 -2 -2 -5 -7 -10 -12 -13
-3 -3 -6 -7 -6 -6 -6 -6 -6 -6 -6 -6 -5 -5 -4 -1 1 3 7 9 9 8 7 7 8 8 8 9 10 9 8 6 3 -0 -3 -3 -4 -3 -6 -9 -11 -13 -14
-1 -1 -1 -3 -5 -5 -4 -6 -6 -6 -6 -6 -6 -5 -5 -5 -4 0 1 4 8 8 7 7 8 8 9 10 10 8 6 6 -2 -2 -3 -4 -1 -7 -8 -9 -11 -14 -14
2 0 -0 -0 -1 -2 -3 -3 -5 -6 -7 -7 -7 -8 -6 -5 -4 -5 0 2 4 6 8 7 7 7 9 9 8 6 4 2 2 -4 0 0 -4 -8 -12 -13 -13 -14 -14
2 1 0 1 -1 -1 -2 -4 -3 -3 -4 -5 -6 -8 -8 -3 -3 -3 -2 3 4 6 8 8 8 9 9 8 7 4 2 -3 -2 0 -2 -1 -5 -11 -13 -13 -14 -14 -14
3 2 1 1 1 0 0 -1 -2 -3 -5 -6 -7 -7 -4 -2 -2 -0 2 5 7 7 8 9 9 9 9 6 4 3 -0 -2 -2 0 -5 -11 -11 -13 -13 -13 -14 -14 -14
3 2 3 3 1 0 1 -0 -1 -2 -3 -4 -4 -1 -0 0 1 5 7 8 9 10 9 9 9 8 5 2 2 -1 -2 -1 -1 -2 -4 -4 -11 -11 -10 -10 -14 -16 -17
4 4 4 3 2 1 1 1 -0 -1 -2 -2 3 4 5 5 8 8 8 8 8 8 8 8 7 3 2 -0 -2 -2 -2 -1 -1 -0 -1 -8 -4 -1 -9 -15 -18 -18 -16
3 4 4 3 2 2 1 2 3 3 1 0 3 7 8 8 8 8 7 7 8 8 8 6 3 0 -1 -3 -2 -2 0 1 -1 -6 -2 1 -2 -11 -19 -20 -19 -17 -15
2 3 4 3 3 3 4 4 4 4 5 6 5 6 7 7 7 7 7 7 6 5 5 1 -2 -3 -2 -2 -1 1 -0 -2 -1 -1 -6 -15 -19 -21 -22 -20 -16 -12 -10
0 4 3 3 3 3 3 3 3 3 3 5 5 4 4 4 4 4 3 3 1 -1 -2 -2 -2 -2 -1 1 1 1 0 -0 -2 -11 -18 -20 -22 -23 -23 -23 -19 -15 -10
-4 -1 -0 0 1 2 0 2 2 2 2 2 1 -0 -1 -1 -1 -2 -2 -2 -2 -2 -2 -1 -0 0 0 -0 -0 -0 -3 -11 -17 -19 -21 -22 -24 -26 -23 -22 -19 -14 -11
-4 -4 -3 -2 -1 -0 1 2 2 3 3 2 2 1 -1 -2 -2 -2 -2 -2 -1 -1 -0 0 -0 -0 -1 -0 -5 -14 -15 -18 -20 -21 -23 -23 -21 -21 -21 -16 -10 -9 -10
-3 -3 -4 -3 -2 -1 -0 1 1 1 2 1 1 -1 -1 -2 -1 -1 -0 -0 -1 -0 -0 -0 -0 -1 -9 -13 -15 -17 -18 -19 -20 -19 -17 -17 -19 -20 -15 -9 -8 -8 -10
-4 -3 -3 -4 -4 -4 -4 -4 -4 -4 -4 -4 -5 -5 -5 -3 -1 -1 -0 -0 -0 -1 -1 -3 -13 -14 -15 -16 -16 -16 -15 -16 -18 -19 -18 -19 -18 -17 -9 -8 -9 -9 -12
-4 -5 -4 -4 -4 -5 -5 -5 -6 -5 -4 -2 -2 -1 -1 -0 -0 -1 -1 -0 -0 -5 -14 -14 -14 -15 -17 -17 -16 -16 -18 -20 -21 -21 -21 -19 -15 -9 -9 -9 -10 -12 -10
-4 -4 -5 -5 -6 -6 -6 -4 -1 -1 -1 -1 -1 -1 -1 -0 -1 -0 -4 -14 -14 -14 -14 -15 -17 -19 -19 -21 -22 -25 -25 -22 -19 -18 -16 -13 -10 -10 -12 -16 -17 -10 -10
-1 -2 -2 -3 -6 -4 -1 -1 -1 -1 -1 -1 -1 -1 -1 -4 -12 -15 -15 -15 -14 -14 -17 -21 -22 -23 -25 -27 -24 -21 -19 -18 -12 -13 -10 -12 -13 -16 -18 -16 -12 -12 -11
-0 -1 -0 -1 -1 -1 -0 -0 -1 -1 -0 -1 -2 -7 -13 -15 -16 -16 -15 -14 -18 -22 -22 -24 -26 -26 -23 -22 -21 -19 -18 -15 -14 -12 -12 -14 -17 -17 -13 -11 -11 -11 -11
-0 -0 -0 -0 -0 -1 -1 -1 -2 -3 -3 -5 -10 -13 -16 -16 -16 -15 -17 -21 -22 -23 -26 -27 -26 -25 -22 -20 -20 -13 -12 -11 -13 -12 -17 -18 -15 -12 -11 -11 -11 -10 -10
1 0 -0 -0 -0 -1 -4 -5 -5 -4 -6 -10 -14 -16 -17 -15 -15 -20 -22 -22 -24 -27 -28 -26 -23 -21 -21 -19 -19 -18 -16 -18 -16 -17 -17 -14 -12 -11 -11 -10 -10 -10 -10

GFSMW_850_dewp_054.txt.gz
Dewpoint
-0 -0 -1 -1 -1 -1 -1 -2 -2 -0 0 1 1 2 7 10 11 11 10 11 11 11 10 10 9 9 9 7 9 10 10 10 9 7 7 -0 -4 -3 -4 -7 -9 -10 -11
-2 -3 -3 -3 -2 -2 -1 -1 -1 -2 -1 -0 -0 -0 0 3 8 10 10 9 10 11 10 10 9 9 8 8 9 9 9 9 8 8 7 -3 -4 -3 -3 -6 -8 -9 -9
-6 -6 -5 -5 -5 -5 -4 -2 -1 -1 -1 -1 -1 -1 1 2 5 10 10 9 9 9 10 9 9 9 9 8 9 10 10 10 9 8 5 -3 -2 -3 -4 -5 -7 -8 -8
-4 -6 -6 -6 -5 -5 -5 -5 -4 -2 -2 -1 -1 -0 -0 0 -0 1 7 9 9 9 9 9 9 8 9 9 9 10 10 10 9 9 7 0 -3 -4 -4 -5 -6 -7 -9
-2 -3 -6 -6 -6 -6 -6 -5 -5 -4 -3 -2 -2 -1 -1 0 1 3 5 9 10 9 9 8 8 8 8 9 10 10 10 10 10 9 8 1 -3 -3 -4 -5 -5 -7 -9
-1 -2 -4 -6 -6 -6 -6 -6 -5 -4 -4 -4 -4 -4 -3 -2 -1 2 5 6 9 9 8 8 8 8 8 9 10 10 10 10 10 9 7 -1 -2 -3 -3 -4 -5 -6 -8
1 0 -1 -3 -4 -6 -5 -5 -5 -6 -6 -6 -6 -6 -5 -3 -2 -2 0 4 6 8 9 9 8 8 8 8 9 10 10 10 10 8 5 -1 -2 -2 -3 -4 -5 -7 -10
2 2 0 -1 -1 -3 -5 -4 -4 -5 -5 -5 -5 -5 -5 -5 -4 -3 0 0 1 4 7 8 9 8 7 9 9 10 10 9 8 5 1 1 1 -6 -4 -3 -4 -10 -11
3 3 3 1 0 -1 -2 -2 -3 -4 -4 -5 -5 -6 -6 -6 -6 -6 -4 -2 1 2 3 7 9 9 8 8 9 10 9 8 6 3 -0 -3 -6 -2 2 -5 -10 -12 -13
3 4 3 2 1 2 1 -1 -0 -1 -2 -3 -4 -4 -5 -6 -7 -6 -4 -3 -3 0 5 7 7 8 10 10 10 9 8 6 3 -1 -3 -1 -1 -3 -2 -4 -11 -13 -13
4 4 3 3 3 3 2 1 1 -1 -2 -3 -4 -5 -6 -6 -5 -2 -1 -1 -1 0 6 9 9 10 10 9 9 8 5 1 -3 -2 -2 -1 -1 -2 -8 -6 -7 -4 -1
4 4 4 4 3 3 2 1 1 0 -1 -2 -2 -4 -4 -2 -1 1 3 3 4 6 8 9 9 9 8 8 6 2 -1 -2 -3 -3 -1 -1 -4 -2 -2 -0 0 -1 -10
2 3 3 4 3 2 2 2 1 1 0 -1 -1 -1 -0 4 4 5 7 8 8 8 8 8 8 8 7 6 3 -1 -2 -3 -1 -0 -1 -1 -0 0 0 -1 -5 -15 -16
1 3 4 3 3 3 3 3 3 3 3 4 4 5 4 6 7 7 7 7 6 7 7 7 7 6 3 -0 -2 -2 -1 -1 -1 -1 0 0 -0 -1 -6 -16 -19 -17 -16
-0 3 2 2 3 3 3 3 3 3 4 4 5 5 5 6 5 6 6 6 6 6 6 5 1 -1 -2 -1 -0 -1 -1 -0 0 0 -0 -0 -2 -8 -19 -20 -20 -18 -16
-4 0 -2 -0 1 1 1 2 2 2 2 3 4 4 4 4 4 4 3 3 3 2 1 -0 -1 -1 -1 -1 -1 0 0 -0 -0 -0 -3 -16 -20 -21 -22 -21 -21 -21 -18
-3 -3 -3 -1 -0 0 1 1 2 1 1 0 0 0 1 2 1 1 0 -0 -0 -1 -2 -2 -2 -1 -0 -0 -0 -0 -0 -2 -11 -16 -19 -20 -21 -23 -23 -22 -22 -20 -18
-2 -3 -4 -1 0 0 1 2 1 1 0 -0 1 0 0 0 0 -0 -2 -4 -3 -3 -1 -1 -0 -0 -0 -1 -1 -1 -7 -15 -17 -19 -20 -20 -21 -21 -22 -22 -16 -12 -11
-3 -3 -3 -2 -1 -1 -1 -1 -0 -0 -1 -1 -1 -1 -0 -1 -0 -1 -1 -1 -1 -1 -1 -1 -1 -1 -1 -5 -13 -16 -17 -18 -18 -18 -17 -19 -23 -23 -20 -10 -8 -8 -9
-4 -3 -3 -4 -3 -2 -3 -4 -4 -3 -2 -2 -2 -2 -1 -1 -1 -1 -1 -1 -1 -1 -1 -0 -2 -14 -15 -15 -17 -18 -17 -17 -18 -22 -21 -20 -18 -13 -8 -8 -9 -10 -14
-4 -4 -4 -4 -5 -5 -5 -5 -4 -3 -3 -3 -2 -2 -1 -1 -1 -1 -1 -1 -0 -2 -12 -15 -15 -15 -17 -17 -16 -17 -20 -23 -22 -19 -19 -17 -15 -9 -9 -9 -11 -14 -10
-3 -4 -5 -5 -6 -6 -5 -1 -1 -1 -1 -1 -1 -1 -2 -2 -2 -1 -7 -14 -15 -15 -14 -15 -18 -19 -19 -20 -23 -25 -22 -16 -19 -18 -15 -15 -11 -14 -16 -18 -18 -11 -11
-1 -2 -4 -6 -5 -2 -1 -1 -1 -1 -1 -1 -1 -2 -2 -9 -15 -15 -15 -15 -14 -16 -20 -21 -22 -24 -25 -25 -22 -20 -18 -17 -13 -14 -14 -15 -18 -19 -18 -14 -12 -11 -11
-0 -1 -2 -1 -1 -1 -1 -1 -1 -1 -1 -1 -4 -12 -15 -16 -16 -15 -14 -17 -21 -22 -23 -25 -26 -24 -22 -20 -16 -16 -15 -15 -15 -17 -15 -18 -18 -15 -12 -11 -11 -11 -11
0 0 0 0 -0 -1 -1 -1 -1 -2 -4 -11 -14 -16 -16 -16 -15 -16 -20 -22 -23 -26 -27 -25 -24 -22 -21 -16 -13 -11 -13 -11 -15 -17 -18 -18 -14 -12 -11 -11 -11 -10 -10
0 0 -0 -1 -1 -1 -3 -4 -4 -5 -9 -13 -16 -17 -16 -14 -19 -21 -22 -23 -25 -26 -25 -25 -24 -22 -20 -18 -17 -17 -18 -20 -20 -19 -18 -14 -12 -11 -11 -11 -10 -10 -10

GFSMW_850_dewp_057.txt.gz
Dewpoint
-2 -1 -1 -1 -1 -1 -0 -1 -1 -2 1 2 3 4 4 6 9 7 9 9 10 11 11 11 9 5 5 9 10 8 9 10 10 9 8 7 7 -0 -4 -4 -6 -8 -10
-4 -5 -5 -5 -5 -3 -3 -2 -1 -1 -1 -1 0 1 2 3 3 5 8 9 9 9 9 10 10 9 6 8 10 8 9 10 10 9 8 5 4 3 -3 -4 -5 -7 -9
-4 -6 -6 -6 -5 -5 -5 -4 -2 -1 -1 -0 -1 -1 0 1 2 2 3 5 7 9 9 8 9 9 10 8 9 9 8 9 10 9 8 5 5 1 -3 -4 -5 -6 -7
-1 -2 -4 -6 -5 -5 -5 -5 -5 -4 -2 -1 -1 -1 -1 0 -0 -0 0 0 4 8 9 9 9 8 9 10 9 9 8 9 10 9 9 7 5 -0 -2 -3 -4 -5 -6
1 -1 -2 -3 -5 -5 -5 -5 -5 -5 -4 -3 -2 -1 -1 -1 -0 1 1 2 2 4 9 10 9 8 8 8 9 10 9 9 10 10 9 8 6 4 4 -3 -4 -4 -5
2 1 -1 -2 -3 -5 -5 -5 -5 -5 -4 -4 -3 -2 -2 -2 -1 -1 -0 1 1 2 5 9 10 9 8 7 8 9 10 9 10 10 10 9 9 8 4 -3 -3 -4 -4
3 3 2 0 -1 -2 -4 -6 -5 -4 -5 -5 -5 -5 -4 -3 -3 -2 0 4 2 3 4 4 6 9 9 9 8 8 10 10 10 10 9 9 9 7 2 -2 -3 -4 -7
3 4 3 2 1 0 -0 -3 -4 -4 -3 -3 -4 -4 -4 -4 -5 -5 -4 -3 0 2 5 6 6 6 8 9 9 8 10 10 10 9 8 8 6 1 -0 -2 -0 -5 -6
4 4 4 3 3 2 2 2 -1 -2 -2 -3 -3 -4 -4 -5 -5 -6 -6 -6 -5 -3 1 5 7 9 9 9 9 8 10 10 10 9 8 7 2 -1 -2 1 -5 -3 2
4 4 4 4 4 3 3 2 2 0 -1 -2 -2 -3 -3 -4 -4 -5 -5 -6 -6 -6 -2 2 6 7 10 10 10 10 10 9 9 8 7 2 -2 -1 -2 -3 -1 -2 -6
3 3 3 3 3 2 3 2 1 1 0 -1 -2 -3 -4 -4 -5 -4 -5 -5 -4 -2 -1 2 5 8 9 10 10 9 9 9 7 5 1 -3 -4 -4 -2 -2 -2 -3 -3
2 3 3 3 3 2 2 2 1 1 1 0 -1 -1 -2 -2 -2 -1 0 1 3 2 3 5 7 8 9 9 9 8 8 6 4 -1 -5 -5 -2 -1 -1 -2 -0 -0 -1
2 3 3 2 3 3 3 3 3 3 3 2 2 1 -1 -1 -1 1 4 6 7 7 6 6 7 8 8 8 7 6 5 1 -3 -5 -3 -3 -2 -1 -0 -0 -1 -1 -1
0 1 1 1 2 2 2 2 2 3 3 3 4 4 4 2 2 4 6 6 6 7 7 7 7 6 7 5 3 -1 -3 -3 -3 -3 -1 0 0 0 -0 -1 -1 -5 -13
-1 -1 0 1 1 1 2 2 3 3 3 3 3 4 4 4 5 6 5 5 5 4 5 5 4 3 2 0 -1 -2 -3 -2 -0 1 -0 -0 -1 -1 -1 -14 -20 -19 -20
-3 -1 -1 0 0 1 2 3 3 3 2 2 2 1 2 2 2 1 2 2 2 2 2 1 -0 -4 -4 -2 -1 -0 -0 0 -0 -0 -1 -2 -9 -18 -19 -20 -21 -22 -20
-2 -2 -2 -1 -0 1 2 2 2 2 2 1 0 -1 -1 -0 -0 -0 0 0 -0 -2 -2 -2 -1 -0 0 -0 -0 -0 -0 -1 -1 -2 -5 -17 -20 -21 -20 -21 -22 -23 -20
-2 -2 -2 -2 -1 -0 0 0 0 0 1 1 0 -0 -1 -1 -1 -2 -1 -1 -2 -2 -2 -1 -1 -1 -1 -1 -1 -1 -1 -4 -14 -18 -18 -19 -20 -21 -23 -22 -20 -17 -12
-3 -3 -3 -2 -2 -2 -2 -2 -3 -1 -1 -1 -1 -1 -1 -1 -2 -2 -2 -2 -2 -1 -1 -1 -1 -1 -1 -1 -2 -12 -17 -17 -17 -18 -21 -24 -25 -23 -19 -12 -12 -11 -12
-4 -4 -3 -3 -3 -3 -5 -5 -4 -2 -2 -2 -2 -1 -1 -1 -1 -2 -2 -2 -1 -1 -2 -2 -2 -6 -12 -16 -19 -19 -19 -19 -22 -23 -24 -22 -20 -18 -9 -8 -9 -12 -16
-3 -4 -3 -4 -4 -5 -5 -3 -2 -2 -2 -2 -2 -2 -2 -1 -1 -1 -1 -1 -1 -5 -13 -15 -16 -16 -16 -17 -17 -19 -23 -25 -22 -21 -19 -18 -17 -9 -11 -12 -16 -17 -11
-3 -4 -4 -5 -5 -4 -1 -1 -1 -2 -2 -1 -1 -1 -1 -1 -2 -4 -12 -15 -15 -15 -16 -18 -19 -20 -20 -22 -24 -23 -21 -21 -21 -19 -18 -18 -17 -19 -19 -19 -16 -10 -11
-2 -4 -4 -5 -2 -1 -1 -1 -2 -2 -2 -1 -1 -2 -6 -14 -16 -15 -15 -15 -18 -21 -22 -23 -24 -25 -25 -23 -22 -19 -18 -16 -15 -18 -19 -19 -20 -19 -15 -12 -11 -11 -11
-1 -3 -3 -1 -1 -1 -1 -1 -2 -1 -1 -3 -10 -15 -16 -16 -15 -15 -19 -21 -22 -24 -26 -26 -25 -23 -21 -19 -16 -17 -18 -19 -19 -19 -19 -19 -17 -13 -12 -11 -11 -11 -10
-0 -0 -0 -0 -0 -0 -1 -1 -1 -2 -8 -13 -16 -17 -16 -15 -18 -20 -21 -23 -25 -27 -27 -25 -24 -23 -21 -17 -13 -12 -13 -14 -16 -19 -19 -17 -13 -12 -11 -11 -11 -10 -10
0 0 0 -0 -0 -1 -1 -2 -4 -8 -12 -16 -17 -16 -14 -19 -21 -22 -24 -25 -27 -26 -26 -25 -24 -22 -20 -18 -18 -19 -18 -20 -20 -19 -18 -13 -12 -12 -11 -11 -10 -10 -10

GFSMW_850_dewp_060.txt.gz
Dewpoint
-1 -2 -2 -1 -1 -1 -1 -2 -2 -3 -1 10 4 8 11 10 8 8 6 9 10 10 10 10 11 11 9 10 9 10 10 8 9 10 10 9 8 7 6 0 -5 -5 -6
-4 -5 -4 -4 -3 -3 -2 -1 -1 -1 -2 1 8 2 8 9 9 7 6 6 9 9 9 9 10 9 10 8 10 9 10 9 9 10 6 4 4 7 7 4 -3 -5 -5
-2 -2 -3 -5 -6 -6 -6 -5 -4 -2 -1 -1 3 10 10 10 6 3 4 4 5 6 9 8 9 9 9 9 8 6 9 10 8 10 8 6 6 3 5 5 1 -4 -5
0 0 -0 -3 -5 -5 -5 -5 -5 -5 -3 -2 -1 6 10 10 3 1 1 1 1 3 5 7 8 10 9 8 8 8 7 10 9 9 10 8 5 3 -0 0 -2 -4 -4
2 2 -0 -2 -3 -4 -4 -5 -5 -5 -5 -4 -2 1 9 9 8 10 5 1 0 0 2 3 7 8 9 9 9 8 8 9 10 9 9 9 8 7 4 -0 0 -2 -2
3 3 1 0 -0 -1 -3 -4 -4 -5 -5 -4 -4 -3 -1 6 10 8 7 3 4 2 2 5 5 7 8 8 9 9 9 9 10 10 9 9 9 8 7 5 2 2 -3
3 4 3 2 1 -0 -1 -2 -3 -4 -3 -4 -4 -3 -3 -1 8 10 10 9 8 2 1 2 5 6 6 7 9 8 8 9 10 10 10 9 9 9 9 7 7 3 -0
4 4 4 4 3 2 1 1 0 -2 -3 -3 -3 -3 -4 -4 -4 -4 -4 -2 0 -0 -2 1 5 7 9 8 8 8 9 9 9 10 10 10 9 9 8 8 5 -1 -3
4 4 4 4 4 3 2 2 1 1 0 -1 -2 -3 -3 -3 -4 -4 -5 -5 -5 -5 -5 -4 -2 2 7 10 10 9 10 9 10 10 10 10 9 8 8 6 -3 -4 -4
3 3 3 3 3 2 2 2 2 1 1 0 -1 -2 -2 -3 -3 -3 -3 -4 -4 -4 -6 -5 -4 -1 3 6 9 10 10 10 10 9 8 9 5 5 2 -2 -3 -3 -2
2 2 3 3 2 2 2 2 2 1 1 1 0 -0 -1 -2 -2 -2 -3 -4 -4 -4 -3 -2 1 4 5 8 9 9 10 10 9 9 7 7 6 0 -3 -4 -3 -2 -1
1 2 2 2 3 3 3 2 2 2 2 2 2 1 1 -0 -0 -1 -2 -2 -1 -0 -0 2 4 7 8 8 8 8 8 8 8 7 6 3 1 -2 -2 -1 -0 0 1
-0 -0 -0 1 2 2 2 2 2 2 2 2 3 3 3 3 1 1 1 2 4 5 6 6 7 7 7 7 8 7 7 7 6 4 -0 -3 -3 -1 -1 0 0 0 -0
-1 -0 -1 1 1 1 1 2 2 2 2 2 3 3 3 4 4 4 4 5 5 5 5 6 6 6 6 6 6 5 4 3 1 -2 -2 -1 -0 -0 0 -0 -1 -1 -2
-2 -2 -1 -0 -1 -0 1 2 2 2 2 2 2 2 3 3 4 3 4 4 3 3 3 3 3 3 3 3 3 2 -0 -2 -2 -0 -0 -0 0 -0 -1 -1 -4 -10 -17
-3 -3 -2 -1 -1 1 2 2 2 2 2 2 2 1 2 2 2 2 2 1 2 1 0 0 -0 -2 -3 -3 -3 -3 -2 -2 -1 0 0 -0 -1 -2 -5 -11 -18 -23 -22
-2 -3 -3 -2 -0 1 1 1 0 1 1 1 1 1 0 -0 1 1 0 1 0 -0 -1 -1 -1 -2 -1 -1 -1 -0 -0 -0 -0 -1 -1 -3 -10 -18 -21 -22 -22 -21 -20
-2 -3 -4 -2 -1 -1 -1 -2 -2 -1 0 0 1 -0 -0 -0 -1 -1 -1 -1 -2 -2 -2 -2 -1 -1 -1 -1 -1 -1 -1 -2 -5 -12 -18 -19 -20 -21 -23 -24 -21 -17 -12
-3 -3 -3 -2 -2 -2 -3 -4 -2 -1 -1 -1 -1 -1 -1 -1 -1 -2 -2 -2 -1 -2 -2 -2 -2 -2 -2 -1 -3 -7 -15 -17 -18 -19 -22 -24 -24 -22 -19 -11 -13 -9 -10
-3 -3 -3 -3 -3 -3 -4 -3 -2 -2 -2 -1 -1 -1 -2 -2 -2 -2 -2 -2 -2 -2 -2 -2 -2 -7 -13 -18 -19 -19 -20 -22 -24 -24 -23 -22 -21 -19 -11 -9 -8 -12 -12
-2 -3 -3 -3 -4 -5 -3 -2 -2 -2 -2 -2 -2 -2 -2 -1 -2 -2 -2 -2 -4 -14 -15 -17 -17 -16 -14 -16 -21 -22 -25 -24 -21 -21 -20 -20 -19 -15 -17 -19 -12 -17 -12
-2 -3 -3 -4 -5 -2 -1 -2 -2 -1 -2 -2 -2 -2 -2 -2 -4 -10 -15 -15 -16 -18 -20 -20 -20 -21 -22 -22 -22 -21 -20 -20 -18 -17 -18 -19 -22 -22 -21 -20 -18 -11 -11
-2 -3 -4 -5 -1 -1 -1 -1 -1 -1 -1 -1 -2 -3 -12 -16 -15 -15 -16 -20 -21 -22 -23 -24 -25 -24 -22 -21 -20 -20 -21 -23 -22 -21 -21 -21 -21 -20 -17 -13 -12 -12 -11
-2 -3 -4 -1 -1 -1 -1 -1 -1 -2 -1 -3 -13 -16 -16 -15 -16 -19 -21 -22 -24 -26 -27 -27 -26 -25 -24 -22 -20 -18 -18 -20 -18 -19 -19 -20 -18 -14 -12 -12 -11 -11 -11
-1 -2 -1 -1 -1 -1 -1 -1 -2 -3 -8 -15 -17 -16 -15 -17 -20 -21 -23 -26 -28 -29 -27 -26 -25 -23 -19 -16 -20 -20 -15 -12 -17 -20 -19 -18 -14 -12 -12 -11 -11 -10 -10
-0 -0 -1 -0 -0 -1 -1 -1 -3 -9 -14 -17 -17 -15 -16 -21 -22 -23 -25 -29 -29 -28 -27 -26 -24 -23 -22 -21 -21 -21 -20 -21 -21 -20 -18 -14 -12 -12 -11 -11 -10 -10 -10

GFSMW_850_dewp_063.txt.gz
Dewpoint
-3 -2 -1 -1 -1 -1 -0 0 0 1 1 5 9 12 7 3 8 9 10 13 13 13 13 12 12 12 11 11 11 12 11 10 8 7 5 5 8 8 8 7 4 1 -3
-3 -3 -3 -4 -3 -2 -1 -1 0 0 1 -0 3 9 7 2 2 5 7 9 9 11 12 11 10 11 12 12 12 11 11 11 9 7 6 6 6 8 8 7 6 3 -1
-2 -2 -2 -1 -2 -2 -3 -3 -2 -0 1 1 2 4 10 11 12 9 7 9 9 10 13 12 12 12 12 12 11 11 11 11 9 9 7 7 7 6 4 6 6 4 1
-0 -0 -0 0 1 -3 -5 -5 -5 -5 -3 -1 1 2 6 10 11 11 12 11 9 6 5 10 13 12 13 12 12 11 11 11 9 8 9 7 6 6 3 3 3 2 0
2 1 2 2 1 -4 -4 -4 -4 -5 -4 -4 -4 -2 1 5 8 10 10 10 11 11 5 3 5 8 13 13 12 12 11 11 10 8 8 9 8 6 3 2 2 1 -0
2 3 3 3 3 1 -1 -3 -3 -1 -4 -5 -4 -4 -2 4 7 9 9 10 11 11 11 7 5 4 6 10 10 12 10 10 10 9 8 9 9 8 7 6 5 3 1
3 4 4 4 4 4 3 2 1 1 -2 -3 -3 -4 -3 -1 4 7 9 10 10 10 8 4 7 6 7 11 11 11 10 9 9 10 9 9 9 8 8 8 6 4 3
3 4 4 4 4 4 4 3 3 3 3 -0 -2 -1 -1 -2 -3 -1 2 7 8 9 9 9 1 -2 1 5 10 10 11 11 11 10 9 9 9 9 9 9 6 2 2
4 3 3 3 4 4 3 2 2 3 2 2 1 1 0 -1 -1 0 1 2 4 5 7 8 10 4 5 9 11 10 11 10 10 9 9 9 9 9 9 8 6 6 4
3 2 2 3 2 2 2 2 2 2 2 2 1 0 -1 -1 -2 -2 -2 -2 -2 -1 0 -1 -2 -3 -2 3 9 9 9 9 9 8 8 9 8 8 8 7 7 6 3
2 2 3 2 2 2 2 2 2 2 2 2 2 2 1 1 -0 -1 -1 -1 -1 -0 -1 -0 -1 -1 -0 2 7 8 8 8 8 8 8 8 8 7 5 5 5 4 -2
1 2 1 1 1 1 2 2 1 1 2 2 2 2 2 2 2 1 0 -1 -1 -0 1 2 4 5 6 7 7 7 7 7 7 7 7 7 6 5 5 3 2 1 1
1 0 -0 -0 0 0 1 1 2 2 2 2 2 3 3 3 3 3 3 2 1 2 3 5 5 5 5 5 6 6 6 7 6 5 5 5 4 2 0 1 1 1 1
-0 -0 -0 -0 -0 -0 1 1 2 2 2 2 2 2 3 3 3 3 3 4 4 4 5 4 5 5 5 5 5 5 4 4 4 2 1 0 -1 -1 -0 -0 0 0 -0
-1 -2 -1 -1 -0 0 1 1 1 2 2 2 1 1 2 2 3 3 3 4 2 3 3 3 3 2 2 1 2 2 1 0 -0 -2 -2 -1 -0 0 0 -0 -1 -1 -4
-2 -3 -2 -2 -0 0 1 1 1 1 1 1 0 0 1 2 2 2 2 2 2 1 1 0 -0 -0 -1 -2 -2 -2 -2 -2 -1 -1 -0 -1 -1 -1 -1 -2 -6 -17 -20
-2 -2 -3 -2 -1 -0 0 -0 -0 -0 0 1 0 0 0 1 1 1 0 0 -0 -0 -1 -1 -1 -1 -1 -1 -2 -1 -1 -1 -1 -1 -1 -1 -2 -9 -17 -21 -21 -21 -21
-2 -3 -3 -3 -2 -1 -1 -1 -2 -1 -0 0 0 -0 -0 -0 -1 -1 -1 -2 -2 -2 -1 -1 -1 -1 -2 -2 -2 -2 -1 -1 -2 -7 -16 -18 -19 -21 -24 -24 -20 -19 -17
-3 -3 -3 -2 -2 -2 -2 -2 -1 -1 -1 -1 -1 -1 -1 -1 -2 -2 -1 -1 -2 -2 -2 -2 -2 -2 -2 -1 -4 -10 -15 -16 -18 -20 -23 -24 -25 -25 -23 -21 -15 -10 -8
-3 -3 -3 -2 -2 -3 -3 -2 -2 -1 -1 -1 -1 -2 -2 -2 -2 -2 -2 -2 -2 -2 -2 -3 -9 -14 -18 -19 -21 -22 -23 -23 -24 -22 -22 -23 -21 -20 -17 -16 -9 -9 -11
-2 -2 -2 -3 -3 -4 -3 -2 -2 -1 -1 -2 -1 -2 -2 -2 -2 -2 -2 -6 -13 -15 -17 -19 -18 -19 -21 -24 -27 -26 -25 -21 -20 -19 -19 -19 -21 -22 -22 -22 -19 -11 -14
-1 -2 -2 -3 -4 -2 -2 -2 -1 -2 -2 -2 -1 -2 -2 -3 -9 -14 -15 -16 -19 -20 -21 -22 -24 -26 -25 -24 -24 -25 -24 -23 -19 -16 -16 -14 -20 -22 -22 -20 -19 -15 -12
-1 -2 -2 -4 -2 -1 -1 -1 -1 -1 -2 -2 -2 -7 -14 -16 -15 -16 -19 -21 -22 -23 -25 -26 -26 -25 -25 -23 -22 -21 -21 -21 -21 -20 -21 -21 -21 -20 -18 -15 -12 -12 -12
-1 -2 -3 -3 -1 -1 -1 -1 -1 -1 -2 -4 -14 -16 -16 -15 -18 -21 -22 -23 -25 -25 -25 -26 -24 -24 -22 -20 -14 -13 -13 -14 -14 -18 -21 -21 -20 -16 -13 -12 -12 -11 -11
-1 -2 -3 -1 -1 -1 -1 -1 -1 -2 -5 -15 -17 -16 -15 -18 -21 -22 -24 -27 -30 -30 -28 -27 -26 -25 -20 -20 -23 -22 -21 -20 -20 -22 -20 -19 -15 -12 -12 -11 -11 -11 -11
-1 -1 -1 -1 -1 -1 -1 -1 -3 -6 -13 -17 -17 -15 -17 -21 -22 -24 -27 -30 -30 -29 -28 -27 -27 -25 -24 -23 -23 -22 -21 -21 -21 -21 -18 -14 -12 -12 -11 -11 -11 -10 -10

GFSMW_850_dewp_066.txt.gz
Dewpoint
-3 -3 -3 -2 -1 -1 -0 0 1 1 1 5 10 12 12 8 8 6 10 11 12 12 11 11 11 12 12 11 11 10 11 11 11 9 8 5 4 5 6 7 7 7 6
-3 -3 -3 -3 -3 -3 -2 -1 -1 0 1 1 1 5 8 10 7 6 4 6 9 12 12 11 11 10 11 12 11 11 11 11 11 9 8 6 4 5 7 7 7 7 6
-3 -3 -2 -1 -1 -3 -3 -2 -2 -1 0 1 1 1 2 6 10 7 3 0 3 8 10 12 13 13 12 12 12 12 10 10 10 11 8 6 6 6 6 7 8 6 6
-1 -1 -0 1 -0 -2 -4 -5 -5 -5 -3 -0 1 1 2 4 10 10 9 8 8 8 7 9 11 13 12 12 12 12 12 11 11 11 10 8 7 7 5 5 4 5 3
0 1 2 2 2 -1 -3 -3 -3 -4 -5 -5 -5 -3 0 2 4 7 10 11 11 10 10 10 9 10 11 12 12 12 11 12 11 11 10 9 8 7 6 5 4 2 1
3 3 3 3 4 2 1 -0 -2 1 -2 -3 -4 -4 -3 -3 -1 2 7 9 10 10 11 10 10 12 10 10 11 11 11 11 11 11 10 10 9 8 7 4 4 3 2
3 4 4 4 4 4 3 2 1 1 1 -1 -1 -1 -2 -2 -2 2 6 8 9 10 10 10 9 10 11 11 12 10 10 10 10 10 11 10 10 9 9 9 6 5 3
4 4 4 4 4 4 3 2 2 2 3 2 1 1 2 1 -1 -2 -0 4 9 9 8 8 9 10 10 10 10 10 10 10 10 10 10 10 9 9 9 8 8 6 5
4 3 3 3 3 3 2 2 2 2 3 2 2 2 1 0 -0 0 0 -0 0 2 5 7 8 9 9 8 8 9 8 9 9 9 9 9 9 9 9 8 7 6 5
3 2 2 3 2 2 2 2 2 2 2 2 2 2 1 0 -0 -1 -1 -1 -1 -1 -1 -1 -0 0 2 3 4 9 8 8 8 9 8 9 8 8 8 8 7 6 5
3 2 3 2 2 2 2 2 2 2 2 2 3 3 2 2 1 1 -0 -1 -1 -1 -1 -1 -0 0 0 1 4 6 6 6 7 7 7 7 7 7 7 6 5 5 4
2 2 1 1 1 1 1 1 1 1 1 1 1 2 2 2 3 2 2 1 0 0 -1 -0 1 1 1 4 5 6 5 6 6 6 6 6 6 5 4 4 4 3 3
1 1 0 -0 0 0 1 1 1 1 1 2 2 2 2 2 3 3 3 3 3 3 3 3 3 4 4 4 4 4 5 5 5 5 6 4 3 3 3 2 1 2 1
1 -0 0 -0 -0 -0 0 1 1 2 2 1 2 2 2 2 3 3 3 3 3 3 2 3 4 4 4 4 4 4 4 4 3 3 5 2 1 0 -0 0 0 -0 1
-0 -1 -0 -1 -0 0 1 1 1 2 1 1 1 1 1 2 2 3 3 2 2 2 2 2 2 2 2 2 2 2 1 1 0 -0 -1 -1 -1 -1 -1 -1 -1 -0 -2
-0 -2 -2 -1 -0 0 1 1 1 1 1 1 1 0 1 1 1 1 1 1 1 1 0 0 0 0 -0 -1 -2 -2 -2 -1 -1 -1 -1 -0 -1 -1 -1 -3 -6 -7 -15
-1 -2 -2 -2 -1 0 1 1 0 -0 -0 0 0 0 0 0 -0 -0 -0 -0 -1 -1 -1 -1 -1 -1 -1 -1 -1 -1 -1 -1 -1 -1 -2 -2 -2 -2 -4 -12 -20 -20 -21
-2 -2 -3 -2 -1 -0 -1 -0 -1 -1 -0 -0 -0 -0 -1 -1 -1 -2 -1 -1 -2 -1 -1 -2 -2 -2 -2 -2 -2 -2 -2 -1 -1 -4 -8 -15 -19 -20 -22 -22 -20 -17 -17
-2 -3 -3 -3 -2 -2 -2 -2 -2 -1 -1 -1 -1 -1 -2 -1 -1 -1 -1 -2 -2 -2 -2 -2 -2 -3 -6 -13 -19 -20 -21 -21 -22 -22 -21 -21 -21 -20 -21 -19 -16 -13 -12
-2 -2 -2 -2 -2 -2 -2 -2 -1 -1 -1 -1 -2 -2 -2 -2 -2 -2 -2 -2 -3 -6 -10 -16 -17 -19 -21 -25 -27 -27 -24 -21 -19 -18 -20 -21 -21 -22 -22 -21 -15 -12 -13
-2 -2 -2 -2 -2 -3 -3 -2 -1 -1 -1 -1 -2 -1 -2 -2 -2 -4 -10 -15 -17 -19 -20 -20 -22 -24 -27 -26 -27 -26 -25 -24 -23 -21 -19 -20 -22 -22 -23 -23 -22 -19 -17
-1 -1 -2 -2 -2 -3 -2 -1 -1 -1 -2 -2 -1 -2 -2 -9 -14 -15 -17 -20 -20 -22 -24 -26 -26 -26 -26 -25 -24 -23 -23 -23 -22 -20 -19 -19 -21 -22 -22 -21 -20 -16 -13
-1 -1 -1 -1 -3 -1 -1 -1 -1 -2 -2 -1 -2 -6 -15 -16 -15 -18 -20 -21 -22 -24 -25 -24 -25 -25 -24 -22 -21 -20 -20 -21 -21 -21 -21 -22 -22 -21 -19 -15 -12 -12 -11
-1 -1 -1 -2 -1 -1 -1 -1 -1 -2 -2 -3 -11 -16 -16 -15 -18 -21 -22 -24 -27 -27 -27 -27 -26 -24 -22 -22 -21 -22 -22 -22 -20 -21 -22 -21 -20 -17 -13 -12 -12 -11 -11
-1 -1 -2 -2 -1 -1 -1 -1 -2 -2 -3 -12 -16 -16 -15 -18 -21 -22 -24 -28 -30 -30 -29 -28 -28 -26 -25 -24 -24 -23 -23 -23 -23 -24 -22 -21 -17 -13 -12 -12 -12 -11 -11
-1 -1 -1 -1 -1 -1 -1 -1 -1 -2 -8 -16 -17 -16 -16 -20 -21 -23 -25 -30 -31 -30 -28 -28 -28 -27 -26 -24 -24 -23 -23 -23 -23 -23 -21 -19 -14 -13 -12 -12 -11 -11 -11

GFSMW_850_dewp_069.txt.gz
Dewpoint
-3 -3 -3 -3 -3 -3 -1 -0 2 3 3 3 5 10 11 9 9 10 10 11 11 10 11 12 11 11 12 11 11 10 11 11 11 11 10 10 9 6 5 5 5 6 7
-3 -2 -2 -2 -3 -3 -2 -0 0 1 1 1 1 2 5 7 8 7 8 10 9 9 10 11 13 12 11 11 11 11 11 11 11 11 10 9 8 8 6 5 4 5 5
-3 -3 -3 -3 -3 -3 -4 -4 -3 -2 -1 0 1 1 1 1 3 5 7 8 8 5 7 9 9 9 11 11 9 10 11 11 10 10 10 8 8 7 7 6 5 5 6
-2 -2 -1 -2 -2 -3 -3 -3 -3 -3 -2 -1 0 1 1 2 2 6 11 10 9 8 9 9 9 10 10 11 11 10 10 11 11 11 11 10 8 7 6 6 6 5 5
-1 -0 -0 -1 -1 -2 -3 -2 -2 -3 -4 -5 -4 -1 0 1 2 3 5 9 11 11 10 9 7 8 9 10 10 11 11 10 10 10 11 11 10 9 7 6 6 6 5
1 2 2 3 3 3 1 0 -1 -1 -2 -4 -4 -5 -5 -4 -3 -2 1 3 7 9 10 10 10 9 10 11 11 10 10 10 10 11 11 10 10 10 9 7 6 5 5
3 3 3 4 4 4 3 2 1 1 0 -1 -1 -3 -3 -3 -4 -3 -2 2 7 9 9 9 9 10 9 10 10 10 9 10 9 9 10 10 10 10 9 9 7 5 5
3 4 4 4 4 3 3 3 2 2 2 2 2 1 0 0 0 -1 -2 -1 3 6 9 8 8 8 9 10 10 10 8 9 8 9 8 9 9 9 10 9 8 7 6
4 4 3 3 2 2 1 1 2 2 2 2 2 2 2 1 1 0 -0 -0 -0 0 2 6 8 8 8 8 8 8 6 7 7 8 8 8 8 8 9 8 8 8 6
3 3 2 2 2 1 1 1 1 1 2 2 1 1 1 1 1 -0 -1 -1 -1 -2 -2 -1 -0 0 0 2 4 4 4 4 7 7 7 6 7 8 8 8 8 7 6
3 2 2 2 2 2 2 1 1 1 2 1 2 2 2 1 1 1 1 0 -0 -1 -1 -1 -1 -1 -1 -1 -1 -1 1 4 5 6 6 6 7 6 7 6 6 5 4
3 2 2 1 1 1 1 1 1 1 1 1 1 1 1 2 2 2 2 2 1 1 0 -0 -0 -1 -0 0 1 2 4 5 5 5 5 6 6 5 5 6 4 3 3
2 1 1 0 0 0 1 1 1 1 1 1 1 2 2 2 2 2 2 2 2 2 2 2 2 2 3 3 3 3 4 4 4 4 5 5 4 4 3 4 2 1 1
2 1 0 -0 -0 0 0 1 1 1 1 1 1 1 1 2 2 3 3 2 3 2 2 2 2 3 3 3 3 3 3 4 4 4 3 3 2 0 1 1 0 0 -0
1 0 -0 -0 -0 -0 0 1 1 1 1 1 1 0 1 1 2 3 3 2 2 2 1 1 1 1 1 0 1 1 2 2 2 1 1 0 -0 -0 -0 0 -0 -1 -1
1 -0 -1 -1 -1 -0 0 1 1 1 1 0 0 1 1 1 2 1 1 1 1 -0 -1 -0 -0 -1 -1 -1 -1 -1 -1 -0 -0 -0 -0 -0 -1 -1 -1 -1 -1 -1 -3
2 0 -1 -2 -1 -0 0 1 1 0 -0 0 0 0 1 1 1 0 -0 -1 -1 -1 -1 -1 -1 -1 -1 -1 -1 -1 -1 -1 -1 -1 -1 -1 -1 -2 -4 -7 -15 -18 -20
1 -1 -2 -2 -2 -1 0 0 -0 -1 -1 -0 0 0 -0 -1 -1 -1 -1 -1 -1 -2 -2 -2 -2 -2 -2 -2 -4 -7 -5 -5 -7 -10 -16 -18 -21 -22 -23 -24 -22 -19 -17
-1 -1 -2 -2 -2 -1 -1 -1 -1 -1 -0 -0 -0 -1 -1 -1 -1 -2 -2 -2 -2 -2 -2 -3 -12 -19 -22 -24 -26 -25 -24 -24 -24 -23 -23 -24 -23 -22 -21 -21 -19 -17 -14
-1 -1 -2 -3 -2 -1 -1 -1 -2 -1 -1 -1 -1 -1 -1 -1 -2 -2 -2 -3 -7 -17 -19 -20 -21 -25 -26 -28 -28 -27 -25 -22 -23 -22 -20 -20 -21 -21 -21 -22 -20 -17 -15
-1 -2 -2 -2 -2 -2 -2 -2 -2 -1 -1 -1 -2 -2 -2 -2 -2 -5 -14 -18 -20 -21 -23 -26 -27 -28 -27 -26 -27 -27 -25 -25 -23 -22 -21 -21 -22 -23 -24 -24 -23 -20 -17
-1 -1 -1 -2 -2 -2 -2 -3 -1 -1 -1 -1 -1 -2 -2 -4 -12 -16 -19 -21 -22 -24 -26 -26 -27 -26 -26 -25 -24 -25 -25 -25 -23 -22 -22 -22 -23 -23 -23 -21 -19 -15 -13
-1 -1 -1 -1 -1 -2 -2 -1 -1 -1 -1 -1 -2 -2 -7 -14 -15 -18 -20 -22 -24 -26 -27 -27 -27 -26 -24 -23 -23 -24 -24 -24 -23 -22 -24 -23 -23 -22 -18 -14 -12 -12 -12
-0 -1 -1 -1 -1 -2 -1 -1 -1 -1 -1 -2 -2 -11 -16 -15 -17 -20 -21 -23 -26 -28 -27 -28 -27 -26 -25 -24 -24 -25 -24 -24 -23 -24 -24 -23 -22 -18 -14 -12 -12 -12 -12
1 -1 -1 -1 -2 -1 -1 -1 -1 -1 -2 -3 -11 -17 -16 -16 -20 -22 -23 -26 -29 -30 -29 -29 -28 -27 -26 -25 -25 -24 -25 -24 -25 -25 -24 -21 -19 -14 -13 -12 -12 -12 -11
1 -0 -1 -1 -1 -1 -1 -1 -1 -2 -2 -8 -16 -17 -16 -17 -21 -22 -24 -28 -31 -31 -29 -29 -29 -28 -27 -25 -24 -24 -24 -24 -24 -24 -22 -20 -17 -13 -13 -12 -12 -11 -11

GFSMW_850_dewp_072.txt.gz
Dewpoint
-2 -2 -3 -3 -3 -3 -1 2 3 4 4 5 5 8 12 12 12 13 12 12 12 12 12 12 12 12 12 11 11 12 11 11 11 12 11 10 10 10 10 9 8 5 5
-3 -3 -3 -3 -3 -3 -3 -2 0 1 2 2 3 5 4 5 8 10 11 11 11 11 11 11 11 11 12 11 11 11 11 11 11 10 11 11 10 9 9 10 9 7 6
-3 -3 -2 -2 -3 -3 -3 -2 -2 -1 -0 0 1 1 1 2 2 3 5 6 8 11 11 8 8 9 10 10 11 10 10 10 9 10 10 10 10 9 8 8 8 8 6
-3 -3 -3 -3 -3 -3 -3 -4 -4 -4 -3 -2 -2 -1 0 1 1 2 2 1 2 5 7 8 7 8 9 9 10 10 10 10 10 9 10 10 11 9 8 8 7 7 6
-2 -2 -1 -1 -2 -3 -4 -4 -3 -3 -3 -3 -3 -2 -1 -0 1 1 2 3 5 7 8 9 10 9 7 9 9 10 10 10 10 11 10 9 10 11 10 8 8 8 7
-0 0 1 0 0 -1 -1 -2 -2 -2 -2 -3 -4 -4 -4 -4 -3 -2 -1 -0 1 3 8 9 9 9 8 10 9 9 10 10 10 10 10 10 11 10 10 9 9 9 8
1 2 2 2 2 2 2 1 1 0 -0 -1 -1 -2 -3 -3 -3 -4 -4 -3 -1 3 7 8 9 9 9 9 9 9 9 9 8 9 9 9 9 9 9 9 8 8 8
3 3 3 3 3 3 3 2 2 1 1 1 1 0 0 -0 -1 -1 -1 -2 -2 -1 3 6 8 8 8 7 8 8 9 7 8 7 8 8 9 8 7 8 8 8 8
4 4 4 3 3 2 2 1 1 1 1 2 2 2 1 1 1 1 1 0 -0 -0 -1 0 1 4 7 8 8 8 8 4 5 5 5 7 7 7 8 7 8 7 7
4 3 3 3 2 2 1 1 1 1 1 1 2 1 1 2 2 1 1 0 -0 -1 -1 -1 -1 -0 0 1 1 2 3 4 4 4 3 4 6 6 6 7 7 7 6
3 3 3 2 2 2 1 1 1 1 1 1 2 2 2 1 1 1 1 1 1 0 -0 -0 -1 -1 -1 -1 -1 -1 -1 -1 0 2 4 5 5 5 6 6 5 5 5
3 3 2 2 1 1 1 1 1 1 1 1 1 1 1 1 1 1 2 1 1 1 1 1 0 0 -0 -0 0 1 2 2 3 4 4 4 4 4 4 5 4 4 4
3 3 2 1 1 1 1 1 1 1 1 1 1 1 1 1 2 2 2 2 1 1 1 2 2 1 2 2 3 3 3 3 3 3 3 3 3 4 4 3 3 2 1
3 2 1 1 0 0 0 1 1 1 1 1 1 1 1 1 1 2 2 2 2 2 2 2 2 2 2 1 1 2 3 3 2 3 3 3 3 3 2 2 1 1 0
3 2 1 0 0 -0 -0 0 0 1 1 1 1 1 0 1 1 2 3 3 2 1 1 1 1 0 -0 0 1 1 2 1 1 1 1 1 0 0 0 0 -0 -0 -0
3 2 1 0 -0 -0 -0 0 1 1 1 1 0 0 0 1 2 2 2 1 1 0 -0 -0 -1 -1 -1 -1 -1 -1 -0 -0 -0 -0 -0 -0 -1 -1 -1 -1 -1 -1 -1
2 1 1 0 -1 -1 -0 0 1 1 1 0 -0 0 1 1 1 1 0 -0 -0 -1 -1 -1 -1 -1 -2 -2 -1 -1 -1 -1 -1 -1 -1 -1 -1 -2 -5 -10 -19 -20 -20
2 2 1 -1 -1 -1 -1 -0 1 1 -0 -0 -0 0 0 0 0 -1 -1 -1 -1 -2 -2 -2 -2 -4 -8 -16 -23 -23 -22 -21 -19 -20 -23 -23 -24 -24 -25 -24 -22 -20 -18
2 1 -0 -1 -2 -2 -1 -0 -0 -0 -1 -1 -0 0 -0 -1 -1 -1 -2 -2 -2 -2 -3 -14 -21 -23 -27 -29 -31 -30 -28 -27 -26 -25 -26 -25 -24 -23 -25 -24 -23 -21 -17
1 -0 -1 -2 -2 -2 -1 -1 -1 -1 -1 -0 -0 -1 -1 -1 -2 -2 -2 -2 -7 -17 -18 -21 -25 -28 -27 -29 -29 -29 -28 -27 -27 -25 -24 -24 -24 -23 -24 -25 -24 -21 -17
0 -1 -2 -2 -2 -2 -2 -1 -1 -2 -1 -1 -1 -1 -1 -2 -2 -2 -9 -17 -20 -21 -24 -27 -27 -27 -27 -26 -27 -27 -26 -26 -25 -24 -24 -23 -24 -24 -25 -25 -23 -21 -20
-1 -1 -2 -2 -2 -2 -2 -2 -2 -2 -1 -1 -1 -2 -2 -2 -4 -13 -18 -21 -22 -25 -27 -26 -26 -26 -25 -25 -26 -27 -27 -25 -23 -22 -23 -24 -23 -23 -22 -20 -18 -15 -13
-0 -1 -1 -1 -1 -1 -2 -2 -2 -1 -1 -1 -1 -2 -2 -6 -15 -17 -20 -22 -24 -26 -27 -26 -27 -26 -26 -25 -25 -26 -26 -26 -25 -24 -25 -25 -23 -21 -19 -16 -13 -12 -12
1 -0 -1 -1 -1 -1 -2 -1 -1 -1 -1 -1 -2 -2 -6 -14 -16 -18 -21 -23 -26 -28 -28 -28 -28 -28 -28 -27 -26 -26 -26 -26 -25 -25 -25 -24 -23 -21 -16 -13 -12 -12 -12
2 1 -0 -1 -1 -1 -1 -1 -1 -1 -1 -1 -2 -5 -14 -15 -16 -19 -21 -24 -27 -29 -29 -29 -29 -29 -29 -28 -28 -27 -26 -25 -25 -25 -24 -23 -21 -17 -14 -13 -12 -12 -12
2 2 1 -1 -1 -1 -1 -1 -1 -1 -1 -2 -3 -13 -16 -16 -17 -20 -22 -24 -28 -30 -31 -30 -29 -29 -29 -29 -28 -27 -25 -24 -24 -24 -23 -22 -21 -17 -14 -13 -12 -12 -12

GFSMW_850_dewp_075.txt.gz
Dewpoint
-1 -2 -3 -1 -0 1 4 6 8 9 11 13 13 13 13 13 13 13 13 13 13 13 13 13 13 13 13 12 12 12 12 12 12 11 11 11 11 10 10 10 10 10 9
-1 -1 -2 -3 -3 -3 -2 2 3 3 4 6 7 8 8 9 9 11 12 12 12 11 11 11 11 11 11 11 12 12 12 12 12 12 11 11 10 9 9 9 9 9 9
-2 -3 -3 -3 -2 -2 -2 -2 -1 0 1 1 1 2 3 4 5 4 4 6 9 11 12 12 12 12 9 8 10 11 11 12 12 11 11 11 10 9 9 9 8 8 8
-2 -3 -3 -3 -2 -3 -3 -3 -3 -3 -2 -2 -1 -0 1 1 1 2 2 2 2 2 3 6 8 7 7 9 9 9 10 11 11 12 11 11 11 11 10 10 9 8 8
-2 -3 -3 -2 -2 -2 -3 -3 -3 -3 -4 -4 -4 -3 -2 -1 -1 -0 1 1 2 2 2 3 5 7 7 9 9 8 9 9 10 10 10 10 10 10 10 9 9 8 8
-2 -2 -1 -1 -2 -2 -2 -3 -3 -3 -2 -2 -2 -3 -3 -3 -3 -2 -2 -1 -1 -0 1 4 7 9 8 8 8 7 9 9 9 8 9 9 9 9 9 9 8 8 8
-2 -0 -0 -0 -0 0 0 -0 -1 -1 -1 -1 -1 -2 -2 -3 -3 -4 -4 -3 -3 -2 0 3 6 8 10 10 10 9 9 10 9 8 8 8 9 9 9 9 8 8 8
0 0 1 1 2 2 2 2 1 1 0 0 0 0 0 0 -0 -1 -1 -1 -2 -2 -1 2 5 8 9 9 9 9 9 9 8 8 6 8 8 8 7 8 7 7 6
2 2 2 2 3 3 2 2 1 1 1 1 1 1 1 1 1 1 1 1 1 0 -0 -0 -0 1 3 6 8 9 9 9 9 8 5 6 6 6 6 6 6 6 7
3 3 3 3 3 2 2 1 1 1 1 1 1 1 1 1 1 1 1 1 1 0 -0 -0 -1 -0 -0 0 1 1 2 2 2 2 3 4 4 3 4 5 6 6 6
4 4 3 3 2 2 2 1 1 1 1 1 1 1 1 1 1 1 1 1 1 1 1 0 0 -0 -1 -1 -1 -1 -1 -1 -0 1 1 2 3 4 4 4 4 4 4
3 3 3 2 2 2 1 1 1 1 1 1 1 1 0 1 1 1 1 1 1 1 1 1 1 1 0 0 0 1 1 2 2 2 3 3 3 3 3 3 3 3 3
3 3 3 2 2 1 1 1 1 1 1 1 1 1 1 1 1 1 2 2 2 1 1 2 1 1 2 2 2 2 3 3 2 2 2 3 3 3 3 3 3 3 2
3 3 3 2 1 1 0 0 1 1 1 1 1 1 1 0 0 1 2 2 2 2 2 2 2 2 1 1 1 2 3 3 2 2 2 2 3 3 2 1 1 1 1
3 3 3 2 1 0 0 0 0 0 1 1 1 1 1 0 1 1 2 2 2 1 1 1 0 -0 -0 0 1 1 1 1 1 1 1 1 0 -0 0 -0 -0 -0 -0
2 2 2 2 1 1 0 -0 0 0 1 1 1 0 0 0 1 1 2 2 1 0 -0 -0 -1 -1 -1 -0 -0 -0 -0 -0 -0 -1 -1 -1 -1 -1 -1 -1 -1 -1 -1
0 1 2 2 1 0 0 -0 -0 0 1 1 0 0 -0 0 1 1 1 0 -0 -0 -1 -1 -1 -1 -1 -2 -3 -4 -5 -5 -4 -3 -3 -5 -7 -9 -12 -19 -22 -23 -23
-1 1 2 1 1 -0 -0 -0 -0 0 1 1 -0 -0 0 0 1 0 -0 -1 -1 -1 -1 -2 -3 -9 -21 -25 -27 -29 -27 -26 -26 -26 -26 -27 -26 -27 -26 -25 -25 -24 -22
-1 1 2 2 1 -1 -1 -1 -1 0 0 -0 -1 -0 0 0 -0 -1 -1 -1 -2 -2 -5 -20 -24 -27 -30 -32 -31 -30 -28 -27 -27 -28 -27 -27 -25 -24 -25 -25 -25 -23 -20
1 2 1 -0 -1 -1 -1 -1 -1 -0 -1 -1 -1 -0 -0 -1 -1 -1 -2 -2 -3 -12 -21 -25 -27 -30 -29 -29 -30 -29 -29 -29 -28 -27 -26 -26 -26 -25 -25 -26 -26 -25 -22
2 1 -0 -1 -1 -2 -2 -2 -1 -1 -1 -1 -0 -0 -1 -1 -2 -2 -2 -8 -18 -21 -25 -28 -29 -29 -28 -27 -29 -29 -29 -30 -28 -27 -25 -25 -26 -26 -27 -27 -25 -23 -22
1 0 -0 -1 -2 -2 -2 -2 -1 -1 -2 -1 -1 -1 -1 -1 -2 -3 -14 -20 -22 -25 -28 -28 -28 -28 -27 -26 -27 -29 -29 -29 -28 -26 -25 -26 -26 -26 -25 -23 -20 -17 -14
1 1 -1 -1 -1 -1 -1 -2 -1 -2 -2 -1 -1 -1 -1 -2 -3 -14 -19 -22 -24 -26 -27 -27 -27 -28 -27 -26 -26 -27 -27 -27 -27 -27 -28 -27 -26 -24 -22 -18 -16 -13 -13
1 1 0 -1 -1 -1 -1 -1 -2 -2 -1 -1 -2 -2 -2 -3 -13 -16 -20 -21 -23 -26 -28 -27 -28 -28 -28 -27 -27 -27 -26 -26 -26 -27 -27 -26 -24 -23 -20 -17 -14 -13 -13
1 1 1 -0 -1 -1 -1 -1 -1 -1 -1 -1 -1 -2 -2 -9 -15 -16 -19 -21 -23 -26 -29 -29 -29 -29 -29 -28 -29 -28 -27 -27 -27 -26 -25 -24 -23 -21 -18 -15 -13 -13 -12
1 1 1 1 -1 -1 -1 -1 -1 -1 -1 -1 -1 -2 -5 -14 -16 -17 -19 -22 -24 -27 -30 -31 -30 -29 -29 -29 -29 -28 -28 -28 -27 -26 -24 -24 -24 -22 -21 -17 -14 -13 -12

GFSMW_850_dewp_078.txt.gz
Dewpoint
-1 -2 2 4 5 8 11 12 13 13 13 13 13 13 13 13 13 13 13 13 13 12 13 13 13 13 13 12 12 12 12 12 12 12 11 11 11 10 10 9 9 10 10
-0 -1 -2 -1 -0 1 3 8 11 11 11 11 11 12 12 13 12 12 12 12 12 12 12 12 12 11 11 11 11 11 11 11 12 12 11 10 10 10 9 8 8 8 9
-1 -1 -2 -2 -2 -2 -1 1 4 5 5 5 8 10 8 8 8 7 7 8 9 10 11 11 11 12 12 12 12 10 9 10 11 11 11 10 9 9 10 10 9 9 9
-1 -1 -2 -2 -2 -2 -2 -2 -2 -2 -1 0 0 0 0 1 1 3 5 6 5 3 3 3 4 4 8 10 8 8 9 9 9 10 10 10 10 10 9 9 9 9 8
-1 -2 -3 -2 -2 -2 -2 -3 -3 -3 -3 -3 -3 -3 -3 -3 -1 -0 0 0 0 0 1 1 2 4 7 8 9 10 9 8 9 9 9 10 9 9 10 9 8 8 7
-0 -2 -2 -2 -2 -2 -2 -2 -2 -3 -3 -3 -3 -3 -3 -3 -3 -3 -2 -2 -1 -0 -0 1 1 3 5 8 10 9 9 8 9 9 9 8 7 8 8 8 7 7 7
-1 -2 -2 -2 -1 -2 -2 -2 -2 -2 -2 -2 -2 -2 -2 -2 -2 -3 -3 -3 -3 -3 -3 -2 -1 0 3 6 9 10 10 10 9 10 9 7 7 6 8 8 7 7 7
-1 -2 -1 -1 -1 -0 0 -0 -0 -0 0 0 0 0 0 0 0 -0 -0 -1 -1 -1 -1 -1 0 4 7 9 10 10 10 10 9 8 8 8 8 6 8 7 8 7 6
-2 -0 1 1 1 1 2 2 1 1 1 1 1 1 1 1 1 1 1 1 1 1 0 0 0 0 1 3 5 7 8 8 8 8 8 8 6 5 6 6 6 6 5
0 2 2 3 3 3 2 1 1 1 0 0 0 1 1 1 1 1 1 1 1 1 1 0 -0 -0 -0 0 1 1 3 4 5 4 3 2 3 5 5 4 4 4 5
1 3 3 3 3 2 2 1 1 1 1 1 1 1 1 1 0 0 0 0 0 0 0 1 1 0 0 -0 -0 -0 -0 -0 -0 0 1 2 2 3 3 3 3 3 3
2 3 3 3 3 2 2 1 1 1 1 1 1 1 0 0 0 0 0 1 1 1 1 0 0 0 0 0 0 0 0 1 1 2 2 2 3 3 3 2 2 3 3
3 4 3 3 2 2 1 1 1 1 1 1 1 1 0 1 1 0 1 1 1 2 1 1 1 1 1 1 2 2 2 3 3 2 2 2 2 2 2 2 2 2 2
3 3 3 3 2 2 1 1 1 1 1 1 1 1 1 1 0 0 0 1 2 2 2 2 2 2 2 2 1 2 2 3 2 2 2 1 2 2 2 1 1 1 1
3 3 3 2 2 2 1 1 0 0 0 0 1 1 1 1 0 0 1 2 2 2 1 1 0 0 0 1 1 1 2 1 1 1 1 1 1 0 -0 -0 -1 -1 -1
3 2 2 2 2 2 1 0 0 0 0 0 1 1 1 0 0 1 1 2 2 1 0 -0 -1 -1 -0 -0 -0 -0 -0 -0 -0 -0 -1 -1 -1 -2 -2 -3 -5 -9 -12
1 1 1 2 2 2 1 1 0 -0 0 1 1 1 0 -0 0 1 1 1 1 -0 -1 -1 -1 -1 -1 -3 -5 -8 -12 -16 -18 -17 -18 -21 -24 -26 -25 -25 -25 -25 -26
-1 -0 1 1 2 2 1 0 -0 -0 0 1 1 0 -0 -0 0 1 1 0 -0 -1 -1 -2 -3 -11 -23 -27 -31 -32 -30 -30 -29 -28 -28 -27 -28 -28 -27 -27 -27 -27 -25
-2 -2 -1 1 2 1 0 -0 -0 -0 0 0 0 0 -0 -0 0 0 -0 -1 -1 -2 -3 -13 -24 -27 -31 -32 -32 -31 -30 -30 -29 -29 -28 -28 -27 -27 -29 -28 -29 -27 -25
-3 -1 1 2 2 1 -0 -1 -1 -1 -1 -0 -0 -0 -0 -0 -0 -1 -1 -1 -2 -4 -21 -24 -28 -30 -29 -30 -31 -31 -30 -30 -30 -29 -27 -28 -29 -29 -28 -28 -28 -27 -24
-1 -1 2 1 -0 -1 -1 -1 -1 -1 -1 -1 -1 -1 -1 -1 -1 -1 -2 -2 -6 -18 -23 -26 -28 -28 -28 -28 -30 -31 -31 -30 -29 -28 -28 -28 -29 -29 -29 -29 -27 -25 -21
-0 2 1 -0 -1 -1 -1 -2 -2 -1 -1 -1 -1 -1 -1 -2 -1 -2 -2 -8 -17 -21 -25 -27 -28 -28 -27 -27 -29 -30 -30 -30 -29 -28 -28 -28 -29 -28 -28 -26 -24 -20 -15
1 1 0 -1 -1 -1 -1 -1 -2 -1 -1 -2 -2 -2 -2 -2 -2 -2 -7 -18 -20 -24 -27 -27 -27 -28 -28 -28 -29 -30 -29 -29 -28 -27 -28 -28 -27 -26 -24 -22 -20 -15 -14
1 0 0 -0 -1 -1 -1 -1 -2 -1 -2 -2 -2 -2 -2 -1 -2 -4 -16 -20 -22 -24 -27 -28 -28 -28 -29 -29 -28 -29 -28 -28 -27 -27 -27 -27 -26 -25 -23 -20 -17 -14 -14
1 1 1 1 -0 -1 -1 -1 -1 -1 -2 -1 -2 -2 -2 -2 -2 -12 -17 -19 -21 -23 -27 -29 -29 -29 -29 -29 -29 -30 -29 -28 -28 -28 -26 -25 -25 -25 -24 -22 -19 -16 -14
4 2 1 1 1 -0 -1 -1 -1 -1 -1 -0 -1 -1 -1 -2 -5 -14 -16 -19 -20 -23 -26 -30 -31 -31 -30 -30 -30 -30 -30 -29 -30 -28 -26 -26 -25 -25 -24 -24 -22 -21 -17

GFSMW_850_dewp_081.txt.gz
Dewpoint
1 -1 4 10 11 10 11 12 12 12 13 13 13 13 13 13 13 12 13 13 13 13 13 12 12 12 12 12 12 12 11 11 10 11 10 10 10 10 9 9 9 8 8
2 -1 -1 2 9 10 9 9 11 12 12 12 12 12 12 11 11 12 12 13 12 12 11 11 11 11 11 11 10 11 11 11 10 11 11 10 9 9 7 9 9 9 9
2 -0 -1 -2 0 3 4 5 7 10 11 10 9 9 10 9 9 10 10 9 9 10 9 9 10 10 10 10 11 12 12 12 9 8 11 10 9 8 8 8 8 8 9
1 -0 -1 -1 -2 -2 -1 0 2 5 6 5 6 6 6 6 4 3 3 5 7 8 7 6 4 3 4 4 5 10 11 9 9 8 7 9 11 10 9 9 8 7 7
0 0 -0 -1 -2 -2 -2 -1 -0 0 0 -0 -0 -1 -1 -2 -2 -2 -1 1 2 2 2 2 1 1 1 3 6 9 9 10 10 9 7 9 9 9 8 8 8 7 6
0 0 -1 -1 -2 -2 -2 -2 -2 -2 -3 -3 -3 -3 -3 -3 -4 -4 -3 -2 -1 -1 -1 -0 -0 1 1 3 5 8 11 11 9 9 9 10 10 8 9 7 7 6 6
-1 -1 -1 -1 -2 -2 -2 -2 -2 -2 -2 -2 -3 -3 -3 -3 -3 -3 -3 -3 -3 -3 -3 -3 -2 -2 -2 -1 1 5 10 11 10 9 9 9 9 9 9 9 7 7 5
-2 -1 -1 -2 -2 -2 -2 -2 -2 -2 -2 -2 -2 -2 -2 -1 -1 -1 -1 -1 -1 -2 -2 -2 -2 -2 -0 2 5 8 10 9 8 9 9 9 9 8 8 7 7 6 6
-3 -1 -1 -2 -1 -1 -1 -0 -0 -0 -0 0 0 -0 -0 0 0 0 0 1 1 1 1 1 1 0 1 1 2 5 8 9 8 7 7 7 7 7 7 6 7 7 5
-3 -2 -1 1 2 2 2 2 1 1 0 0 0 0 0 0 0 0 1 1 1 1 1 1 1 1 0 0 1 2 3 4 6 7 6 6 5 3 2 4 5 3 3
-2 -1 2 3 3 2 2 2 1 1 1 0 0 0 0 0 1 0 0 -0 -0 -1 -0 -0 -0 0 0 0 0 -0 -0 0 0 0 -0 0 1 2 3 3 3 2 2
-1 1 3 3 3 3 2 1 1 1 1 1 1 1 0 0 -0 -0 -0 -0 -0 0 0 0 -0 -0 -0 -0 -0 -0 -0 -0 0 1 1 2 2 2 2 2 2 2 2
2 3 3 3 3 3 2 1 1 1 1 1 1 1 1 0 0 0 0 -0 0 0 1 1 0 0 1 1 1 1 1 2 2 2 2 2 2 2 2 2 2 2 2
2 2 3 3 3 2 2 2 1 1 1 1 1 1 1 1 0 0 0 0 0 1 1 1 1 1 1 2 2 2 1 2 3 2 2 1 2 2 2 2 1 1 1
3 3 3 3 3 2 2 2 1 1 0 1 1 1 1 1 1 0 0 0 1 2 2 1 1 1 1 1 1 2 2 2 2 1 1 1 1 1 0 -0 -0 -1 -1
3 3 3 3 3 2 2 2 1 0 0 0 0 0 1 1 0 0 0 1 2 2 1 0 -0 -0 -0 0 1 0 0 0 -0 -0 -0 -0 -1 -4 -11 -12 -19 -26 -25
1 3 3 2 2 2 2 2 1 0 0 0 0 1 1 0 0 -0 1 1 1 1 0 -0 -1 -1 -0 -1 -1 -1 -4 -7 -11 -16 -23 -26 -29 -30 -29 -27 -29 -27 -28
-0 2 2 1 2 2 2 1 1 0 0 -0 0 1 1 0 -0 -0 1 1 1 -0 -1 -1 -2 -3 -11 -23 -29 -30 -30 -30 -30 -29 -29 -30 -30 -29 -30 -30 -30 -29 -26
-1 1 0 0 1 1 2 1 1 0 -0 -0 0 0 1 0 -0 -0 0 -0 -0 -1 -2 -3 -13 -24 -30 -32 -32 -30 -29 -28 -29 -29 -29 -30 -28 -30 -31 -31 -30 -29 -27
-3 -2 -0 -2 0 2 2 1 0 0 -0 -0 -0 0 -0 -0 -1 -0 -0 -1 -1 -2 -6 -20 -26 -27 -29 -31 -31 -31 -29 -29 -28 -28 -28 -29 -29 -32 -31 -30 -29 -27 -26
-3 -2 -2 -0 1 2 1 0 -0 -1 -1 -1 -0 -0 -1 -1 -1 -1 -1 -1 -2 -5 -20 -23 -25 -26 -26 -28 -30 -30 -28 -29 -28 -28 -28 -27 -30 -30 -30 -30 -26 -25 -22
-1 -0 0 2 1 -0 -1 -1 -1 -1 -1 -1 -1 -1 -1 -1 -2 -1 -1 -2 -2 -13 -19 -23 -26 -26 -27 -27 -28 -29 -30 -30 -28 -28 -28 -28 -29 -28 -26 -25 -24 -23 -18
0 1 2 0 -0 -1 -1 -1 -1 -1 -1 -1 -1 -1 -2 -2 -2 -1 -2 -2 -11 -18 -21 -25 -26 -27 -27 -26 -27 -29 -29 -29 -28 -27 -28 -29 -28 -26 -25 -23 -21 -18 -16
1 1 0 0 0 -1 -1 -1 -1 -2 -1 -1 -2 -2 -2 -2 -2 -2 -2 -7 -17 -20 -24 -26 -26 -26 -27 -28 -28 -27 -28 -29 -28 -28 -27 -27 -26 -26 -25 -23 -20 -18 -16
2 1 1 1 1 0 -1 -1 -1 -1 -1 -1 -2 -2 -2 -2 -2 -2 -3 -16 -19 -21 -22 -24 -26 -27 -28 -28 -29 -28 -29 -29 -29 -30 -28 -26 -25 -25 -25 -24 -23 -22 -20
3 3 2 1 1 1 0 -1 -1 -1 -1 -1 -1 -1 -2 -2 -1 -2 -7 -16 -19 -20 -21 -23 -27 -28 -29 -29 -29 -30 -30 -30 -30 -30 -28 -26 -26 -26 -25 -24 -24 -24 -23

GFSMW_850_dewp_084.txt.gz
Dewpoint
4 2 0 10 11 10 10 11 12 13 13 13 13 13 13 13 13 12 12 13 12 12 12 12 12 12 12 12 12 12 12 12 10 11 10 11 11 11 10 10 10 9 9
4 3 1 -1 9 10 10 9 9 11 11 12 13 13 12 12 12 12 11 12 12 12 12 12 12 11 11 11 11 11 11 11 11 11 12 11 7 7 10 9 8 8 8
4 4 2 -1 -1 9 9 8 8 8 9 9 11 11 11 10 11 10 10 11 11 11 10 10 10 10 10 11 11 11 11 12 12 11 11 10 8 9 9 9 7 8 7
4 4 2 -1 -1 -1 5 6 7 7 8 9 12 12 12 11 10 8 8 7 6 6 7 7 8 8 7 6 5 7 9 12 12 11 8 9 9 10 9 8 8 7 7
4 2 3 -0 -0 -1 -2 -0 2 4 8 10 9 8 7 4 2 1 -0 -1 -1 0 2 3 4 5 4 3 3 4 7 10 10 10 10 9 10 9 9 9 9 7 6
3 1 1 1 -0 -1 -1 -2 -1 1 2 2 1 -1 -2 -2 -3 -3 -3 -3 -3 -2 -1 0 1 1 0 1 1 3 6 10 11 11 10 10 10 8 8 8 8 7 8
2 1 1 0 -0 -1 -1 -2 -2 -2 -2 -2 -2 -3 -3 -3 -3 -4 -4 -4 -3 -3 -3 -2 -2 -2 -3 -2 -2 -2 0 9 10 10 10 10 9 8 8 8 8 7 7
-1 1 2 -0 -1 -1 -2 -2 -2 -2 -2 -2 -2 -2 -3 -3 -3 -3 -3 -3 -2 -2 -2 -2 -2 -2 -2 -3 -2 0 3 8 9 9 9 10 9 8 8 7 7 7 6
-3 -4 -2 -2 -0 -1 -1 -1 -1 -1 -1 -1 -2 -2 -2 -2 -1 -1 -1 -1 -1 -1 -0 -0 -0 -0 0 -0 0 1 4 8 8 8 8 8 7 6 7 6 6 6 5
-3 -3 -3 -1 0 0 -0 0 0 -0 -0 -0 -1 -1 -1 -1 -0 -0 -0 -0 -0 -0 -0 -0 0 0 0 0 1 1 2 3 5 7 8 6 6 7 6 5 3 5 4
-0 -2 -0 1 1 1 1 2 1 1 1 0 -0 -0 0 0 0 0 0 0 -0 -1 -1 -1 -1 -1 -0 0 1 0 1 1 2 3 4 5 4 1 1 3 3 3 3
1 2 1 1 1 2 2 2 2 1 1 1 1 0 0 0 0 0 -0 -0 -0 -0 -0 -0 -0 -0 -1 -0 0 0 0 0 0 0 0 0 1 2 1 2 2 2 2
2 3 3 2 2 2 2 2 1 1 1 1 1 1 1 1 0 0 0 0 0 -0 0 0 1 1 0 0 0 1 1 1 1 1 1 2 2 2 2 2 2 2 2
2 3 3 3 3 3 3 2 1 1 1 1 1 1 1 1 1 1 0 0 0 0 1 1 1 1 1 1 1 1 2 2 2 2 2 2 1 2 2 2 2 1 1
2 3 3 3 3 3 3 2 2 1 1 1 1 1 1 1 1 1 0 0 0 0 1 1 1 1 1 1 1 1 1 2 2 2 1 1 1 2 1 1 0 -0 -1
2 3 3 3 3 3 2 2 2 1 1 1 1 1 0 0 0 0 0 0 0 1 2 1 1 0 0 0 1 1 2 2 1 1 0 0 -0 -0 -2 -8 -15 -25 -28
-0 2 3 2 3 3 2 2 2 1 1 1 1 0 0 0 0 0 0 -0 1 1 1 0 -0 -1 -0 0 0 -0 -0 -0 -0 -1 -5 -13 -21 -29 -28 -29 -32 -32 -31
-1 1 2 2 3 3 2 2 2 2 1 1 0 0 0 1 1 0 -0 0 0 0 0 -0 -1 -1 -1 -2 -4 -8 -14 -21 -25 -28 -29 -29 -28 -28 -31 -31 -31 -30 -28
-1 -0 1 1 2 2 2 2 2 2 1 0 0 -0 0 0 0 0 -0 -0 -0 -1 -0 -1 -2 -5 -16 -27 -30 -31 -29 -29 -28 -29 -29 -28 -28 -30 -34 -31 -30 -29 -28
-2 -3 -0 2 2 2 2 2 2 1 1 0 0 -0 0 0 0 -0 -0 -1 -1 -1 -1 -3 -10 -21 -26 -31 -31 -30 -28 -28 -28 -28 -27 -29 -29 -32 -32 -29 -28 -27 -26
-2 -3 -0 -0 -0 0 1 1 2 1 1 0 -0 -0 -0 -0 -0 -1 -1 -1 -1 -1 -2 -10 -21 -24 -26 -28 -31 -32 -29 -28 -28 -27 -27 -27 -30 -30 -29 -29 -26 -25 -23
-2 -3 -1 -1 -2 1 1 1 0 -0 -0 -0 -1 -1 -0 -1 -1 -1 -1 -2 -2 -2 -8 -20 -23 -25 -25 -26 -29 -30 -30 -29 -27 -26 -26 -27 -29 -28 -27 -25 -24 -23 -20
-1 -1 -1 0 1 1 -0 -1 -1 -1 -1 -1 -1 -1 -1 -1 -1 -2 -2 -2 -2 -2 -13 -20 -24 -25 -26 -26 -27 -28 -29 -29 -28 -26 -26 -29 -28 -27 -26 -24 -22 -20 -17
0 1 1 1 0 -0 -1 -1 -1 -1 -1 -1 -1 -1 -1 -1 -2 -2 -3 -2 -2 -3 -17 -21 -24 -25 -26 -26 -27 -27 -27 -29 -28 -28 -27 -27 -27 -26 -25 -25 -23 -21 -19
1 1 0 -0 0 0 0 -1 -1 -1 -1 -1 -1 -1 -2 -1 -2 -2 -2 -2 -2 -11 -18 -22 -24 -25 -26 -27 -26 -26 -26 -26 -26 -26 -27 -26 -25 -25 -25 -25 -24 -23 -22
2 3 4 3 1 2 2 0 -1 -1 -1 -1 -1 -1 -1 -1 -2 -2 -2 -2 -6 -16 -19 -21 -23 -25 -27 -27 -27 -28 -28 -28 -28 -28 -28 -27 -25 -25 -26 -25 -25 -24 -24

GFSMW_850_dewp_087.txt.gz
Dewpoint
3 4 4 6 8 13 14 14 14 13 14 14 14 14 14 14 14 14 14 14 14 14 13 13 13 13 13 13 13 13 13 12 12 12 11 11 11 11 10 10 9 10 10
2 4 4 1 5 10 11 13 12 12 12 14 14 14 13 14 13 13 13 13 13 13 13 13 13 13 12 12 12 12 12 12 12 12 12 11 9 7 6 9 9 9 9
1 3 3 1 -0 5 10 10 10 11 12 13 14 13 12 12 13 13 13 13 12 12 12 12 12 12 12 11 11 12 13 13 13 12 11 11 8 7 8 9 9 8 8
3 2 3 2 -0 -0 6 9 10 9 9 9 8 7 8 11 11 12 12 7 7 8 7 7 7 8 9 9 9 11 13 13 11 11 10 10 10 10 9 8 8 9 8
4 3 4 2 1 -1 -1 3 8 8 7 8 8 6 6 9 10 7 8 4 1 -0 -1 -1 0 2 3 5 6 6 6 8 11 10 11 11 11 10 9 9 7 7 8
2 4 3 3 3 -0 -0 -1 -1 2 5 6 7 9 10 9 6 2 -1 -2 -3 -3 -3 -3 -2 -1 1 1 1 1 2 7 10 10 10 10 10 10 9 9 8 7 7
1 2 3 2 2 2 -0 -1 -1 -2 -0 2 4 5 2 -0 -2 -3 -3 -3 -3 -4 -4 -4 -3 -3 -2 -2 -2 -1 -1 -0 8 9 9 9 9 10 9 8 8 8 7
0 2 3 2 2 0 -0 -1 -1 -2 -1 -1 -1 -2 -2 -2 -2 -3 -3 -3 -3 -3 -3 -3 -3 -3 -3 -3 -2 -2 -1 -0 6 9 10 9 8 9 9 9 8 8 6
-2 0 2 2 2 2 0 -1 -1 -1 -1 -1 -1 -1 -2 -2 -2 -3 -2 -2 -2 -1 -1 -1 -1 -1 -0 -0 0 1 1 2 5 7 8 8 8 8 8 7 6 6 5
-3 -2 -1 3 3 3 1 1 1 0 -1 -1 -1 -1 -1 -1 -1 -1 -1 -1 -1 -0 -0 0 0 -0 -0 0 0 1 1 2 4 7 8 9 7 8 6 6 6 6 5
-2 -2 -0 1 2 3 2 0 1 -0 -0 0 -0 -0 -1 -1 -0 -0 -0 -0 0 -0 -0 -1 -1 -1 -1 -1 -1 0 1 1 1 4 5 6 7 6 5 3 2 3 3
1 1 1 3 2 2 1 2 1 1 1 1 0 -0 -0 -0 -0 0 0 0 -0 -0 -1 -1 -1 -1 -1 -1 -0 -0 0 1 1 1 2 2 2 1 1 1 2 2 2
2 2 2 3 3 3 2 2 2 2 1 0 -0 0 0 0 0 0 0 0 -0 -0 -0 -0 -1 -1 -0 0 0 0 0 1 1 1 1 1 1 2 1 2 2 2 2
2 2 3 3 3 3 3 2 2 2 1 0 0 0 0 1 1 1 0 0 0 0 -0 -0 -0 0 1 1 1 1 1 1 1 1 1 2 2 2 2 2 2 2 2
0 2 3 3 3 3 3 2 2 1 1 1 1 1 1 1 1 1 0 0 0 -0 -0 0 0 1 1 1 1 1 2 2 2 2 2 2 1 1 2 2 1 0 -0
-1 1 3 3 3 3 2 2 2 1 1 1 1 1 1 1 1 0 0 0 0 0 -0 0 1 1 1 0 1 1 2 2 2 2 1 1 1 1 1 0 -2 -6 -13
-1 -1 2 3 3 3 2 2 2 2 2 1 1 1 1 1 0 0 0 0 0 0 1 1 1 0 -0 -0 1 1 1 1 1 0 -0 -1 -3 -9 -23 -29 -30 -31 -32
-2 -0 -0 2 3 3 3 2 2 2 2 2 1 1 1 0 0 0 0 0 0 0 0 1 0 -1 -1 -0 -0 -0 -1 -1 -2 -5 -13 -23 -28 -28 -28 -30 -31 -30 -30
-2 -1 -1 1 3 3 3 2 2 2 2 2 1 1 0 0 0 0 0 0 0 -0 -0 -0 -1 -1 -1 -2 -8 -15 -18 -24 -27 -28 -28 -27 -27 -27 -32 -31 -29 -29 -28
-1 -1 0 1 3 3 3 2 2 2 2 2 1 1 0 0 -0 0 0 0 -0 -0 -1 -1 -1 -3 -10 -24 -31 -31 -27 -26 -27 -27 -27 -28 -28 -29 -32 -29 -28 -26 -25
-1 -1 -1 3 3 3 2 2 2 1 2 2 1 0 0 -0 -0 -0 -0 -1 -1 -1 -1 -2 -4 -11 -20 -26 -30 -31 -28 -26 -26 -27 -27 -27 -29 -31 -30 -29 -26 -24 -23
-2 -2 -2 2 2 2 1 1 0 1 1 1 0 0 -0 -0 -1 -0 -1 -1 -1 -1 -2 -2 -6 -18 -24 -25 -28 -30 -29 -27 -26 -26 -26 -27 -28 -29 -28 -27 -25 -24 -23
-1 -2 -1 0 0 -0 -1 0 1 1 -0 -0 -0 -0 -1 -1 -1 -1 -1 -1 -1 -2 -2 -2 -13 -21 -24 -25 -26 -27 -29 -29 -29 -27 -26 -27 -28 -28 -27 -26 -24 -22 -20
1 0 -0 -0 0 1 1 1 -0 -1 -1 -1 -1 -1 -1 -1 -1 -1 -1 -1 -2 -2 -2 -3 -16 -22 -26 -26 -27 -26 -27 -29 -29 -29 -28 -28 -28 -26 -26 -25 -25 -24 -21
1 1 1 1 0 -0 -0 -0 -1 -1 -1 -1 -1 -1 -1 -1 -1 -1 -1 -1 -2 -2 -2 -3 -17 -21 -26 -27 -26 -26 -26 -26 -25 -26 -26 -26 -26 -25 -24 -24 -25 -24 -23
2 1 1 1 1 1 1 2 2 0 -1 -1 -1 -1 -1 -1 -1 -1 -1 -2 -3 -2 -2 -8 -17 -21 -25 -26 -26 -26 -27 -27 -27 -27 -28 -28 -28 -26 -24 -24 -25 -25 -25

GFSMW_850_dewp_090.txt.gz
Dewpoint
3 5 5 7 10 12 13 12 13 13 14 13 13 14 13 13 12 13 13 14 13 13 13 13 14 13 13 13 13 13 13 13 12 12 12 11 9 9 8 9 10 8 9
1 4 4 5 7 9 13 13 12 12 12 13 12 12 12 12 12 12 13 13 13 14 13 14 14 13 13 13 13 13 13 13 13 12 12 11 9 8 7 7 9 9 9
1 4 4 4 5 7 10 11 12 12 11 12 13 12 11 11 12 11 12 12 13 13 12 13 13 13 14 14 14 14 13 12 11 11 12 11 10 9 8 7 7 8 8
1 3 4 3 4 6 7 10 10 10 10 11 11 11 10 9 9 9 10 8 7 9 8 10 10 10 9 9 11 13 13 12 11 11 11 10 10 10 10 7 8 8 8
1 2 4 3 2 2 5 8 9 10 10 10 9 10 8 9 8 7 6 5 7 5 2 1 0 0 0 1 2 4 7 11 12 10 10 9 8 9 10 9 8 8 8
0 2 4 3 2 0 0 2 8 9 10 9 9 8 7 8 6 7 8 6 4 -1 -3 -3 -3 -3 -2 -2 -0 1 2 2 6 8 8 8 9 8 8 9 8 8 8
-0 2 4 4 2 1 -0 -0 -1 0 4 8 9 6 9 9 10 9 5 -1 -2 -3 -3 -4 -4 -4 -3 -3 -2 -2 -1 -1 -1 4 7 8 8 9 10 8 9 8 8
-1 1 3 4 3 2 1 1 -0 -1 0 1 2 5 6 6 4 0 -2 -3 -3 -3 -4 -4 -3 -3 -3 -3 -2 -2 -1 -1 0 2 6 8 8 8 7 8 9 8 8
-3 1 1 3 2 2 2 1 -0 -1 -1 -0 0 -0 -0 -1 -2 -2 -2 -3 -3 -2 -2 -2 -1 -1 -1 -1 -0 0 1 0 1 3 6 8 8 7 7 7 6 8 7
-2 -2 1 3 2 2 2 2 0 -1 -0 0 -0 -1 -1 -2 -2 -2 -2 -2 -3 -2 -1 -1 -1 -0 -0 -0 -0 -0 0 0 1 2 8 5 7 7 6 7 8 6 6
-3 -2 -2 -1 3 3 3 3 3 0 -0 0 0 -1 -1 -1 -0 -1 -2 -2 -1 -1 -1 -1 -1 -1 -1 -2 -2 -1 -1 -0 0 1 4 6 6 6 6 7 7 6 4
0 -0 -1 -1 1 3 4 4 5 4 2 1 3 0 0 -0 -1 -2 -1 -0 -0 -0 -0 -1 -1 -1 -1 -2 -1 -1 -1 0 0 1 2 3 4 4 4 2 1 1 2
0 1 1 1 -0 2 3 3 4 4 3 2 1 1 -0 -1 -0 -0 -0 0 0 0 -0 -0 -0 -1 -1 -1 -0 -0 0 1 1 1 1 1 1 1 1 1 1 2 2
0 1 2 3 2 2 2 3 3 3 2 2 1 0 0 0 0 0 1 1 0 0 0 0 -0 -0 -0 -0 1 1 1 1 1 1 1 0 1 1 2 2 2 2 2
-2 0 2 3 3 3 3 3 3 2 2 1 1 0 1 0 1 1 1 1 0 0 0 -0 -0 -0 0 1 1 1 1 1 1 2 2 2 2 2 2 2 1 1 1
-2 -2 1 3 3 3 3 3 2 2 2 1 1 1 1 1 1 1 1 0 0 0 0 -0 -0 0 1 1 1 1 1 1 1 1 2 2 2 1 2 1 1 -1 -1
-2 -2 -1 1 3 3 3 2 2 2 2 1 1 1 1 1 1 1 1 0 0 0 0 0 0 1 1 0 -0 1 1 1 1 1 1 1 1 0 -0 -2 -7 -17 -27
-2 -2 -1 -0 1 3 3 2 2 2 2 1 2 1 1 1 1 1 0 0 0 0 0 0 1 1 -0 -0 0 0 0 0 0 0 -0 -1 -7 -17 -27 -28 -29 -29 -29
-1 -2 -2 -1 0 2 3 3 2 2 2 1 2 1 1 1 1 1 0 0 0 0 0 -0 -0 0 -1 -1 -1 -1 -1 -2 -4 -8 -16 -24 -25 -26 -29 -31 -29 -28 -28
-1 -1 -1 -1 -1 2 3 3 2 2 1 1 1 2 1 1 1 0 -0 0 0 0 -0 -1 -1 -1 -1 -2 -9 -20 -23 -24 -25 -25 -25 -26 -26 -25 -31 -31 -28 -27 -26
-2 -1 -1 -1 1 3 3 3 3 2 2 2 2 1 1 1 0 -0 -0 -0 -0 -0 -0 -1 -1 -1 -4 -13 -25 -31 -30 -25 -24 -25 -25 -24 -27 -29 -31 -30 -26 -24 -23
-1 -1 -1 1 3 3 3 3 2 2 2 2 1 1 1 0 -0 -0 -0 -0 -0 -1 -1 -1 -1 -4 -8 -16 -23 -28 -30 -27 -25 -25 -26 -25 -26 -29 -29 -29 -27 -25 -24
-1 -1 1 2 3 3 3 2 2 2 1 1 1 0 -0 -0 -0 -1 -1 -1 -1 -1 -1 -2 -2 -3 -11 -21 -23 -24 -28 -29 -26 -26 -26 -26 -26 -27 -28 -27 -26 -24 -23
1 -0 -0 1 1 2 1 1 1 1 1 -0 -0 -1 -1 -1 -1 -1 -1 -1 -1 -1 -2 -2 -2 -4 -17 -22 -23 -24 -25 -27 -29 -29 -28 -27 -27 -28 -27 -26 -25 -25 -24
1 1 1 1 1 1 1 1 -0 -0 -1 -1 -1 -1 -1 -1 -1 -1 -1 -1 -1 -1 -2 -2 -2 -5 -18 -23 -24 -25 -25 -25 -24 -24 -27 -27 -27 -26 -26 -25 -24 -24 -24
1 1 1 1 1 0 0 0 1 1 2 1 0 -1 -0 -0 -1 -1 -1 -1 -1 -2 -3 -3 -2 -5 -18 -21 -25 -25 -25 -25 -26 -26 -26 -27 -27 -27 -27 -26 -24 -25 -26

GFSMW_850_dewp_093.txt.gz
Dewpoint
4 4 3 7 13 12 13 13 13 12 14 14 14 13 12 12 12 12 13 12 12 11 11 11 12 13 13 13 13 13 12 12 12 12 12 12 12 10 6 7 9 11 8
2 5 4 4 9 12 13 13 13 12 12 12 12 14 12 12 12 12 12 12 12 12 13 14 13 13 13 13 13 13 12 12 12 11 11 9 10 8 8 7 7 10 9
1 4 5 4 4 7 11 12 12 12 12 12 12 13 13 13 12 12 12 11 11 11 11 12 12 14 14 13 12 12 12 12 12 11 10 10 10 9 9 9 8 9 8
1 2 4 4 4 3 5 9 10 10 11 11 12 12 11 11 11 11 11 10 10 10 8 5 5 5 9 13 13 13 12 12 11 11 10 10 10 11 10 9 8 9 9
0 2 3 4 4 3 5 9 11 11 10 11 10 11 11 11 10 9 9 8 6 4 4 4 4 8 5 2 1 3 5 10 11 10 10 10 10 10 9 10 9 8 8
-0 0 1 2 4 3 3 8 10 11 12 10 10 10 10 10 10 8 8 8 6 5 4 4 1 -2 -2 -3 -3 -2 -1 1 3 5 10 10 10 8 9 9 8 8 9
-0 0 1 1 3 2 1 3 6 10 10 11 10 10 10 9 9 7 8 8 9 8 3 -2 -3 -4 -4 -5 -4 -4 -3 -2 -1 -1 1 6 8 9 10 9 9 9 9
-1 0 1 3 3 2 1 1 1 2 6 9 9 9 10 8 8 9 9 8 3 -2 -3 -3 -4 -4 -4 -4 -4 -3 -2 -2 -2 -2 -1 -1 5 7 7 8 8 9 8
-3 0 2 3 4 3 1 -0 -0 -0 -0 0 4 8 9 8 8 7 5 1 -2 -2 -3 -3 -3 -3 -3 -2 -2 -1 -1 -1 -1 -0 1 3 3 6 8 7 8 6 8
-2 0 3 3 3 3 3 2 2 0 -0 -0 0 2 3 2 1 -1 -2 -2 -2 -2 -2 -2 -2 -1 -2 -1 -1 -1 -1 -1 -1 -1 0 2 5 7 5 7 8 6 7
-4 -3 -2 1 3 3 2 2 1 0 -0 1 0 1 1 -0 -1 -1 -1 -1 -1 -2 -2 -1 -1 -1 -1 -1 -1 -2 -2 -2 -2 -2 -0 2 6 6 6 6 6 6 6
-2 -2 -2 -2 -1 2 2 2 2 2 3 3 4 3 2 0 -1 -1 -1 -1 -2 -1 -0 -0 -1 -1 -1 -1 -1 -1 -1 -1 -1 -1 -0 0 3 5 5 5 5 6 5
-2 -3 -3 -2 -1 0 3 3 3 4 3 3 4 4 3 4 5 4 4 3 1 0 0 0 -0 -0 -0 -1 -1 -1 -1 -0 0 0 1 1 1 2 2 2 1 1 2
-1 -1 -2 -2 -1 1 3 4 4 5 5 5 5 5 5 3 1 0 -0 0 0 1 0 0 0 -0 -0 -0 -0 -0 0 1 1 1 1 1 1 1 1 2 2 2 2
-0 -2 -2 -2 -1 1 2 4 4 3 3 2 2 2 1 1 0 0 0 1 1 1 0 0 0 -0 -0 -0 -0 0 1 1 1 1 1 1 1 1 2 2 2 2 1
-3 -2 -2 -2 -1 0 1 2 3 3 2 2 2 1 1 1 0 1 1 1 1 0 0 0 0 -0 -0 -0 0 1 1 1 1 1 1 1 2 2 2 2 1 1 1
-2 -2 -2 -1 -1 -0 1 2 2 2 2 2 1 1 1 1 1 1 1 1 1 0 0 0 0 -0 -0 1 1 0 0 0 -0 0 0 1 1 1 1 1 1 0 -1
-3 -3 -2 -2 -1 0 2 2 2 2 2 2 1 1 1 1 1 1 1 1 0 0 0 0 0 0 1 1 -0 -0 -0 -0 -0 -0 0 0 -0 -1 -2 -6 -11 -20 -29
-1 -1 -1 -2 -0 0 2 3 2 2 2 2 1 1 1 1 1 1 1 1 0 0 0 0 0 -0 0 -0 -1 -0 -0 -0 -1 -0 -1 -2 -8 -17 -25 -26 -27 -28 -27
-2 -2 -1 -1 -1 0 1 2 3 2 2 2 2 1 1 1 1 1 1 0 -0 -0 0 -0 -1 -1 -1 -1 -1 -1 -2 -3 -6 -13 -19 -24 -23 -24 -25 -30 -29 -26 -26
-1 -2 -1 -0 -1 -1 2 3 3 3 2 2 2 2 1 1 1 1 0 -0 -0 -0 -0 -1 -1 -1 -1 -2 -5 -16 -26 -25 -24 -24 -24 -25 -26 -27 -27 -31 -27 -25 -23
-1 -1 -1 -1 -1 -0 2 3 3 3 2 2 2 2 1 1 1 0 0 -0 -0 -0 -1 -1 -1 -1 -1 -5 -12 -20 -28 -28 -25 -24 -24 -24 -25 -26 -29 -30 -29 -25 -24
-1 -0 1 1 2 3 3 3 3 3 2 2 2 1 1 0 -0 -0 -0 -1 -1 -1 -1 -1 -1 -1 -2 -6 -13 -21 -23 -29 -28 -25 -25 -24 -24 -25 -28 -29 -28 -27 -24
1 -0 0 2 3 3 3 3 3 2 2 1 1 1 -0 -0 -1 -1 -1 -1 -1 -1 -1 -1 -1 -1 -2 -6 -17 -22 -23 -25 -29 -28 -26 -25 -25 -25 -26 -27 -27 -26 -24
1 1 1 1 1 1 1 1 1 1 1 1 -0 -1 -1 -1 -1 -1 -1 -1 -1 -1 -2 -2 -2 -2 -2 -8 -19 -22 -24 -24 -23 -23 -25 -27 -27 -26 -27 -26 -24 -24 -23
1 1 1 0 0 0 0 -0 -0 -0 -0 -0 -0 -0 -0 -0 -0 -0 -0 -1 -1 -1 -2 -2 -2 -2 -2 -10 -19 -23 -24 -24 -23 -21 -23 -23 -24 -25 -25 -25 -25 -24 -24

GFSMW_850_dewp_096.txt.gz
Dewpoint
4 4 8 11 12 13 13 13 13 13 14 14 14 14 13 12 12 12 12 11 11 12 11 11 12 13 12 12 12 12 12 12 11 11 10 10 10 10 9 7 7 10 10
4 4 5 9 9 11 12 13 13 12 13 13 13 14 13 12 12 12 12 12 12 12 11 11 12 12 12 12 12 11 12 12 11 11 10 10 9 9 8 7 7 7 9
3 2 4 5 8 7 8 10 11 12 12 12 12 13 13 13 12 12 12 12 12 11 11 11 10 10 11 9 11 11 12 11 11 10 10 9 10 9 9 9 9 9 8
1 1 2 3 4 8 9 8 8 9 11 11 11 11 11 11 12 12 12 11 12 11 11 10 10 9 8 4 5 5 12 12 11 10 9 10 10 10 9 8 9 9 8
1 -0 1 2 3 4 8 12 12 12 11 12 11 11 10 11 12 12 12 11 11 11 10 10 7 4 4 7 4 7 8 8 7 8 9 9 9 9 10 10 9 9 9
1 1 1 1 3 4 5 10 10 12 12 12 12 11 10 10 10 11 11 11 11 9 8 5 7 5 4 6 3 -1 -2 -1 0 1 5 8 9 10 10 10 10 10 9
-1 1 1 1 1 2 3 3 6 11 10 10 9 10 10 10 10 10 10 9 9 8 7 8 6 4 1 -2 -4 -4 -4 -3 -3 -2 -1 1 2 9 9 8 8 9 9
-2 0 0 0 1 1 1 3 3 5 9 10 9 10 9 9 10 10 10 9 9 8 9 8 3 -2 -3 -4 -4 -4 -3 -3 -3 -3 -2 -2 -0 3 7 9 8 9 8
-1 -1 -1 0 1 1 3 3 2 2 3 7 9 9 9 9 9 9 9 9 7 6 6 1 -3 -3 -3 -4 -3 -3 -2 -1 -1 -1 -0 -0 -0 2 4 8 8 8 8
-3 -1 -1 -0 1 3 3 2 1 0 0 1 3 6 8 10 10 9 8 7 6 3 -1 -2 -1 -1 -2 -2 -2 -2 -1 -1 -1 -1 -1 -1 -0 3 4 5 7 7 7
-2 0 3 3 3 3 3 2 1 0 1 0 -0 1 3 4 4 4 3 0 -1 -1 -0 -1 -1 -1 -2 -1 -2 -1 -1 -2 -2 -2 -1 -1 -0 4 4 6 6 7 7
-3 -4 -2 -1 1 3 3 3 2 2 2 0 0 0 1 1 0 -0 -0 -0 -0 -0 -0 0 -0 -1 -1 -1 -1 -1 -1 -1 -1 -1 -1 -1 0 2 5 4 5 5 5
-3 -4 -4 -4 -4 -3 0 3 3 2 1 1 2 3 2 2 1 1 3 3 4 3 3 4 3 0 -0 -0 -0 -0 -1 -1 -1 -1 0 1 1 2 3 4 4 4 4
-2 -3 -3 -4 -5 -3 -2 1 3 3 3 3 3 3 3 3 3 4 5 5 4 2 0 -0 0 0 0 0 -0 -0 -0 -0 -0 0 1 1 1 1 2 3 3 2 2
-1 -2 -3 -3 -4 -4 -3 -1 1 3 4 4 4 4 5 6 5 5 4 2 1 0 1 1 0 0 0 -0 -0 -0 -0 -0 0 1 1 1 1 1 1 1 2 2 2
-3 -3 -3 -3 -2 -2 -3 -1 0 2 4 4 4 4 3 2 1 1 1 1 1 1 1 0 0 0 0 -0 -0 -0 0 0 1 1 1 1 0 0 1 2 2 2 2
-2 -2 -2 -2 -2 -2 -2 -2 -0 1 3 3 3 3 2 1 1 1 1 1 1 1 1 0 0 0 0 0 -0 1 1 1 0 0 0 -0 0 0 1 1 1 1 1
-3 -3 -3 -2 -2 -2 -0 0 1 2 3 3 3 2 1 1 1 1 1 1 1 1 0 0 0 0 0 0 0 0 -0 -1 -0 -0 -0 -0 0 0 0 1 1 0 -1
-1 -1 -1 -2 -2 -2 -1 1 2 2 3 3 2 2 1 1 1 1 1 1 1 1 0 0 0 0 -0 -1 0 -0 -1 -1 -1 -1 -0 -0 -0 -1 -2 -8 -17 -21 -26
-2 -2 -2 -2 -1 -2 -1 1 2 3 2 2 2 2 1 1 1 1 1 1 1 0 0 -0 -0 -0 -1 -1 -1 -1 -1 -1 -1 -1 -1 -3 -9 -17 -22 -24 -24 -23 -25
-1 -1 -2 -2 -1 -1 -1 0 2 2 2 2 2 2 1 1 1 1 1 1 1 0 -0 -0 -0 -1 -1 -1 -2 -1 -3 -9 -12 -15 -20 -23 -22 -24 -21 -24 -28 -24 -23
-1 -1 -1 -1 -0 -0 -1 -0 2 2 3 2 2 2 2 1 1 1 1 0 0 -0 -0 -0 -1 -1 -1 -1 -2 -8 -17 -25 -26 -23 -21 -22 -22 -23 -26 -28 -29 -24 -23
0 -1 0 1 -0 -1 -0 1 2 3 3 2 2 2 2 1 1 1 0 -0 -0 -1 -1 -1 -1 -1 -1 -1 -2 -9 -17 -22 -28 -25 -23 -21 -22 -22 -25 -28 -29 -28 -24
1 -0 0 2 3 3 3 3 3 3 3 2 2 2 1 1 1 -0 -0 -1 -1 -1 -1 -1 -1 -1 -1 -2 -2 -7 -18 -21 -25 -28 -26 -23 -23 -23 -24 -25 -28 -27 -25
1 1 1 1 2 3 3 3 3 2 2 2 1 1 1 0 -0 -0 -0 -0 -1 -1 -1 -1 -1 -1 -2 -1 -2 -10 -19 -21 -22 -22 -24 -25 -26 -25 -25 -25 -25 -25 -25
2 2 1 0 0 1 1 1 1 1 1 1 0 -0 -0 -0 -0 -0 -0 1 1 0 -0 -1 -2 -2 -2 -2 -3 -14 -19 -21 -21 -20 -21 -22 -24 -25 -25 -25 -25 -24 -23

GFSMW_850_dewp_099.txt.gz
Dewpoint
4 8 11 13 13 13 13 12 12 12 13 14 14 13 13 13 13 12 12 12 11 11 11 11 11 11 10 11 11 11 12 11 11 10 10 10 9 9 9 8 8 8 8
4 4 6 9 10 12 13 13 13 12 12 12 13 14 13 13 13 12 12 11 11 11 11 11 10 11 11 11 11 11 11 11 11 11 10 10 9 9 8 8 7 7 7
4 4 4 4 6 8 10 11 12 13 12 12 13 13 13 13 13 13 12 12 11 11 12 11 11 10 12 10 9 9 5 4 5 11 10 10 9 9 8 9 8 7 8
3 3 3 3 3 3 4 6 10 9 11 12 12 13 12 12 12 12 12 12 12 12 11 11 11 10 8 9 9 5 5 6 6 5 10 10 9 9 9 9 9 8 8
3 3 3 2 1 2 3 6 7 6 9 10 11 10 12 12 11 11 11 11 12 12 12 11 11 10 10 10 8 7 7 6 3 6 8 7 8 8 9 10 10 9 8
0 1 2 0 1 1 3 5 9 10 9 9 9 10 10 11 11 11 11 11 11 11 11 11 11 10 8 6 7 6 6 4 -1 -2 -1 1 7 6 8 8 8 8 8
-1 -1 0 1 0 1 2 4 6 9 11 10 11 11 10 10 10 10 10 10 10 10 10 11 10 6 7 7 5 3 -1 -2 -4 -5 -3 -1 0 6 8 6 8 9 8
-3 -2 -1 -1 1 0 1 3 4 4 6 7 8 8 8 9 10 10 10 10 10 10 10 9 8 9 8 5 -0 -3 -3 -3 -3 -4 -2 -2 -0 2 3 8 8 8 9
-2 -2 -2 -2 1 0 1 1 1 2 3 4 7 9 9 9 9 10 9 9 10 10 9 9 9 8 5 3 -2 -2 -2 -2 -2 -1 -1 -1 0 1 1 3 8 8 8
-1 -1 -2 -2 -1 0 0 1 2 2 3 3 4 4 7 9 9 10 10 10 9 9 8 7 6 5 1 -1 -1 -2 -2 -1 -1 -1 -1 -1 -0 -0 -0 5 7 7 7
-2 -2 -1 -1 -1 0 1 2 3 2 1 1 0 0 1 3 7 9 10 9 9 8 5 2 -1 -1 -0 1 -0 -1 -1 -1 -1 -1 -1 -1 -1 -1 -0 4 6 6 6
-3 -2 -0 3 3 3 3 3 2 1 1 0 1 1 1 2 4 5 5 4 2 -1 -1 -0 1 2 2 2 3 3 0 -0 -1 -1 -1 -1 -1 0 1 3 4 4 5
-3 -3 -4 -4 -1 2 3 3 3 3 2 2 2 1 1 2 2 1 0 -1 -1 -0 2 4 4 3 3 2 0 -0 -0 -0 -0 -1 -0 -0 0 0 1 1 3 3 3
-2 -3 -3 -4 -4 -4 -4 -3 1 3 3 2 2 1 2 2 1 1 0 3 4 4 4 5 5 2 0 0 0 0 -0 -0 -1 -1 -0 0 1 1 2 2 2 3 3
-2 -3 -3 -3 -3 -4 -4 -4 -2 1 3 3 3 3 3 4 3 2 3 5 5 5 4 1 0 1 0 0 0 -0 -0 -0 -0 -0 0 1 1 1 0 1 1 2 2
-3 -3 -3 -3 -3 -3 -2 -2 -2 -0 2 3 4 4 4 3 3 5 6 5 3 0 0 1 1 0 0 0 0 0 -0 -0 -0 0 1 1 1 0 -0 -0 0 1 2
-2 -2 -3 -3 -3 -2 -2 -2 -2 -0 1 3 4 4 5 5 5 4 2 1 0 1 1 1 1 0 0 0 0 0 0 0 1 0 -0 0 -0 -0 -1 -0 1 1 2
-2 -3 -3 -3 -2 -2 -2 -2 -0 1 1 2 4 4 4 3 2 1 1 1 1 1 1 1 1 0 -0 0 0 0 0 -0 -1 -0 -0 -0 -0 -0 -0 -0 1 1 1
-2 -2 -1 -2 -2 -3 -3 -2 -1 1 2 2 3 3 3 2 1 1 1 1 1 1 1 1 0 0 -0 -0 -1 -1 -0 -1 -1 -1 -1 -1 -1 -0 -0 -1 -2 -2 -1
-2 -2 -2 -3 -2 -1 -1 -2 -1 1 2 2 2 3 2 2 1 1 1 1 1 1 1 1 0 -0 -0 -0 -1 -1 -0 -1 -1 -1 -1 -1 -1 -2 -6 -13 -17 -20 -22
-1 -1 -1 -2 -2 -2 -1 -2 -1 1 1 3 2 3 2 2 1 1 1 1 1 1 1 0 -0 -0 -1 -1 -1 -2 -2 -1 -2 -3 -4 -8 -14 -19 -20 -19 -21 -23 -22
-0 -1 -1 -1 -1 0 -0 -1 -1 1 2 3 2 2 2 2 1 1 1 1 1 1 0 -0 -0 -1 -1 -1 -1 -1 -1 -7 -16 -22 -22 -21 -20 -21 -21 -23 -24 -24 -24
0 -1 -1 0 0 -1 -1 -0 1 2 3 3 2 2 2 2 1 1 1 1 0 -0 -0 -1 -1 -1 -1 -1 -1 -1 -2 -10 -17 -24 -25 -21 -19 -20 -21 -23 -26 -27 -25
1 0 -0 1 2 3 2 2 2 3 3 3 2 2 2 2 1 1 1 0 -0 -0 -0 -1 -1 -1 -1 -1 -1 -1 -3 -8 -18 -22 -26 -24 -20 -20 -21 -22 -24 -27 -25
1 1 1 1 2 3 3 3 2 3 3 2 2 2 2 1 1 1 0 -0 -0 -0 0 0 0 -1 -1 -1 -2 -2 -2 -7 -17 -18 -20 -22 -21 -22 -22 -22 -22 -23 -24
1 2 1 0 1 1 2 2 2 2 2 2 2 1 1 1 0 -0 -0 -0 0 1 1 0 -0 -1 -1 -1 -2 -2 -2 -11 -18 -18 -19 -18 -20 -23 -24 -24 -23 -23 -24

GFSMW_850_dewp_102.txt.gz
Dewpoint
10 9 11 12 12 11 10 10 10 8 9 12 12 11 9 12 13 13 12 12 12 11 11 11 11 11 11 10 10 10 10 11 11 10 10 9 10 9 8 8 7 7 6
5 8 9 10 12 11 12 12 12 12 11 11 9 10 10 12 12 12 12 12 12 12 11 11 11 10 9 9 11 11 11 10 11 10 9 8 7 8 8 8 7 7 6
2 4 6 9 10 11 11 11 12 12 12 12 11 10 12 12 13 13 12 12 12 12 11 11 12 11 10 11 12 12 9 9 8 8 8 8 8 9 9 8 8 8 8
2 2 4 4 6 7 9 10 11 12 13 12 11 11 11 11 11 12 11 12 12 12 12 12 11 12 11 9 10 10 9 8 7 7 7 7 7 10 10 8 8 8 8
2 2 3 3 3 3 4 7 10 10 11 11 11 10 10 11 12 11 11 12 13 12 12 11 11 11 12 11 10 10 10 7 7 8 7 6 4 5 8 9 9 8 8
2 1 2 3 3 2 2 3 5 9 9 8 9 10 10 11 10 11 11 11 11 12 12 11 11 12 11 12 11 9 7 7 6 3 -1 -1 3 3 5 8 7 9 9
1 1 0 1 3 2 0 1 2 4 8 9 10 10 10 9 9 10 11 11 10 10 11 11 11 10 11 9 8 7 6 2 -2 -4 -4 -4 -3 -1 0 5 8 8 7
-3 -4 -3 -0 0 1 0 1 1 3 4 6 7 9 8 9 10 10 9 9 10 10 10 10 10 10 8 8 9 4 -1 -3 -3 -3 -3 -3 -2 -1 -0 3 4 6 7
-2 -3 -4 -3 -1 -0 -0 0 1 4 4 4 4 5 6 7 8 8 8 9 10 9 10 10 10 9 8 8 6 4 1 -1 -1 -3 -2 -2 -2 -1 -0 2 2 3 6
-0 -1 -2 -2 -2 -2 -0 1 1 2 3 2 3 4 4 6 7 8 9 9 10 10 10 10 10 10 8 7 5 0 -1 -1 -1 -1 -1 -1 -1 -1 -1 -1 1 3 6
-2 -0 -0 -1 -2 -1 0 1 1 1 2 3 3 3 3 2 1 2 6 9 10 10 11 10 8 6 2 -0 0 1 -0 2 3 1 -0 -1 -1 -1 -0 -0 -0 2 5
-2 -2 -1 1 1 0 -0 1 1 2 3 2 1 1 0 0 1 4 7 9 10 9 8 5 0 -1 1 3 3 3 3 2 0 -0 -0 -0 -1 -0 -0 0 1 3 4
-3 -4 -4 -3 1 3 3 2 3 2 2 2 2 1 1 1 1 3 5 6 5 2 0 -0 1 4 4 4 4 2 0 0 0 -0 -0 -0 -0 -0 0 1 1 2 3
-3 -3 -4 -4 -4 -4 -2 -0 1 3 3 3 3 2 2 2 2 2 1 0 -0 -0 0 4 4 5 4 4 3 0 0 0 -0 -0 -0 -1 -0 0 0 1 1 2 2
-2 -3 -3 -3 -3 -4 -4 -4 -4 -3 -0 3 3 3 2 2 2 1 1 0 1 5 5 5 4 2 1 0 0 0 0 0 -0 -0 -0 -0 -0 0 0 0 0 0 1
-1 -3 -3 -3 -3 -3 -3 -3 -3 -3 -2 0 3 3 3 3 3 3 2 2 3 6 4 2 0 1 1 0 0 -0 -0 -0 0 0 -0 -0 0 0 0 -0 -0 -0 1
-1 -2 -2 -2 -3 -2 -2 -2 -2 -2 -2 -0 2 4 4 4 4 3 3 4 5 2 0 0 1 1 1 0 0 -0 -0 -0 0 0 0 0 0 0 0 0 -0 -0 0
-1 -2 -2 -3 -3 -3 -2 -2 -2 -1 -1 0 2 4 4 4 4 4 5 4 1 1 1 1 1 1 1 0 -0 -0 -0 -0 0 -0 -0 -0 -0 -0 -0 -0 -0 0 0
-2 -2 -2 -3 -3 -3 -3 -3 -2 -2 -0 0 1 3 4 4 4 4 2 1 1 1 1 1 1 1 0 -0 -0 -0 -0 -0 -0 -1 -1 -1 -1 -0 -0 -0 -1 -1 -0
-1 -1 -1 -2 -2 -2 -2 -1 -2 -2 -2 0 1 3 4 3 3 2 1 1 1 1 1 1 1 0 -0 -0 -0 -0 -1 -1 -1 -1 -1 -1 -1 -1 -1 -3 -5 -8 -13
-1 -1 -1 -1 -2 -2 -2 -2 -2 -1 -2 1 2 3 3 3 2 1 1 1 1 1 1 1 0 -0 -0 -1 -1 -1 -1 -1 -1 -2 -2 -2 -3 -7 -13 -19 -19 -20 -21
0 -0 -1 -1 -1 -1 -1 -0 -1 -1 -0 2 3 3 3 3 2 1 1 1 1 1 1 0 -0 -1 -1 -1 -1 -1 -1 -1 -3 -8 -17 -19 -19 -20 -20 -21 -20 -21 -24
1 0 -1 1 1 0 -0 -0 0 -0 2 3 3 3 3 2 2 1 1 1 1 1 0 -0 0 -0 -1 -1 -1 -1 -1 -1 -2 -13 -19 -24 -22 -19 -19 -21 -20 -22 -26
1 1 0 1 2 3 1 0 1 2 2 3 3 2 2 2 2 1 1 1 1 0 -0 0 0 0 0 -0 -1 -1 -1 -1 -3 -8 -17 -22 -24 -21 -20 -20 -20 -22 -25
1 1 1 1 2 2 3 3 3 3 3 3 2 2 2 2 2 1 1 1 1 -0 0 0 1 1 0 -1 -1 -1 -1 -1 -3 -7 -15 -17 -20 -22 -21 -22 -21 -21 -22
1 1 1 1 1 2 2 2 2 2 2 3 2 2 2 2 1 1 1 0 -0 -0 0 1 1 0 0 -1 -1 -1 -1 -2 -2 -7 -16 -19 -18 -20 -22 -23 -22 -22 -22

GFSMW_850_dewp_105.txt.gz
Dewpoint
10 11 10 10 10 7 7 7 6 6 7 11 12 11 12 11 11 10 9 11 11 11 11 11 11 11 11 11 11 10 11 11 11 11 10 8 8 6 6 3 6 6 7
11 10 10 11 9 8 7 8 8 8 8 9 11 11 11 11 12 11 11 10 10 12 11 11 11 11 10 10 11 11 11 12 11 9 8 9 8 8 7 7 6 7 6
3 7 10 10 10 11 9 8 9 9 8 9 8 9 8 10 12 10 12 11 11 12 12 11 11 11 12 10 10 10 11 11 10 9 8 9 8 8 8 8 8 7 6
3 3 4 10 10 10 11 11 11 11 10 9 10 10 9 8 10 10 9 12 11 11 11 12 12 12 13 12 11 10 11 10 9 9 8 8 8 9 9 7 7 9 9
3 2 2 4 7 9 9 10 11 11 10 8 11 12 11 10 11 9 11 11 11 12 12 12 12 12 12 11 11 11 11 9 8 9 7 6 7 5 8 10 7 7 8
2 1 1 2 3 4 6 9 10 10 11 10 10 11 11 11 11 10 10 11 11 11 11 12 11 11 11 11 11 12 10 8 9 8 6 4 -0 -2 1 5 6 8 8
1 0 1 1 2 3 3 3 3 5 8 9 10 9 10 10 10 10 10 10 10 10 10 10 11 11 11 11 11 11 8 8 7 5 -2 -3 -3 -2 -2 0 5 6 7
-1 -0 2 1 2 3 3 2 0 1 3 5 8 9 9 9 9 9 9 10 10 10 10 10 10 10 11 11 11 9 8 7 1 -2 -2 -2 -2 -2 -1 -1 1 5 6
-2 -2 -2 -0 0 1 2 1 0 0 1 3 6 7 7 7 6 7 7 8 8 8 10 9 10 11 11 8 8 8 3 1 -0 -1 -2 -2 -2 -2 -1 -1 1 3 5
1 -1 -3 -4 -4 -1 0 1 0 1 2 4 5 5 5 6 6 6 7 7 8 8 9 10 10 10 9 8 8 6 6 2 -1 -1 0 2 1 0 -1 -1 -0 0 3
1 2 0 -2 -2 -1 -0 -0 0 1 2 3 2 2 3 4 5 5 5 6 8 10 11 11 11 10 10 9 6 2 0 0 0 3 3 1 -0 -0 -0 -0 -0 0 2
-1 1 2 2 -1 -1 -1 -0 1 1 1 1 3 3 3 2 1 2 3 5 8 10 10 10 10 9 5 0 0 2 3 3 3 1 -0 -0 -0 -0 -0 -0 0 0 3
-2 -3 -2 2 3 2 1 1 1 2 2 3 3 2 1 0 1 1 4 7 9 10 10 9 5 0 0 3 4 4 3 1 0 -0 -0 -0 -0 -0 -0 -0 0 1 1
-2 -3 -3 -3 -3 -1 2 3 3 3 3 2 2 2 2 2 2 2 4 7 8 7 4 1 0 3 5 5 4 2 1 0 -0 -0 -0 -0 -0 -0 -0 0 0 1 1
-2 -3 -3 -3 -3 -3 -3 -3 -3 -2 1 2 3 3 3 2 2 2 3 3 1 1 0 2 4 5 4 2 1 0 0 -0 -0 -0 -0 -0 -0 -0 -0 0 0 0 0
-1 -1 -2 -3 -3 -3 -3 -3 -3 -3 -3 -2 2 3 3 2 2 2 1 1 1 1 5 5 4 2 0 1 1 0 0 -0 -1 -0 -0 0 0 0 0 0 -0 -0 -0
-1 -1 -2 -2 -2 -3 -3 -2 -2 -2 -2 -2 1 3 3 3 3 3 2 2 1 3 5 4 1 1 1 1 1 0 -0 -1 -1 -1 -0 0 0 -0 -0 -0 -0 -0 -1
-0 -1 -2 -2 -3 -3 -3 -2 -2 -2 -2 -1 -1 1 3 4 4 4 4 3 3 5 4 1 1 1 1 1 0 -0 -1 -1 -1 -0 -0 -0 -0 -0 -0 -0 -0 -0 -0
-1 -1 -2 -2 -2 -2 -2 -2 -3 -3 -2 -1 -1 0 2 4 4 4 3 4 5 3 1 1 1 1 1 0 -0 -1 -1 -1 -1 -1 -1 -1 -0 -0 -0 -0 -0 -1 -1
-0 -1 -1 -1 -1 -2 -2 -2 -2 -1 -2 -3 -1 1 2 3 4 4 4 4 2 1 1 1 1 1 1 -0 -0 -1 -1 -1 -1 -1 -1 -1 -1 -1 -1 -1 -2 -4 -6
-1 -1 -1 -1 -1 -2 -2 -3 -3 -3 -2 -1 -0 2 2 3 4 4 3 2 1 1 1 1 1 1 -0 -0 -0 -1 -1 -1 -1 -1 -1 -2 -2 -1 -2 -6 -15 -17 -18
1 1 0 -1 -1 -0 -1 -1 -1 -0 -1 -1 0 2 3 4 3 3 2 1 1 1 1 1 0 -0 0 0 -0 -1 -1 -1 -1 -2 -5 -13 -15 -16 -18 -20 -21 -20 -20
1 1 0 -1 0 1 1 -0 0 0 -1 -0 2 3 3 3 3 2 2 1 1 1 1 1 -0 0 0 0 0 -0 -1 -1 -1 -1 -8 -15 -21 -21 -19 -18 -20 -20 -22
1 1 1 1 2 2 2 1 1 1 1 2 3 3 3 3 3 2 2 1 1 1 1 0 0 0 0 0 0 -0 -1 -1 -1 -1 -4 -11 -17 -23 -22 -19 -19 -20 -21
1 1 1 1 2 2 2 2 2 2 3 3 3 3 2 2 2 2 2 1 1 1 1 0 0 0 1 0 0 -1 -1 -1 -1 -2 -3 -7 -14 -17 -22 -19 -20 -20 -20
1 1 1 1 1 1 2 2 2 2 3 3 2 2 2 2 2 2 1 2 2 1 0 0 0 1 1 0 0 -0 -1 -1 -1 -2 -2 -4 -14 -18 -18 -20 -21 -21 -21

GFSMW_850_dewp_108.txt.gz
Dewpoint
10 10 11 12 12 10 10 11 10 10 12 12 13 12 11 10 8 5 5 7 7 9 10 10 10 11 10 11 11 11 10 10 11 10 10 10 8 9 7 6 5 6 3
10 9 11 11 11 11 10 9 9 8 8 9 11 12 12 12 11 11 8 8 8 10 11 12 11 11 11 11 11 11 10 11 11 11 8 9 10 10 7 7 7 7 6
10 10 12 11 10 11 10 9 9 9 7 7 9 10 11 11 12 11 12 12 11 11 12 12 12 12 11 12 12 12 11 11 11 9 9 10 9 9 9 8 8 8 8
7 10 11 11 7 7 10 10 9 9 9 7 7 9 9 8 9 9 11 10 9 10 11 11 11 11 11 12 12 12 11 11 10 8 10 9 9 10 10 9 7 7 6
4 6 9 11 10 9 7 9 10 9 9 7 6 8 8 9 10 10 9 9 9 8 8 8 10 11 12 12 12 12 11 11 9 6 8 9 8 9 10 9 7 6 5
4 4 5 6 9 10 10 10 11 10 11 11 10 8 8 9 10 9 9 8 8 8 9 9 10 11 11 11 11 12 12 11 9 7 8 9 9 8 8 8 7 8 8
4 4 3 2 2 5 9 10 9 10 11 11 11 10 10 11 10 10 9 9 10 9 9 10 10 10 10 11 11 12 12 11 11 9 8 7 3 -1 -1 -0 2 7 7
2 2 1 1 1 2 4 5 8 9 10 10 11 10 11 11 11 11 10 10 10 10 10 10 10 10 10 10 11 12 12 10 9 8 7 -1 -2 -1 -2 -1 2 6 6
1 3 1 -0 1 1 3 3 3 3 3 8 9 9 9 9 9 10 10 10 9 9 9 9 9 9 9 12 11 11 11 8 7 3 -1 -1 -1 -1 -1 0 -0 1 5
-1 1 2 -0 1 1 1 2 3 1 1 2 4 8 9 9 9 9 9 9 8 9 9 9 10 10 11 11 10 8 8 5 2 1 -0 -1 1 2 2 0 -0 0 1
1 1 -1 -2 -2 -1 -2 0 2 1 1 2 3 5 6 7 7 7 7 7 8 8 9 10 11 11 11 9 9 7 5 5 2 -0 0 2 2 1 -0 -0 -0 0 1
2 2 2 -1 -1 -2 -2 0 1 1 1 2 4 3 3 3 4 5 5 6 7 8 9 10 11 11 10 9 8 7 2 0 1 3 3 1 0 -0 -0 -0 -0 0 1
-1 0 3 2 0 1 1 0 0 1 2 3 2 2 3 4 3 2 2 3 4 6 9 10 10 10 10 8 2 1 3 4 3 1 0 -0 -0 -0 -0 -0 -0 0 1
-1 -2 -2 0 3 2 2 2 2 2 3 3 4 3 2 1 1 1 2 3 6 9 10 10 9 8 4 0 2 4 4 3 2 0 -0 -0 -0 -0 -0 -0 -0 0 0
-1 -2 -2 -3 -3 -3 -0 2 3 3 3 3 2 2 2 2 2 2 2 4 8 9 10 9 6 1 1 4 4 3 1 0 0 -0 -0 -1 -1 -1 -0 -0 0 0 0
-0 -1 -2 -2 -2 -3 -3 -3 -3 -2 -0 2 3 3 3 3 2 2 3 4 6 6 4 1 1 3 5 3 2 0 0 0 -0 -0 -1 -1 -0 0 0 0 0 0 -0
0 -1 -1 -2 -2 -2 -2 -2 -2 -3 -3 -2 -1 1 3 3 3 3 2 2 2 1 0 2 5 5 3 1 1 1 0 -0 -0 -1 -1 -1 -0 0 0 0 -0 -0 -0
0 -0 -1 -2 -2 -2 -2 -2 -2 -1 -2 -2 -2 -1 1 3 3 3 2 2 1 1 2 4 5 3 1 1 1 1 0 -0 -1 -1 -1 -0 0 0 0 -0 -0 -0 -0
-1 -1 -1 -1 -1 -2 -2 -2 -2 -3 -2 -1 -1 -1 1 3 3 3 3 3 2 2 3 4 2 0 1 1 1 0 -0 -1 -1 -1 -1 -0 -0 -0 -0 -0 -0 -1 -1
-0 -1 -1 -1 -1 -2 -2 -2 -2 -2 -2 -2 -2 0 1 2 3 4 4 4 3 3 4 2 1 1 1 1 0 -0 -1 -1 -1 -1 -1 -1 -1 -1 -1 -1 -1 -1 -2
1 0 0 -0 -1 -1 -2 -2 -2 -3 -2 -2 -1 -0 2 3 4 4 4 4 4 4 2 1 1 1 1 0 -0 -0 -0 -1 -1 -1 -1 -1 -1 -1 -1 -1 -2 -7 -13
2 1 1 0 -0 -1 -1 -1 -2 -2 -2 -1 -2 -1 1 3 4 4 4 4 4 2 1 1 1 1 0 -0 0 0 0 -0 -1 -1 -1 -3 -8 -8 -7 -12 -19 -21 -20
1 1 1 0 0 1 2 1 -1 -0 0 0 -1 -0 2 3 4 4 4 3 2 1 1 1 1 0 0 0 0 0 -0 -1 -1 -1 -1 -4 -13 -19 -21 -20 -19 -21 -21
1 1 1 1 1 2 2 2 1 1 1 0 1 2 3 3 4 3 3 2 1 1 1 1 1 0 0 0 0 0 -0 -1 -1 -1 -1 -2 -7 -15 -22 -22 -20 -19 -20
1 1 1 1 1 2 2 2 2 2 2 2 3 3 3 3 3 3 2 2 1 1 1 1 1 0 0 0 0 0 -0 -1 -1 -1 -1 -1 -3 -10 -15 -21 -19 -19 -20
1 1 2 1 0 1 2 2 2 3 3 3 3 3 3 3 3 2 2 2 2 2 1 1 2 1 1 1 1 0 0 -1 -1 -1 -1 -2 -2 -6 -15 -17 -19 -20 -21

GFSMW_850_dewp_111.txt.gz
Dewpoint
12 11 11 11 11 12 13 14 13 13 13 11 10 9 8 10 12 12 12 13 13 11 11 12 13 12 13 12 12 12 11 11 11 12 11 11 11 12 11 11 9 9 5
12 11 11 11 10 10 11 13 13 13 13 13 11 9 11 10 10 10 11 12 12 12 13 14 13 13 13 13 13 12 12 12 11 10 11 9 8 10 10 10 8 8 6
10 11 11 11 10 10 10 11 10 13 13 13 13 13 13 13 12 12 11 7 8 8 10 12 12 12 12 12 12 12 11 11 10 10 9 8 9 9 10 9 8 8 7
10 7 8 11 10 9 9 9 8 10 10 12 11 10 11 12 11 11 11 12 11 11 11 11 12 12 11 11 11 12 12 11 10 10 9 7 8 9 10 10 10 8 7
11 10 8 11 11 8 6 7 9 10 10 10 10 10 9 9 9 8 9 10 11 10 9 8 10 10 9 10 11 11 12 12 9 10 9 8 8 9 9 9 9 8 7
8 9 10 11 11 9 7 10 8 10 10 10 9 9 8 7 6 7 7 9 9 9 9 9 8 8 8 7 9 11 11 11 11 10 9 7 9 10 9 9 8 7 7
6 6 7 9 10 10 8 9 8 7 10 8 8 8 8 6 6 7 7 7 6 8 8 8 9 9 8 9 11 11 11 10 11 11 10 8 9 9 8 3 1 3 4
4 5 5 5 7 9 8 9 10 8 9 10 9 8 8 7 7 8 7 6 9 10 7 8 10 8 9 10 10 11 11 11 12 11 11 9 9 7 -2 -1 -0 3 6
-0 4 4 4 3 2 7 10 8 9 10 10 10 10 10 10 10 11 10 8 9 8 8 9 10 10 10 10 11 11 11 12 12 11 10 9 5 -2 -1 -1 -0 2 6
1 2 2 2 3 4 4 4 6 9 9 9 10 9 10 10 11 10 11 11 11 10 9 10 10 10 10 11 11 12 12 11 10 9 8 1 -0 -0 -1 2 2 2 3
3 3 3 2 0 1 2 4 4 5 5 6 5 8 8 9 9 9 9 10 9 9 9 9 9 10 10 11 11 11 11 10 9 5 2 1 -0 0 2 2 1 1 4
2 4 3 -0 -1 -1 0 1 2 3 4 5 3 4 7 9 9 9 9 9 9 9 9 9 10 11 11 11 11 10 9 6 5 4 1 0 2 2 1 -0 0 2 2
-1 1 3 4 1 -1 0 1 2 3 4 2 3 5 7 7 7 7 7 7 8 8 9 9 10 11 11 11 9 8 7 5 1 1 3 3 1 0 -0 -0 0 1 2
-1 -1 0 3 4 4 2 2 3 3 4 5 4 5 4 5 5 4 4 3 4 6 8 10 10 10 10 9 8 7 2 2 4 3 2 1 0 -0 -0 -0 -0 -0 0
-0 -1 -1 -0 1 3 4 4 4 3 3 4 4 5 5 4 2 1 1 2 4 5 9 9 10 9 9 8 3 1 4 4 3 1 0 -0 -0 -0 -0 -0 -0 0 1
0 0 -1 -1 -0 0 -1 1 3 4 4 4 4 3 2 2 2 2 3 3 5 8 9 9 9 9 6 1 3 4 3 1 0 0 -0 -1 -1 -1 -0 -0 0 0 0
1 1 -1 -1 -2 -2 -2 -1 -2 -2 -0 1 2 3 3 3 3 3 4 5 6 8 9 8 6 2 1 4 4 2 1 0 0 -0 -1 -1 -1 -1 -0 0 0 -0 -0
0 0 1 -1 -2 -2 -2 -2 -2 -1 -2 -2 -2 -1 1 2 3 3 3 4 5 6 5 3 1 2 5 4 2 1 1 0 -0 -1 -1 -1 -1 -1 0 0 0 -0 -0
1 1 1 -0 -1 -1 -2 -2 -2 -3 -2 -1 -1 -1 -0 1 2 3 3 3 2 2 1 1 3 4 4 2 1 1 1 0 -1 -1 -1 -1 -1 -0 -0 -0 -0 -0 -1
2 1 0 1 1 -0 -1 -2 -2 -2 -2 -2 -2 -2 -0 0 1 3 3 3 2 2 1 2 3 3 2 1 1 1 -0 -1 -0 -0 -0 -1 -1 -0 -0 -1 -1 -1 -1
3 2 2 1 1 -0 -1 -1 -1 -2 -2 -2 -2 -2 -1 1 2 2 3 3 3 3 3 3 3 2 1 1 1 0 -0 0 -0 -0 -1 -1 -1 -1 -1 -1 -1 -2 -4
2 2 2 1 0 -0 -1 -0 0 -1 -1 -1 -2 -2 -1 -0 2 2 3 4 4 4 3 4 3 1 1 1 1 0 0 0 -0 -1 -1 -1 -2 -3 -2 -2 -4 -12 -19
1 1 1 1 1 1 1 2 2 1 -0 0 1 0 -1 0 2 3 4 4 4 4 4 4 2 1 1 1 -0 0 0 0 -0 -1 -1 -1 -3 -11 -17 -19 -20 -20 -20
1 1 1 1 1 1 2 2 2 1 1 1 1 1 1 1 3 3 4 4 4 4 4 1 1 1 1 0 0 0 0 -0 -1 -1 -1 -1 -2 -4 -11 -18 -21 -21 -19
1 1 1 1 1 1 2 2 2 2 2 2 2 2 2 3 3 4 4 4 4 3 1 1 1 1 1 0 0 1 0 0 -1 -1 -1 -1 -1 -2 -6 -13 -20 -21 -18
1 0 1 2 2 1 0 2 2 2 3 3 3 3 3 3 4 3 3 3 2 2 1 1 1 1 0 0 1 1 0 -0 -1 -1 -1 -1 -2 -2 -3 -9 -16 -19 -20

GFSMW_850_dewp_114.txt.gz
Dewpoint
10 10 8 9 8 8 7 7 9 12 11 12 12 10 11 11 10 10 10 5 3 3 6 11 13 12 11 11 11 11 11 10 11 11 11 10 11 10 11 11 10 7 7
11 10 10 10 10 11 11 9 10 11 10 10 12 12 12 12 11 10 10 9 9 8 6 11 12 12 11 12 12 12 11 11 11 11 10 10 8 10 11 10 9 9 8
11 10 11 11 11 11 11 11 12 12 10 8 8 10 13 13 13 13 13 12 12 12 12 11 12 11 12 12 12 12 12 11 11 10 10 9 7 9 10 10 8 9 8
10 10 8 10 11 11 10 11 10 12 12 11 9 9 9 9 9 8 8 8 8 8 9 11 12 11 11 11 11 11 11 12 11 10 10 10 10 9 9 10 10 9 9
10 10 7 6 7 7 9 10 9 10 11 11 10 9 9 9 12 12 12 11 11 11 11 10 10 11 10 10 10 10 11 11 11 10 8 10 10 9 9 9 9 9 7
10 8 6 6 7 7 7 8 8 8 10 11 10 10 9 10 10 9 9 10 11 10 10 9 9 9 8 9 8 7 8 9 7 8 10 9 10 8 9 9 9 7 7
10 9 8 10 9 8 8 7 7 7 9 9 9 10 9 8 9 8 8 8 7 7 6 7 7 7 8 9 9 9 8 8 9 10 11 10 11 9 9 9 8 5 3
6 8 10 11 8 9 9 8 8 8 7 7 8 8 8 9 9 9 8 7 7 8 5 4 5 6 6 8 9 8 9 10 10 11 12 11 11 9 9 8 1 -0 -0
5 5 5 6 7 8 9 9 10 9 8 7 8 8 9 9 9 9 9 7 7 8 8 6 5 5 8 10 10 9 10 10 12 11 11 11 11 10 9 2 -1 -1 2
2 4 5 4 4 3 8 9 9 7 7 7 9 9 9 9 8 8 9 8 5 5 7 6 7 8 10 10 10 10 10 11 11 12 11 10 10 9 1 -0 -1 1 2
4 3 2 2 4 4 4 4 7 9 9 8 10 10 9 9 10 9 8 5 9 9 8 8 9 10 10 10 9 9 9 11 11 10 10 9 7 0 1 -0 2 2 1
3 4 3 2 1 3 3 4 5 6 8 9 8 9 9 9 9 9 9 9 9 9 9 11 11 10 11 10 10 10 11 10 10 10 9 3 2 1 1 2 2 0 1
-0 2 4 4 3 2 1 3 4 4 6 8 6 4 6 6 8 8 9 9 9 9 9 8 8 9 11 11 10 11 10 10 9 7 4 2 1 3 2 1 0 0 1
-1 -1 1 3 4 4 4 4 4 5 3 4 5 6 8 7 7 7 7 7 8 8 8 9 9 10 10 10 11 11 10 7 7 4 1 3 3 2 1 -0 -0 -0 -0
0 -1 -1 1 2 4 4 5 5 5 6 6 5 5 5 6 6 6 6 6 7 6 6 7 8 10 10 9 9 8 7 6 1 3 4 2 0 -0 -0 -1 -1 -1 -0
0 -0 -1 -1 -0 1 2 4 4 5 5 5 5 4 5 6 6 5 3 3 3 4 6 8 9 9 9 9 9 7 2 3 4 3 1 0 -0 -0 -1 -1 -0 -0 0
1 1 1 0 -1 -1 -1 -0 -0 3 4 4 5 5 5 4 3 3 3 3 3 4 7 8 8 8 8 8 5 2 4 3 1 0 0 -0 -1 -1 -1 -1 -0 0 0
1 1 1 -0 -0 -1 -1 -2 -2 -1 -0 0 1 2 3 3 3 3 3 4 4 5 7 8 8 8 7 3 2 4 2 1 1 0 0 -1 -1 -1 -1 -1 -0 -0 -0
1 1 0 1 1 -0 -1 -1 -2 -2 -2 -2 -1 -1 -1 -0 1 2 2 3 3 5 7 8 8 5 1 3 4 3 1 1 1 0 -1 -1 -0 -1 -1 -1 -0 -0 -0
2 2 2 1 -0 -0 -1 -1 -2 -2 -2 -2 -2 -2 -2 -1 -0 1 2 3 3 3 4 3 2 1 4 4 3 1 1 1 0 -1 -0 -0 -0 -1 -1 -0 -1 -0 -1
2 3 3 2 1 1 -0 -1 -1 -1 -1 -2 -2 -2 -1 -1 0 1 1 3 3 3 2 1 2 3 4 3 2 1 1 0 -0 0 -0 -0 -1 -1 -1 -1 -1 -1 -1
1 1 1 1 1 1 0 0 -0 -1 -1 -1 -1 -1 -1 -1 -0 1 2 3 3 3 2 2 2 3 3 3 1 1 1 -0 0 -0 -0 -1 -1 -2 -2 -3 -3 -2 -4
2 1 1 1 1 1 1 1 2 2 1 -0 -0 1 1 1 1 2 3 3 3 3 3 3 3 3 3 3 1 1 0 0 0 -0 -1 -1 -1 -2 -4 -11 -16 -18 -19
2 1 1 1 1 1 1 2 2 2 2 1 1 1 2 2 1 2 3 4 4 4 4 4 3 3 2 1 1 1 0 0 0 -0 -1 -1 -1 -2 -2 -5 -12 -18 -21
1 1 0 1 1 1 1 1 2 2 2 2 2 2 2 3 2 2 3 4 4 4 4 4 3 3 2 1 1 0 0 0 1 1 -0 -1 -1 -1 -2 -2 -8 -16 -21
1 1 0 0 1 1 1 1 1 2 2 3 3 3 2 2 2 2 3 4 4 4 4 3 2 1 1 1 1 0 0 2 2 1 0 -1 -1 -1 -2 -2 -3 -11 -17

GFSMW_850_dewp_117.txt.gz
Dewpoint
11 10 10 10 9 9 10 10 10 9 10 11 10 11 11 11 11 10 10 10 9 7 6 3 3 4 5 5 7 8 9 10 10 11 10 10 11 11 11 11 10 11 10
10 10 10 10 10 10 10 9 10 9 11 11 10 10 9 10 10 11 10 9 6 5 5 8 9 9 9 9 10 10 10 10 10 10 11 11 10 11 11 11 10 10 7
9 10 9 10 11 10 10 10 11 11 10 12 11 10 10 9 9 9 8 6 4 4 7 11 12 11 11 11 12 12 11 11 10 10 11 10 9 9 10 11 10 8 9
8 7 10 10 11 11 11 11 10 10 10 11 12 11 11 11 11 9 9 9 9 10 9 11 12 12 12 12 11 12 11 10 11 11 11 11 10 9 10 10 10 10 9
8 10 10 10 9 10 11 11 12 11 9 7 10 10 9 9 10 9 11 12 12 12 11 10 10 11 11 11 10 10 10 11 11 11 10 7 9 10 9 9 9 10 9
10 9 8 8 8 10 8 11 10 11 10 8 8 9 8 8 8 12 12 13 13 12 11 9 10 10 10 10 9 9 9 8 10 10 10 6 6 8 10 9 9 9 8
10 9 8 8 8 8 8 9 10 11 11 9 7 8 6 7 7 8 9 9 10 10 10 10 9 9 9 7 8 7 7 7 9 9 9 8 7 8 11 10 9 9 8
9 10 9 8 8 7 8 8 9 10 9 11 9 8 9 8 8 9 8 8 8 8 8 8 8 8 7 7 6 6 5 6 7 9 9 9 10 11 11 11 9 9 3
6 7 8 9 9 8 9 9 8 8 8 8 10 10 10 10 10 9 9 9 9 9 8 7 7 7 7 7 7 8 6 7 9 10 10 10 11 11 11 10 9 6 0
3 4 6 6 7 8 9 10 9 9 8 8 8 8 7 7 8 8 8 9 8 8 9 8 8 8 8 9 8 8 8 9 10 10 10 11 11 11 10 9 6 -0 0
4 3 3 3 4 4 4 6 9 9 9 9 8 8 9 9 9 8 7 9 9 8 7 8 8 8 8 8 9 8 9 8 10 11 10 11 11 10 9 4 0 0 2
4 4 3 2 2 3 5 5 7 9 9 8 9 9 9 10 10 10 9 9 8 8 7 7 8 7 9 9 9 10 10 10 9 10 11 10 10 9 2 1 1 2 2
1 3 4 4 2 1 4 5 6 7 8 9 10 10 9 9 9 8 8 8 9 8 7 8 9 8 8 9 10 11 10 10 10 10 10 9 8 3 2 2 3 2 1
-1 1 2 4 5 4 4 3 4 6 7 7 6 8 6 7 7 7 7 6 7 7 7 8 8 9 10 10 10 10 9 10 10 10 9 6 4 2 3 2 2 0 -0
0 -0 -0 1 2 3 5 5 5 5 7 8 6 5 5 5 5 7 6 6 7 7 8 9 9 10 10 10 10 10 10 10 9 7 6 2 3 3 1 -0 -0 -1 -1
1 1 0 -1 -0 1 1 3 5 5 5 5 6 6 5 5 5 4 6 7 7 6 6 6 7 8 9 9 9 9 9 8 7 5 2 3 2 0 -0 -1 -1 -1 -1
1 1 1 0 -1 -1 -1 -0 1 2 4 5 6 6 5 4 4 5 6 4 4 3 3 4 6 9 9 9 9 8 8 6 2 3 3 1 0 -0 -1 -1 -1 -1 -1
1 1 0 0 0 -0 -1 -1 -2 -1 -0 0 1 3 3 4 4 3 3 3 3 4 4 6 7 8 8 8 8 7 4 3 3 2 1 0 0 -1 -1 -1 -1 -1 -1
2 2 2 1 1 -0 -1 -1 -2 -2 -2 -2 -2 -1 -1 0 1 2 3 3 3 4 4 6 7 7 7 8 7 2 4 3 2 1 0 0 -1 -1 -0 -1 -1 -1 -0
1 2 3 2 1 1 0 -1 -1 -1 -2 -2 -1 -1 -1 -1 0 1 1 2 3 4 5 6 7 7 7 5 2 4 3 2 1 1 0 -0 -0 -0 -0 -1 -1 -1 -1
2 1 1 1 1 1 1 0 -0 -0 -1 -1 -1 -2 -2 -1 -1 0 1 2 2 3 4 4 5 5 3 2 3 3 2 1 1 1 -0 -0 -0 -1 -1 -1 -1 -1 -1
2 1 1 1 1 1 1 1 1 1 1 0 -0 -1 -1 -1 -1 0 1 2 3 3 3 3 2 2 2 3 3 3 2 1 1 -0 -0 -0 -1 -1 -1 -2 -2 -2 -2
1 2 1 1 1 1 1 1 1 2 2 2 1 -0 -0 -0 0 0 1 2 3 3 3 2 2 2 2 3 3 2 1 1 1 -0 -0 -0 -1 -1 -2 -3 -8 -11 -12
-2 1 1 1 1 1 1 1 1 1 1 2 2 2 2 2 2 2 2 3 3 3 3 3 2 2 3 3 3 2 1 1 0 -0 -0 -1 -1 -1 -2 -2 -4 -10 -15
-3 -0 0 -0 0 0 0 1 1 1 2 2 3 3 2 2 1 2 2 2 2 3 3 3 3 3 3 3 3 2 1 1 0 0 -0 0 -1 -1 -1 -2 -3 -5 -12
-1 -0 1 -0 -0 -0 -1 -1 -0 1 1 2 2 2 2 2 2 2 2 2 2 2 3 3 3 3 3 3 2 2 1 1 0 0 1 1 1 -1 -1 -2 -2 -2 -6

GFSMW_850_dewp_120.txt.gz
Dewpoint
9 9 8 6 7 8 8 9 11 13 12 13 13 14 14 13 12 8 6 5 11 10 8 5 5 5 4 2 2 5 6 7 8 9 10 10 11 11 11 11 10 11 11
11 9 9 8 8 8 8 7 11 11 11 11 10 12 13 13 9 9 9 10 11 10 9 7 6 5 2 2 3 6 7 9 10 10 10 11 11 11 11 11 10 10 10
10 10 10 10 9 6 8 9 10 11 11 11 11 11 11 12 10 11 11 11 11 10 10 8 5 2 5 6 7 8 8 9 10 11 11 11 9 9 11 11 11 11 9
11 10 10 10 10 8 9 10 10 11 12 11 11 11 10 10 11 10 10 11 11 10 9 6 5 8 9 9 9 10 11 11 11 10 11 11 9 9 10 11 11 10 9
9 10 10 10 11 10 10 10 11 11 11 11 11 10 10 10 10 11 11 11 10 8 7 9 11 11 10 10 10 11 11 11 10 10 10 11 10 11 9 10 10 9 9
8 9 10 9 10 11 10 10 10 11 11 10 10 10 9 10 10 9 9 10 9 6 7 11 12 11 10 10 11 11 11 10 10 10 8 7 8 9 10 9 10 9 9
8 10 9 9 9 9 8 9 11 11 11 12 11 11 10 9 9 9 8 8 7 11 10 11 12 12 12 11 10 11 10 9 8 8 7 7 6 7 10 10 10 10 9
10 9 9 9 9 9 8 8 9 11 11 12 11 11 10 8 8 10 8 8 7 8 9 12 12 11 10 10 8 8 8 8 7 7 7 8 9 8 8 10 11 10 9
7 9 9 10 9 8 9 9 9 9 10 11 9 9 9 8 7 7 8 8 8 8 7 7 8 9 9 9 9 8 8 8 8 9 9 9 10 10 10 11 11 10 9
3 3 5 7 9 9 9 10 10 9 9 10 10 8 9 10 8 7 8 8 8 8 8 8 9 9 9 9 8 8 8 9 10 10 9 9 7 10 11 11 10 10 9
4 4 3 2 3 5 5 7 9 10 10 8 9 8 9 9 10 9 10 9 9 9 9 9 9 8 8 8 8 8 9 10 10 10 10 8 9 10 10 10 9 9 1
4 5 4 3 2 5 6 7 10 10 10 10 9 9 9 9 9 9 9 9 9 9 8 9 9 8 8 8 8 8 8 9 10 9 7 8 9 11 10 9 7 1 1
1 3 5 5 4 3 4 6 7 9 9 9 9 9 8 9 9 9 8 8 9 9 9 10 9 8 9 8 8 9 8 8 9 8 9 9 10 10 9 6 2 1 3
0 0 1 3 5 5 3 4 5 7 8 8 10 10 10 8 8 9 9 9 9 10 9 9 10 8 8 9 9 9 9 10 10 10 10 10 10 9 5 4 2 3 2
1 0 -0 -0 1 2 4 5 4 6 7 7 8 8 8 7 7 8 7 8 8 8 8 9 9 9 9 8 8 8 9 10 9 10 10 9 8 4 2 2 3 1 -0
1 1 0 0 -1 -1 0 3 4 5 5 8 8 7 7 7 7 6 5 7 8 9 10 10 9 9 8 9 9 9 9 9 9 9 9 6 4 3 3 2 -0 -0 -1
2 1 1 1 0 -1 -1 -1 -0 1 3 5 6 7 6 6 6 6 6 4 6 5 6 5 6 6 8 9 9 9 9 9 8 8 6 4 3 3 1 -0 -0 -1 -1
2 2 1 1 0 -0 -1 -1 -1 -2 -1 -1 1 2 3 4 5 5 5 5 4 3 4 4 6 7 8 8 8 9 8 7 6 4 2 3 3 1 -0 -0 -1 -1 -1
1 2 2 2 1 0 -0 -1 -1 -2 -2 -2 -2 -2 -1 -1 0 1 3 3 3 4 4 5 6 6 7 7 8 8 7 6 3 3 4 2 0 0 -0 -1 -1 -1 -1
2 1 1 2 2 1 1 0 -0 -1 -2 -2 -2 -2 -2 -2 -2 -1 -1 -0 1 2 3 5 5 6 7 7 7 7 6 3 3 3 2 1 0 -0 -1 -0 -1 -1 -1
2 2 1 1 1 1 1 1 0 -0 -0 -1 -1 -2 -2 -2 -2 -1 -1 -0 1 1 2 4 5 6 6 6 6 6 3 3 3 2 1 1 0 -0 -0 -1 -1 -1 -1
1 1 1 1 1 1 1 1 1 1 1 1 1 0 -1 -1 -1 -1 -1 0 1 2 3 3 4 5 5 5 3 2 3 3 2 1 1 0 -0 -0 -1 -1 -1 -1 -1
-3 -1 1 1 1 1 1 1 1 1 1 2 2 2 1 0 -0 0 1 2 2 3 3 3 3 3 3 2 2 3 3 2 1 1 0 -0 -0 -0 -1 -2 -2 -4 -5
-3 -3 -1 1 0 0 0 0 -0 -0 1 1 2 2 2 2 2 2 2 2 3 2 3 3 3 3 2 2 2 2 3 2 2 1 0 0 -0 -1 -1 -2 -3 -4 -9
-4 -3 -2 0 -0 -0 -0 -0 -1 -1 -0 1 2 2 2 2 2 2 2 1 2 2 2 2 3 3 3 2 2 2 2 2 2 1 1 -0 -0 -1 -1 -2 -3 -3 -5
-3 -3 -2 1 0 -1 -1 -1 -1 -1 -1 -1 1 1 1 1 2 2 2 2 2 2 2 2 2 3 3 3 3 2 2 2 1 1 1 0 0 -0 -0 0 -2 -2 -2

GFSMW_850_dewp_123.txt.gz
Dewpoint
7 7 6 6 9 9 6 8 9 10 13 13 13 13 12 13 13 13 13 14 13 6 5 3 5 4 4 2 3 4 4 6 8 8 9 9 10 10 11 10 11 11 10
7 8 7 8 9 8 8 8 10 10 13 13 12 9 10 13 13 14 12 14 11 2 3 4 5 4 4 6 5 3 5 8 8 9 10 10 11 11 10 10 11 11 10
8 9 9 8 10 8 6 7 8 10 11 12 13 12 12 12 13 13 14 13 6 4 4 6 6 4 5 5 2 3 4 6 8 9 10 11 10 10 11 11 11 11 10
10 10 10 9 9 8 7 7 8 9 9 12 12 13 12 13 13 13 13 9 10 10 9 7 6 5 6 5 2 3 5 7 7 9 10 10 9 8 10 10 10 10 10
10 10 10 9 10 9 10 9 8 7 10 11 11 11 12 13 12 12 11 11 11 12 10 10 9 8 6 3 3 5 7 8 9 9 10 11 10 9 9 10 10 11 10
10 10 11 11 11 10 10 8 10 9 9 10 12 12 12 11 12 11 10 10 10 9 11 10 9 8 5 7 7 8 9 10 11 10 10 10 9 7 7 6 7 9 9
10 10 10 10 10 11 10 10 10 11 11 11 11 11 12 12 9 10 10 11 11 11 11 10 9 7 8 10 10 10 9 8 9 9 9 9 8 7 7 7 6 9 9
7 9 10 9 8 9 9 9 10 10 10 11 11 11 11 11 11 10 11 9 7 11 10 8 6 8 10 10 9 9 9 9 8 9 9 8 7 7 8 9 8 10 10
6 7 9 10 10 9 9 9 9 9 9 11 11 11 11 11 10 10 10 10 6 7 10 7 6 9 10 12 11 10 9 8 9 9 8 7 7 9 9 10 10 9 10
5 6 6 7 9 9 9 9 10 10 9 10 11 11 11 11 10 10 10 10 9 8 7 7 8 9 11 10 9 9 8 8 9 8 8 8 9 9 10 10 9 10 10
3 6 4 5 6 5 6 6 7 10 10 10 10 10 10 11 10 10 9 10 9 9 9 8 8 8 7 9 9 9 8 8 8 8 8 9 9 10 9 7 7 10 10
2 4 6 5 6 6 6 8 9 9 10 10 10 10 9 10 10 9 8 8 8 9 9 9 9 8 8 9 9 9 8 8 8 9 9 10 9 10 10 10 9 10 10
0 1 3 4 5 5 6 7 8 8 8 8 9 9 9 9 9 9 9 9 8 9 9 9 9 9 9 9 8 9 9 8 9 9 9 9 8 8 9 9 10 9 5
1 0 -0 0 3 5 5 5 7 7 7 8 9 9 8 8 9 8 7 9 9 9 9 9 8 9 8 8 8 9 9 9 9 10 9 9 9 9 8 9 9 4 2
1 1 1 -0 -1 1 3 5 6 7 9 8 8 9 6 6 6 6 6 7 8 8 9 9 9 9 8 9 9 8 8 9 10 10 10 10 9 10 9 8 4 3 2
2 1 1 0 -0 -1 -0 1 3 6 7 8 9 8 7 7 7 7 8 8 8 7 8 9 9 9 9 9 9 7 7 8 9 9 10 10 9 9 8 4 2 2 1
2 2 1 1 0 -0 -1 -1 -1 1 3 5 7 7 7 7 7 7 7 6 6 5 5 7 9 10 9 9 9 9 9 9 9 9 9 9 8 6 4 3 3 1 -0
1 2 2 2 1 0 -0 -1 -1 -1 -1 -1 1 2 3 4 5 6 6 6 6 5 4 4 5 5 6 8 8 8 9 9 8 8 8 8 6 5 3 2 1 0 -1
1 1 2 2 2 1 0 0 -1 -1 -1 -2 -2 -1 -1 -0 1 2 3 4 4 4 5 5 4 4 7 7 7 8 8 8 7 7 6 5 2 2 4 5 3 -0 -1
1 1 1 1 1 1 1 1 0 -0 -1 -1 -2 -2 -2 -2 -2 -2 -1 -0 1 2 2 3 4 5 6 6 7 7 7 7 6 5 3 3 4 4 4 2 -0 -1 -1
1 1 1 1 1 1 1 1 1 0 1 0 0 -0 -1 -2 -2 -2 -2 -1 -1 0 1 2 3 5 6 6 6 6 6 6 6 4 3 3 2 1 0 -0 -0 -0 -1
-3 0 1 1 1 1 1 1 1 1 0 0 0 0 0 0 -1 -1 -1 -1 -1 -0 1 2 2 3 4 5 6 6 5 5 4 3 3 2 1 0 0 -0 -0 -1 -1
-3 -3 -2 1 1 1 1 0 -0 -1 -1 0 1 1 1 1 1 1 1 0 1 1 1 2 2 2 3 4 5 5 4 3 2 2 1 1 1 0 -0 -0 -1 -1 -2
-4 -4 -3 -2 1 0 0 -0 -1 -1 -1 -0 1 2 1 1 1 1 2 2 2 1 1 2 2 2 3 3 3 2 2 2 3 2 1 1 0 0 0 -0 -1 -2 -2
-5 -4 -3 -3 -0 0 -0 -0 -1 -1 -1 -1 -1 0 1 1 1 1 2 2 2 2 1 1 1 1 2 3 3 2 2 2 2 2 1 1 1 0 0 0 -1 -2 -2
-3 -4 -3 -3 -1 1 -0 -0 -2 -1 -1 -1 -1 -1 -1 -1 -0 0 0 0 1 2 2 2 1 1 1 2 2 2 2 2 2 1 1 1 1 1 1 -0 -1 -1 -2